[[{"header":{"parameterUnit":"m.s-1","parameterCategory":1,"la1":30.6,"la2":29.2853,"lo1":-89.7004,"lo2":-87.6739,"dy":0.0162,"dx":0.0183,"nx":112,"ny":82,"refTime":"2026-04-18T12:00:00:Z","depth":0,"parameterNumber":2,"parameterNumberName":"U-component_of_WINDS"},"data":[0.0,0.0,0.0,0.0,0.0,0.0,0.0,0.0,0.0,0.0,0.0,0.0,0.0,0.0,0.0,0.0,0.0,0.0,0.0,0.0,0.0,0.0,0.0,0.0,0.0,0.0,0.0,0.0,0.0,0.0,0.0,0.0,0.0,0.0,0.0,0.0,0.0,0.0,0.0,0.0,0.0,0.0,0.0,0.0,0.0,0.0,0.0,0.0,0.0,0.0,0.0,0.0,0.0,0.0,0.0,0.0,0.0,0.0,0.0,0.0,0.0,0.0,0.0,0.0,0.0,0.0,0.0,0.0,0.0,0.0,0.0,0.0,0.0,0.0,0.0,0.0,0.0,0.0,0.0,0.0,0.0,0.0,0.0,0.0,0.0,0.0,0.0,0.0,0.0,0.0,0.0,11.039,12.0117,12.539,12.3789,12.2304,11.5703,10.2383,0.0,0.0,0.0,0.0,0.0,0.0,0.0,0.0,0.0,0.0,0.0,0.0,0.0,0.0,0.0,0.0,0.0,0.0,0.0,0.0,0.0,0.0,0.0,0.0,0.0,0.0,0.0,0.0,0.0,0.0,0.0,0.0,0.0,0.0,0.0,0.0,0.0,0.0,0.0,0.0,0.0,0.0,0.0,0.0,0.0,0.0,0.0,0.0,0.0,0.0,0.0,0.0,0.0,0.0,0.0,0.0,0.0,0.0,0.0,0.0,0.0,0.0,0.0,0.0,0.0,0.0,0.0,0.0,0.0,0.0,0.0,0.0,0.0,0.0,0.0,0.0,0.0,0.0,0.0,0.0,0.0,0.0,0.0,0.0,0.0,0.0,0.0,0.0,0.0,0.0,0.0,0.0,0.0,0.0,0.0,0.0,0.0,0.0,0.0,0.0,0.0,0.0,0.0,0.0,10.3594,11.8593,12.3711,12.5586,12.4687,12.039,11.3203,10.2304,0.0,0.0,0.0,0.0,0.0,0.0,0.0,0.0,0.0,0.0,0.0,0.0,0.0,0.0,0.0,0.0,0.0,0.0,0.0,0.0,0.0,0.0,0.0,0.0,0.0,0.0,0.0,0.0,0.0,0.0,0.0,0.0,0.0,0.0,0.0,0.0,0.0,0.0,0.0,0.0,0.0,0.0,0.0,0.0,0.0,0.0,0.0,0.0,0.0,0.0,0.0,0.0,0.0,0.0,0.0,0.0,0.0,0.0,0.0,0.0,0.0,0.0,0.0,0.0,0.0,0.0,0.0,0.0,0.0,0.0,0.0,0.0,0.0,0.0,0.0,0.0,0.0,0.0,0.0,0.0,0.0,0.0,0.0,0.0,0.0,0.0,0.0,0.0,0.0,0.0,0.0,0.0,0.0,0.0,0.0,0.0,0.0,0.0,0.0,0.0,0.0,0.0,0.0,10.3203,11.0195,12.289,12.6601,12.7383,12.5586,12.1992,11.4804,10.3008,9.9375,0.0,0.0,0.0,0.0,0.0,0.0,0.0,0.0,0.0,0.0,0.0,0.0,0.0,0.0,0.0,0.0,0.0,0.0,0.0,0.0,0.0,0.0,0.0,0.0,0.0,0.0,0.0,0.0,0.0,0.0,0.0,0.0,0.0,0.0,0.0,0.0,0.0,0.0,0.0,0.0,0.0,0.0,0.0,0.0,0.0,0.0,0.0,0.0,0.0,0.0,0.0,0.0,0.0,0.0,0.0,0.0,0.0,0.0,0.0,0.0,0.0,0.0,0.0,0.0,0.0,0.0,0.0,0.0,0.0,0.0,0.0,0.0,0.0,0.0,0.0,0.0,0.0,0.0,0.0,0.0,0.0,0.0,0.0,0.0,0.0,0.0,0.0,0.0,0.0,0.0,0.0,0.0,0.0,0.0,0.0,0.0,0.0,0.0,0.0,0.0,0.0,0.0,11.2187,11.7383,12.539,12.8086,12.8281,12.5898,12.2109,11.4883,10.3281,9.7617,0.0,0.0,0.0,0.0,0.0,0.0,0.0,0.0,0.0,0.0,0.0,0.0,0.0,0.0,0.0,0.0,0.0,0.0,0.0,0.0,0.0,0.0,0.0,0.0,0.0,0.0,0.0,0.0,0.0,0.0,0.0,0.0,0.0,0.0,0.0,0.0,0.0,0.0,0.0,0.0,0.0,0.0,0.0,0.0,0.0,0.0,0.0,0.0,0.0,0.0,0.0,0.0,0.0,0.0,0.0,0.0,0.0,0.0,0.0,0.0,0.0,0.0,0.0,0.0,0.0,0.0,0.0,0.0,0.0,0.0,0.0,0.0,0.0,0.0,0.0,0.0,0.0,0.0,0.0,0.0,0.0,0.0,0.0,0.0,0.0,0.0,0.0,0.0,0.0,0.0,0.0,0.0,0.0,0.0,0.0,0.0,0.0,0.0,0.0,0.0,0.0,0.0,11.4492,12.289,12.6797,12.7383,12.6797,12.5,11.7304,10.9492,10.2187,9.3867,0.0,0.0,0.0,0.0,0.0,0.0,0.0,0.0,0.0,0.0,0.0,0.0,0.0,0.0,0.0,0.0,0.0,0.0,0.0,0.0,0.0,0.0,0.0,0.0,0.0,0.0,0.0,0.0,0.0,0.0,0.0,0.0,0.0,0.0,0.0,0.0,0.0,0.0,0.0,0.0,0.0,0.0,0.0,0.0,0.0,0.0,0.0,0.0,0.0,0.0,0.0,0.0,0.0,0.0,0.0,0.0,0.0,0.0,0.0,0.0,0.0,0.0,0.0,0.0,0.0,0.0,0.0,0.0,0.0,0.0,0.0,0.0,0.0,0.0,0.0,0.0,0.0,0.0,0.0,0.0,0.0,0.0,0.0,0.0,0.0,0.0,0.0,0.0,0.0,0.0,0.0,0.0,0.0,0.0,0.0,0.0,0.0,0.0,0.0,0.0,0.0,0.0,11.3203,12.1289,0.0,12.8086,12.7187,12.5,12.0312,11.3008,10.2304,0.0,0.0,0.0,0.0,0.0,0.0,0.0,0.0,0.0,0.0,0.0,0.0,0.0,0.0,0.0,0.0,0.0,0.0,0.0,0.0,0.0,0.0,0.0,0.0,0.0,0.0,0.0,0.0,0.0,0.0,0.0,0.0,0.0,0.0,0.0,0.0,0.0,0.0,0.0,0.0,0.0,0.0,0.0,0.0,0.0,0.0,0.0,0.0,0.0,0.0,0.0,0.0,0.0,0.0,0.0,0.0,0.0,0.0,0.0,0.0,0.0,0.0,0.0,0.0,0.0,0.0,0.0,0.0,0.0,0.0,0.0,0.0,0.0,0.0,0.0,0.0,0.0,0.0,0.0,0.0,0.0,0.0,0.0,0.0,0.0,0.0,0.0,0.0,0.0,0.0,0.0,0.0,0.0,0.0,0.0,0.0,0.0,0.0,0.0,0.0,0.0,0.0,10.4609,11.3789,12.2187,0.0,12.9492,12.8515,12.7304,12.2617,11.4687,10.3203,0.0,0.0,0.0,0.0,0.0,0.0,0.0,0.0,0.0,0.0,0.0,0.0,0.0,0.0,0.0,0.0,0.0,0.0,0.0,0.0,0.0,0.0,0.0,0.0,0.0,0.0,0.0,0.0,0.0,0.0,0.0,0.0,0.0,0.0,0.0,0.0,0.0,0.0,0.0,0.0,0.0,0.0,0.0,0.0,0.0,0.0,0.0,0.0,0.0,0.0,0.0,0.0,0.0,0.0,0.0,0.0,0.0,0.0,0.0,0.0,0.0,0.0,0.0,0.0,0.0,0.0,0.0,0.0,0.0,0.0,0.0,0.0,0.0,0.0,0.0,0.0,0.0,0.0,0.0,0.0,0.0,0.0,0.0,0.0,0.0,0.0,0.0,0.0,0.0,0.0,0.0,0.0,0.0,0.0,0.0,0.0,0.0,0.0,0.0,0.0,0.0,0.0,10.6015,11.7383,12.7187,13.3203,13.1484,13.0703,13.2383,12.3008,11.3398,0.0,0.0,0.0,0.0,0.0,0.0,0.0,0.0,0.0,0.0,0.0,0.0,0.0,0.0,0.0,0.0,0.0,0.0,0.0,0.0,0.0,0.0,0.0,0.0,0.0,0.0,0.0,0.0,0.0,0.0,0.0,0.0,0.0,0.0,0.0,0.0,0.0,0.0,0.0,0.0,0.0,0.0,0.0,0.0,0.0,0.0,0.0,0.0,0.0,0.0,0.0,0.0,0.0,0.0,0.0,0.0,0.0,0.0,0.0,0.0,0.0,0.0,0.0,0.0,0.0,0.0,0.0,0.0,0.0,0.0,0.0,0.0,0.0,0.0,0.0,0.0,0.0,0.0,0.0,0.0,0.0,0.0,0.0,0.0,0.0,0.0,0.0,0.0,0.0,0.0,0.0,0.0,0.0,0.0,0.0,0.0,0.0,0.0,0.0,0.0,0.0,0.0,0.0,0.0,12.2617,13.3086,13.6211,13.5195,13.3906,13.2617,12.6914,11.789,10.5,0.0,0.0,0.0,0.0,0.0,0.0,0.0,0.0,0.0,0.0,0.0,0.0,0.0,0.0,0.0,0.0,0.0,0.0,0.0,0.0,0.0,0.0,0.0,0.0,0.0,0.0,0.0,0.0,0.0,0.0,0.0,0.0,0.0,0.0,0.0,0.0,0.0,0.0,0.0,0.0,0.0,0.0,0.0,0.0,0.0,0.0,0.0,0.0,0.0,0.0,0.0,0.0,0.0,0.0,0.0,0.0,0.0,0.0,0.0,0.0,0.0,0.0,0.0,0.0,0.0,0.0,0.0,0.0,0.0,0.0,0.0,0.0,0.0,0.0,0.0,0.0,0.0,0.0,0.0,0.0,0.0,0.0,0.0,0.0,0.0,0.0,0.0,0.0,0.0,0.0,0.0,0.0,0.0,0.0,0.0,0.0,0.0,0.0,0.0,0.0,0.0,0.0,11.0195,12.5117,13.6211,13.9297,13.8593,13.7382,13.6211,13.1797,12.3203,10.9218,0.0,0.0,0.0,0.0,0.0,0.0,0.0,0.0,0.0,0.0,0.0,0.0,0.0,0.0,0.0,0.0,0.0,0.0,0.0,0.0,0.0,0.0,0.0,0.0,0.0,0.0,0.0,0.0,0.0,0.0,0.0,0.0,0.0,0.0,0.0,0.0,0.0,0.0,0.0,0.0,0.0,0.0,0.0,0.0,0.0,0.0,0.0,0.0,0.0,0.0,0.0,0.0,0.0,0.0,0.0,0.0,0.0,0.0,0.0,0.0,0.0,0.0,0.0,0.0,0.0,0.0,0.0,0.0,0.0,0.0,0.0,0.0,0.0,0.0,0.0,0.0,0.0,0.0,0.0,0.0,0.0,0.0,0.0,0.0,0.0,0.0,0.0,0.0,0.0,0.0,0.0,0.0,0.0,0.0,0.0,0.0,0.0,0.0,0.0,0.0,0.0,0.0,11.1289,12.6015,13.7617,14.25,14.1601,14.0898,14.1601,13.6992,12.8593,11.5781,0.0,0.0,0.0,0.0,0.0,0.0,0.0,0.0,0.0,0.0,0.0,0.0,0.0,0.0,0.0,0.0,0.0,0.0,0.0,0.0,0.0,0.0,0.0,0.0,0.0,0.0,0.0,0.0,0.0,0.0,0.0,0.0,0.0,0.0,0.0,0.0,0.0,0.0,0.0,0.0,0.0,0.0,0.0,0.0,0.0,0.0,0.0,0.0,0.0,0.0,0.0,0.0,0.0,0.0,0.0,0.0,0.0,0.0,0.0,0.0,9.5365,0.0,0.0,0.0,0.0,0.0,0.0,0.0,0.0,0.0,0.0,0.0,0.0,0.0,0.0,0.0,0.0,0.0,0.0,0.0,0.0,0.0,0.0,0.0,0.0,0.0,0.0,0.0,0.0,0.0,0.0,0.0,0.0,0.0,0.0,0.0,0.0,0.0,0.0,0.0,0.0,0.0,11.3906,13.0312,14.2109,14.4492,14.4414,14.3789,14.2617,13.8398,13.0781,11.9218,0.0,0.0,0.0,0.0,0.0,0.0,0.0,0.0,0.0,0.0,0.0,0.0,0.0,0.0,0.0,0.0,0.0,0.0,0.0,0.0,0.0,0.0,0.0,0.0,0.0,0.0,0.0,0.0,0.0,0.0,0.0,0.0,0.0,0.0,0.0,0.0,0.0,0.0,0.0,0.0,0.0,0.0,0.0,0.0,0.0,0.0,0.0,0.0,0.0,0.0,0.0,0.0,0.0,0.0,0.0,0.0,0.0,0.0,0.0,0.0,0.0,9.8096,0.0,0.0,0.0,0.0,0.0,0.0,0.0,0.0,0.0,0.0,0.0,0.0,0.0,0.0,0.0,0.0,0.0,0.0,0.0,0.0,0.0,0.0,0.0,0.0,0.0,0.0,0.0,0.0,0.0,0.0,0.0,0.0,0.0,0.0,0.0,0.0,0.0,0.0,0.0,0.0,11.5312,13.1797,14.3398,14.5117,14.5312,14.4609,14.289,13.9609,13.3711,12.4492,11.4687,0.0,0.0,0.0,0.0,0.0,0.0,0.0,0.0,0.0,0.0,0.0,0.0,0.0,0.0,0.0,0.0,0.0,0.0,0.0,0.0,0.0,0.0,0.0,0.0,0.0,0.0,0.0,0.0,0.0,0.0,0.0,0.0,0.0,0.0,0.0,0.0,0.0,0.0,0.0,0.0,0.0,0.0,0.0,0.0,0.0,0.0,0.0,0.0,0.0,0.0,0.0,0.0,0.0,11.0406,11.2406,11.5792,11.5291,11.5907,11.7292,11.2291,10.879,10.6097,0.0,0.0,0.0,0.0,0.0,0.0,0.0,0.0,0.0,0.0,0.0,0.0,0.0,0.0,0.0,0.0,0.0,0.0,0.0,0.0,0.0,0.0,0.0,0.0,0.0,10.9782,10.9104,0.0,0.0,0.0,0.0,0.0,0.0,0.0,0.0,0.0,0.0,0.0,0.0,11.6718,13.2304,14.3203,14.4882,14.5117,14.4492,14.3086,14.0586,13.6406,13.0117,12.0586,11.1406,0.0,0.0,0.0,0.0,0.0,0.0,0.0,0.0,0.0,0.0,0.0,0.0,0.0,0.0,0.0,0.0,0.0,0.0,0.0,0.0,0.0,0.0,0.0,0.0,0.0,0.0,0.0,0.0,0.0,0.0,0.0,0.0,8.844,8.8055,0.0,0.0,0.0,0.0,0.0,0.0,0.0,0.0,0.0,0.0,0.0,0.0,0.0,10.5097,10.879,11.4791,11.81,11.8715,12.4486,12.7602,12.8179,12.8794,12.9987,13.1602,13.0794,0.0,11.1714,11.1714,0.0,0.0,0.0,0.0,0.0,0.0,0.0,0.0,0.0,0.0,0.0,0.0,0.0,0.0,0.0,0.0,0.0,0.0,0.0,0.0,0.0,0.0,11.9593,11.94,11.9869,11.9684,0.0,10.4519,9.3043,8.8817,0.0,0.0,0.0,0.0,0.0,0.0,0.0,0.0,12.0117,13.3281,14.2304,14.3984,14.4218,14.4101,14.3906,14.1484,13.8281,13.4414,12.7304,11.9687,11.1797,10.2617,0.0,0.0,0.0,0.0,0.0,0.0,0.0,0.0,0.0,0.0,0.0,0.0,0.0,0.0,0.0,0.0,0.0,0.0,0.0,0.0,0.0,0.0,0.0,0.0,0.0,0.0,0.0,0.0,0.0,8.7171,9.1748,8.9017,9.1556,9.0864,0.0,0.0,0.0,0.0,0.0,0.0,0.0,0.0,0.0,11.0791,11.1791,11.4791,12.01,12.4101,12.6794,12.8217,13.2179,13.4487,13.5411,13.5295,13.5988,13.7103,13.6603,13.2603,12.5794,12.0485,11.3791,10.6597,0.0,0.0,0.0,0.0,10.2481,10.3712,10.9713,11.1098,0.0,0.0,0.0,0.0,0.0,0.0,0.0,0.0,0.0,0.0,0.0,0.0,0.0,12.3668,12.4562,12.4525,12.3701,11.6506,10.7908,0.0,9.7043,9.2438,8.2008,0.0,0.0,0.0,0.0,0.0,12.25,13.4101,14.1992,14.3203,14.3711,14.3984,14.3984,14.2109,13.9687,13.6718,13.1406,12.5586,11.9218,11.0781,10.2812,0.0,0.0,0.0,0.0,0.0,0.0,0.0,0.0,0.0,0.0,0.0,0.0,0.0,0.0,0.0,0.0,0.0,0.0,0.0,0.0,0.0,0.0,0.0,0.0,0.0,0.0,0.0,0.0,9.1171,9.5288,9.0825,9.5595,9.5634,0.0,0.0,0.0,0.0,0.0,0.0,10.5982,10.8213,11.2676,12.0177,12.1216,12.4486,13.0487,13.1987,13.3718,13.5603,13.7103,13.8411,13.9604,13.9181,13.9412,13.9912,13.9296,13.8488,13.6796,12.8102,12.0908,11.5022,11.1214,10.8598,10.7482,11.0714,11.2099,11.3599,12.1216,12.2908,12.1293,11.9215,0.0,11.0291,10.1981,0.0,0.0,0.0,0.0,10.4222,11.3273,11.7395,12.0525,12.5783,12.7101,12.7069,12.6893,12.4721,12.0215,0.0,10.8711,10.4108,9.1861,0.0,0.0,0.0,0.0,11.8515,12.5781,13.5195,14.1484,14.2382,14.3007,14.3398,14.3398,14.1992,14.0195,13.8086,13.4297,13.0117,12.5312,11.8281,11.1211,10.3984,0.0,0.0,0.0,0.0,0.0,0.0,0.0,0.0,0.0,0.0,0.0,0.0,0.0,0.0,0.0,0.0,0.0,0.0,0.0,0.0,0.0,0.0,0.0,0.0,0.0,0.0,0.0,0.0,0.0,9.5288,10.1981,0.0,0.0,0.0,0.0,10.0404,10.5405,11.0483,11.5484,11.8985,12.3909,13.0679,13.1795,13.3987,13.7603,13.8411,13.8911,13.9104,13.9989,14.0489,14.0604,14.1296,14.1681,14.1797,14.1681,14.0719,13.8796,13.4295,12.9871,12.5678,12.2985,12.0908,11.9408,11.96,12.0793,12.2601,12.5486,12.5909,12.5794,12.9602,12.4178,11.5599,11.2714,10.7408,0.0,0.0,10.9286,11.3672,11.7981,12.2226,12.5822,12.7409,12.8102,12.8294,12.8314,12.5903,12.3001,0.0,11.7304,11.3116,10.7408,0.0,10.6704,10.9909,11.5508,12.2383,13.1015,13.6914,14.0586,14.1484,14.1601,14.1601,14.1601,14.0781,13.9882,13.8906,13.6289,13.3203,12.9687,12.4492,11.8008,11.0312,10.1601,0.0,0.0,0.0,0.0,0.0,0.0,0.0,0.0,0.0,0.0,0.0,0.0,0.0,0.0,0.0,0.0,0.0,0.0,0.0,0.0,0.0,0.0,0.0,0.0,0.0,0.0,0.0,0.0,10.1789,10.8983,0.0,10.3097,10.5097,10.779,11.0098,11.5484,12.0716,12.5293,12.7178,12.9987,13.3987,13.4411,13.5488,13.718,13.8604,13.9296,13.9296,14.0796,14.1412,14.1412,14.1797,14.1604,14.1104,14.1104,14.0104,13.8411,13.6911,13.4103,13.0602,12.8602,12.7101,12.6217,12.7217,12.8409,12.9679,13.1679,13.2179,13.1602,12.9794,12.5293,11.9908,11.6292,11.3868,11.2719,11.3604,11.5785,11.87,12.2274,12.4783,12.6524,12.6986,12.7178,12.7409,12.7486,12.6889,12.6026,12.5297,12.1901,11.7592,11.2593,11.3809,11.5106,11.4396,12.0117,12.6718,13.2617,13.6914,13.9687,14.0586,14.1211,14.1289,14.0703,13.9882,13.8515,13.6484,13.5,13.2695,12.9218,12.6211,12.1797,11.5703,10.9297,9.9687,0.0,0.0,0.0,0.0,0.0,0.0,0.0,0.0,0.0,0.0,0.0,0.0,0.0,0.0,0.0,0.0,0.0,0.0,0.0,0.0,0.0,0.0,0.0,0.0,0.0,0.0,10.9483,10.7482,11.4791,11.7484,11.1291,11.4022,11.71,11.9408,12.3985,12.8217,13.1602,13.2487,13.3987,13.6296,13.6411,13.6796,13.7603,13.8719,13.9412,13.9796,14.0912,14.1604,14.1912,14.1604,14.1104,14.0604,14.0296,13.9412,13.8104,13.8104,13.6603,13.4103,13.241,13.1218,13.0602,13.1679,13.291,13.3987,13.5488,13.5719,13.4911,13.091,12.7294,12.3985,12.0908,11.9908,11.9985,12.0292,12.1216,12.2601,12.5178,12.6294,12.6678,12.6678,12.6678,12.6794,12.6986,12.7178,12.7275,12.7396,12.5406,12.2509,11.8694,12.0624,12.1897,11.9283,12.4481,12.9687,13.2617,13.6211,13.8711,13.9297,13.9804,14.0,13.9414,13.6914,13.5117,13.4218,13.1211,12.8515,12.6484,12.3906,12.039,11.5781,10.8906,10.0,8.9101,0.0,0.0,0.0,0.0,0.0,0.0,0.0,0.0,0.0,0.0,0.0,0.0,0.0,0.0,0.0,0.0,0.0,0.0,0.0,0.0,0.0,0.0,0.0,9.8865,10.8482,11.4599,11.2214,11.9292,12.3101,11.9792,12.1793,12.4601,12.7909,13.041,13.2603,13.4295,13.5103,13.6296,13.7988,13.8104,13.8411,13.9219,13.9219,13.9719,14.0604,14.0604,14.0989,14.1797,14.0989,14.0604,14.0489,13.9604,13.8796,13.8104,13.8104,13.7488,13.6603,13.4988,13.3795,13.3103,13.2987,13.4103,13.5603,13.6488,13.618,13.5218,13.3487,13.0718,12.7794,12.6986,12.5486,12.4409,12.5216,12.5409,12.5601,12.6486,12.6678,12.6678,12.6678,12.6678,12.6794,12.6986,12.6919,12.6806,12.6984,12.7876,12.7997,12.6188,12.6717,12.6805,12.5396,12.8593,0.0,13.1289,13.4883,13.75,13.7382,13.7382,13.7382,13.7382,13.1992,12.9609,13.2109,12.5117,12.1289,12.1992,11.8086,11.4218,11.0781,10.0586,9.3711,9.0273,0.0,0.0,0.0,0.0,0.0,0.0,0.0,0.0,0.0,0.0,0.0,0.0,0.0,0.0,0.0,0.0,0.0,0.0,0.0,0.0,0.0,0.0,10.4713,10.5213,11.2599,11.8908,12.1293,12.6294,12.9487,12.9179,12.9794,13.091,13.241,13.3718,13.4911,13.6103,13.6296,13.668,13.7103,13.718,13.7296,13.7488,13.8104,13.8796,13.9719,14.0296,14.0719,14.0912,14.0719,13.9912,13.8796,13.8488,13.7911,13.718,13.718,13.6603,13.5795,13.5411,13.4988,13.4718,13.418,13.4603,13.5488,13.5795,13.5295,13.4295,13.2603,13.0602,12.8717,12.7794,12.6794,12.5986,12.6294,12.6294,12.6409,12.6601,12.6678,12.6678,12.6678,12.6678,12.6678,12.6794,12.6904,12.6994,12.6822,12.7408,12.7608,12.6878,12.722,12.7685,12.8095,12.9917,0.0,13.289,13.4609,13.5195,13.3984,13.3906,13.3593,13.3008,12.9687,12.7695,12.7812,12.3515,12.039,11.9414,11.7617,11.5898,11.4297,10.4804,9.875,0.0,0.0,0.0,0.0,0.0,0.0,0.0,0.0,0.0,0.0,0.0,0.0,0.0,0.0,0.0,0.0,0.0,0.0,0.0,0.0,0.0,0.0,10.629,11.2714,11.4791,11.9292,12.3716,12.7602,13.0487,13.291,13.4411,13.4295,13.4411,13.5295,13.5795,13.6296,13.6796,13.6796,13.6796,13.6796,13.6796,13.6796,13.6796,13.7296,13.7988,13.8796,13.9719,14.0104,14.0104,14.0104,13.9296,0.0,13.768,13.7296,13.6796,13.6796,13.6488,0.0,0.0,0.0,0.0,0.0,13.5103,13.5488,13.5488,13.4988,13.3987,13.2295,13.0602,12.8986,12.8217,12.7294,12.6678,12.6678,12.6678,12.6678,12.6678,12.6678,12.6678,12.6678,12.6678,12.6678,12.6794,12.6895,12.6872,12.689,12.7063,0.0,12.7031,12.739,12.7921,12.8119,12.9906,13.1406,13.2109,13.3789,13.4609,13.3711,13.3906,13.3711,13.289,12.8789,0.0,0.0,0.0,11.6015,11.3515,11.2617,0.0,0.0,0.0,0.0,0.0,0.0,0.0,0.0,9.5312,9.457,0.0,0.0,0.0,0.0,0.0,0.0,0.0,0.0,0.0,0.0,0.0,0.0,0.0,0.0,0.0,0.0,11.3291,12.01,12.4986,12.6486,12.8294,13.1487,13.2679,13.418,13.6603,13.6103,13.5988,13.668,13.6796,13.6796,13.6796,0.0,0.0,0.0,0.0,13.6796,13.6796,13.6796,13.718,13.8104,13.8796,13.9219,13.9219,13.9296,13.8796,13.7873,13.718,13.6911,13.6796,13.6796,13.6796,13.668,13.5911,13.5218,13.4487,13.5295,13.5603,13.5488,13.5411,0.0,0.0,13.2295,13.0602,12.9102,12.8294,12.7409,12.6678,12.6678,12.6678,12.6678,12.6678,12.6678,12.6678,12.6678,12.6678,12.6794,12.6986,12.6871,12.6794,12.6986,12.6871,12.6678,12.6678,12.7419,12.7715,12.6718,12.9208,13.1015,13.0312,13.289,13.4804,13.4492,0.0,0.0,13.4492,12.8515,12.5117,12.5898,11.7617,11.1093,10.789,10.7109,10.6406,10.5703,10.5508,10.6992,11.0,11.0,11.1289,11.3515,10.0117,9.8437,0.0,0.0,0.0,0.0,0.0,0.0,0.0,0.0,0.0,0.0,0.0,0.0,0.0,0.0,0.0,10.8482,11.6484,12.3216,12.6909,12.8794,13.0487,13.2487,13.4103,13.5488,13.668,13.6603,13.6603,13.6796,13.6796,13.6796,13.6796,13.6796,13.6796,13.6796,13.6796,13.6796,13.6796,13.6796,13.718,13.8104,0.0,0.0,13.8411,13.8988,13.8488,13.7103,13.7603,13.7411,13.6796,13.6796,13.6796,13.6796,13.6603,13.5988,13.5411,13.618,13.6103,13.5411,13.4795,13.4411,13.3987,13.2295,13.0602,12.9217,12.8986,12.7909,0.0,12.6678,12.6678,12.6678,12.6678,12.6678,12.6678,12.6678,12.6678,12.6678,12.6794,12.6678,12.6678,12.6794,12.6678,12.6678,12.6678,12.7342,12.7908,12.8312,12.9988,13.1406,13.1914,13.3203,13.3203,13.1093,13.1015,13.1093,13.0898,12.7109,12.5117,12.5898,12.039,11.6211,11.4101,11.4492,11.4687,11.4492,11.3789,11.3789,11.4492,11.4492,11.5508,11.7187,11.2304,11.1015,0.0,0.0,0.0,0.0,0.0,0.0,0.0,0.0,0.0,0.0,0.0,9.2479,9.6749,0.0,10.8482,11.4907,12.0908,12.5717,12.8217,13.041,13.2102,13.2872,13.4103,13.5218,13.6103,13.6488,13.6796,13.6796,13.6796,13.6796,13.6796,13.6796,13.6796,13.6796,13.6796,13.6796,13.6796,13.6796,13.6988,13.7488,13.7873,13.7873,13.7488,13.8296,13.7988,13.6796,13.7296,13.718,13.6796,13.6796,13.6796,13.6796,13.6796,13.6488,13.618,13.6603,13.6488,13.5988,13.4718,13.4295,13.391,13.1795,13.0217,12.9102,12.8717,12.7717,12.6678,12.6678,12.6678,12.6678,12.6678,12.6678,12.6678,12.6678,12.6678,12.6678,12.6678,12.6678,12.6678,12.6678,12.6678,12.6678,12.6678,12.7178,12.7908,12.8779,13.0184,13.1484,13.2383,13.3281,13.3281,13.1992,13.2187,13.2304,13.1914,12.8711,12.6289,12.5508,12.2187,11.9492,11.7812,11.8086,11.8515,11.8906,11.8086,11.8086,11.8984,11.8515,11.8789,11.9609,11.8711,11.8086,0.0,0.0,0.0,0.0,0.0,0.0,0.0,0.0,8.8248,9.2479,9.6057,10.0096,10.5597,10.9483,11.4099,12.0793,12.4678,12.7486,12.9217,13.141,13.2679,13.2679,13.3795,13.4911,13.5719,13.6411,13.6796,13.6796,13.6796,13.6796,13.6796,13.6796,13.6796,13.6796,13.6796,13.6796,13.6796,13.6796,13.6796,13.6796,13.7488,13.7488,13.6796,13.768,13.7603,13.6796,13.6796,13.6796,13.6796,13.6796,13.6796,13.6796,13.6796,13.6796,13.6796,13.6603,13.6488,13.6296,13.4603,13.3987,13.3718,13.1487,12.9987,12.9102,12.8409,12.7486,12.6678,12.6678,12.6678,12.6678,12.6678,12.6678,12.6678,12.6678,12.6678,12.6678,12.6678,12.6678,12.6678,12.6678,12.6678,12.6678,12.6678,12.7178,12.8023,12.8973,13.0301,13.1601,13.2617,13.3398,13.3789,13.3789,13.4414,13.4414,13.3593,13.1015,12.8281,12.5898,12.4297,12.2695,12.1211,12.0898,12.1211,12.1914,12.1211,12.1484,12.289,12.2187,12.1797,12.1718,12.25,12.2304,7.7845,7.7361,7.9477,8.4786,8.567,8.8248,0.0,0.0,10.0519,10.4789,10.8406,11.0983,11.1714,11.5291,11.91,12.2216,12.5601,12.8409,13.0102,13.1179,13.1795,13.1795,13.391,13.5719,13.6603,13.668,13.6796,13.6796,13.6796,13.6796,13.6796,13.6796,13.6796,13.6796,13.6796,13.6796,13.6796,13.6796,13.6796,13.6796,13.6911,13.6911,13.6796,13.768,13.7603,13.6796,13.6796,13.6796,13.6796,13.6796,13.6796,13.6796,13.6796,13.6796,13.668,13.5911,13.5603,13.5411,13.368,13.3103,13.2987,13.191,13.0487,12.9217,12.9102,12.7986,12.6678,12.6678,12.6678,12.6678,12.6678,12.6678,12.6678,12.6678,12.6678,12.6678,12.6678,12.6678,12.6678,12.6678,12.6678,12.6678,12.6678,12.7178,12.8216,12.9817,13.0691,13.1797,13.3398,13.3711,13.3789,13.3789,13.3906,13.3593,13.2695,13.2304,13.1289,12.9414,12.8398,12.7383,12.6484,12.5703,12.5312,12.539,12.5312,12.539,12.5586,12.5508,12.5117,12.4414,12.5195,12.4297,8.5887,8.6017,0.0,0.0,9.4557,9.8096,10.4405,10.579,10.679,11.0598,11.3291,11.5407,11.6792,11.9408,12.21,0.0,12.7101,12.9102,13.0294,13.0794,13.0987,13.0987,13.241,13.3795,13.5218,13.618,13.6796,13.6796,13.6796,13.6796,13.6796,13.6796,13.6796,13.6796,13.6796,13.6796,13.6796,13.6796,13.6796,13.6796,13.6796,13.6796,13.6796,13.718,13.7103,13.6796,13.6296,13.5988,13.5988,13.5988,13.5988,13.6103,13.6603,13.6488,13.5988,13.5603,13.5488,13.5295,13.3603,13.2987,13.2872,13.1987,13.091,12.991,12.941,12.8409,12.7294,12.6794,12.6678,12.6678,12.6678,12.6678,12.6678,12.6678,12.6678,12.6678,12.6678,12.6678,12.6678,12.6678,12.6678,12.6678,12.6678,12.7178,12.8023,12.9285,13.0418,13.1484,13.2187,13.3203,13.3789,13.3789,13.3789,13.3711,13.3281,13.2812,13.2187,13.1484,13.0586,12.9883,12.9609,12.8711,12.8281,12.8281,12.7304,12.6797,12.6797,12.6211,12.5781,12.5508,12.5781,12.539,9.0219,0.0,0.0,9.7904,10.2597,10.6905,10.9098,11.0521,11.2099,11.4791,11.6484,11.81,11.9985,12.1908,12.3985,12.6294,12.8102,12.9487,13.041,13.0294,12.9987,12.9487,12.9987,13.091,13.241,13.4911,13.6411,13.6411,13.668,13.6796,13.6796,13.6796,13.6796,13.6796,13.6796,13.6796,13.6796,13.6796,13.6796,13.6796,13.6796,13.6796,13.6796,13.6796,13.6796,13.6796,13.6103,13.5911,13.5911,13.5911,13.5911,13.5911,13.6296,13.6103,13.5411,13.4988,13.4795,13.4603,13.3103,13.2603,13.2487,13.191,13.1179,13.0294,12.9487,12.8602,12.7794,12.7217,12.6986,12.6986,12.6986,12.6986,12.6986,12.6794,12.6678,12.6678,12.6678,12.6678,12.6678,12.6678,12.6678,12.6678,12.6678,12.7178,12.7908,12.8779,13.0184,13.1289,13.1484,13.289,13.3789,13.3789,13.3789,13.3789,13.3789,13.3398,13.3086,13.289,13.2304,13.1797,13.1601,13.0703,13.0117,12.9883,12.8711,12.789,12.7695,12.6992,12.6601,12.6406,12.6601,12.6601,0.0,0.0,9.8557,10.3597,10.8713,11.3291,11.6715,11.7523,11.7792,11.8715,11.96,12.0216,12.0292,12.2408,12.4601,12.6409,12.8102,12.9487,13.041,12.9794,12.8602,12.6986,12.6794,12.7178,0.0,13.2603,13.5488,13.5488,13.6296,13.6796,13.6796,13.6796,13.6796,13.6796,13.6796,13.6796,13.6796,13.6796,13.6796,13.6796,13.6796,13.6796,13.6796,13.6796,13.6796,13.6796,13.6796,13.6796,13.6796,13.6796,13.6796,13.668,13.5911,13.5488,13.5295,13.368,13.3103,13.291,13.2102,13.1679,13.1679,13.1679,13.1179,13.0294,12.9487,12.8602,12.7909,12.7909,12.7909,12.7909,12.7909,12.7909,12.7717,12.6909,12.6678,12.6678,12.6678,12.6678,12.6678,12.6678,12.6678,12.6678,12.6678,12.7178,12.7908,12.8779,13.0184,13.1484,13.2383,13.3203,13.3789,13.3789,13.3789,13.3789,13.3789,13.4492,13.4609,13.3789,13.3711,13.3281,13.25,13.1601,13.0781,12.9883,12.9804,12.9414,12.8593,12.8515,12.8086,12.7304,12.8086,12.8086,0.0,0.0,10.4597,10.9713,11.3599,11.6522,11.8292,11.8715,11.8715,11.8985,11.7484,11.6484,11.76,11.7984,11.96,12.3485,12.6101,12.8179,13.0217,13.0217,12.8794,12.5409,12.6486,0.0,0.0,0.0,0.0,13.4487,13.4988,13.5603,13.668,13.6796,13.6796,13.6796,13.6796,13.6796,13.6796,13.6796,13.6796,13.6796,13.6796,13.6796,13.6796,13.6796,13.6796,13.6796,13.618,13.5911,13.5911,13.5911,13.5911,13.5911,13.5603,13.5218,13.4603,13.341,13.2603,13.2102,13.1795,13.1679,13.1679,13.1679,13.1487,13.1102,13.0294,12.991,12.9487,12.8909,12.8294,12.7909,12.7909,12.7486,12.6986,12.6794,12.6678,12.6678,12.6678,12.6678,12.6678,12.6678,12.6678,12.6678,12.6678,12.6986,12.7787,12.9518,13.112,13.229,13.29,13.3518,13.3711,13.3398,13.3593,13.3789,13.3789,13.3984,13.4101,13.3789,13.3789,13.3711,13.3398,13.25,13.1914,13.1601,13.1093,13.0312,12.9492,12.9492,12.8984,12.8203,12.8515,12.8398,10.2212,10.6521,11.0291,11.5099,11.7984,11.9715,11.9908,11.9792,11.9408,11.8792,11.5715,11.3291,11.4099,11.2791,11.3714,12.01,12.2716,12.5409,12.9487,12.9294,12.7486,12.4486,12.4716,12.4793,0.0,0.0,0.0,13.2987,13.391,13.4911,13.6296,13.6603,13.6796,13.6796,13.6796,13.6796,13.6796,13.6796,13.6796,13.6796,13.6796,13.6796,13.6796,13.6796,13.6796,13.6796,13.618,13.5988,13.5988,13.5988,13.5988,13.5911,13.5295,13.4795,13.4218,13.2987,13.241,13.2102,13.1795,13.1679,13.1679,13.1679,13.1679,13.1487,13.0718,13.0487,13.041,12.9794,12.9294,12.8794,12.8794,12.8217,12.7486,12.7217,12.7101,12.7101,12.7101,12.7409,12.7486,12.7217,12.7101,12.7101,12.7101,12.7871,12.9027,13.0412,13.1785,13.2706,13.2992,13.3484,13.3609,13.3202,13.3593,13.3906,13.4218,13.4492,13.4687,13.4687,13.4687,13.4609,13.4218,13.3398,13.2812,13.25,13.1914,13.1211,13.039,13.039,12.9883,12.9101,12.9101,12.8906,10.7482,11.1791,11.5407,11.9485,12.1716,12.2716,12.1793,12.0908,11.9715,11.7907,11.4022,11.0598,0.0,0.0,10.7713,11.6022,11.8484,12.1716,12.8294,12.7217,12.5293,0.0,0.0,0.0,0.0,0.0,0.0,13.1102,0.0,13.4487,13.5488,13.6296,13.6796,13.6796,13.6796,13.6796,13.6796,13.6796,13.6796,13.6796,13.6796,13.6796,13.6796,13.6796,13.6796,13.6796,13.6796,13.6796,13.6796,13.6796,13.6796,13.6603,13.4988,13.4295,13.4103,13.241,13.2295,13.2795,13.1987,13.1679,13.1795,13.1679,13.1679,13.1602,13.0794,13.0602,13.0602,13.0487,13.0487,13.041,13.041,12.9794,12.8909,12.8102,12.7909,12.8025,12.8025,12.8602,12.8986,12.8102,12.8025,12.8025,12.8025,12.969,13.1112,13.1406,13.2177,13.2734,13.2717,13.3299,13.3612,13.3288,13.3592,13.4101,13.5,13.5781,13.6289,13.6289,13.6289,13.5898,13.5,13.4218,13.3398,13.2617,13.2617,13.2109,13.1289,13.1289,13.0781,13.0,13.0,12.9492,11.3714,11.76,12.0408,12.3408,12.3485,12.2716,12.1793,11.9985,11.7407,11.3791,10.7713,10.2481,0.0,0.0,0.0,11.1098,11.8215,0.0,12.8602,12.9217,0.0,0.0,0.0,12.4678,12.3909,12.4409,0.0,0.0,13.091,13.2603,13.5411,13.6296,13.6796,13.6796,13.6796,13.6796,13.6796,13.6796,13.6796,13.6796,13.6796,13.6796,13.6796,13.6796,13.6796,13.6796,13.6796,13.6796,13.6796,13.6796,13.6796,13.668,13.5603,13.4795,13.4218,13.3103,13.241,13.1987,13.1795,13.2102,13.2603,13.191,13.1679,13.1679,13.1487,13.141,13.1295,13.0679,12.9987,12.941,12.8717,12.8409,12.8217,12.8025,12.8409,12.8909,12.8909,12.8986,12.9102,12.8909,12.8909,12.8909,12.8909,13.0113,13.0904,13.0798,13.1925,13.2714,13.2695,13.3081,13.3591,13.4116,13.3878,13.4414,13.5781,13.5586,13.5586,13.6289,13.5703,13.5195,13.5,13.4218,13.3711,13.3515,13.3515,13.3008,13.2187,13.2187,13.1718,13.0898,13.0898,13.0703,11.9485,12.2716,12.4601,12.5678,12.4716,12.2408,11.86,11.5715,11.2099,10.5597,9.9365,0.0,0.0,0.0,0.0,0.0,0.0,0.0,12.8409,12.9294,12.8794,0.0,12.6909,0.0,12.5794,12.6217,12.7602,0.0,13.0794,13.2179,13.4795,13.6103,13.6796,13.6796,13.6796,13.6796,13.6796,13.6796,13.6796,13.6796,13.6796,13.6796,13.6796,13.6796,13.6796,13.6796,0.0,13.6796,13.6796,13.6796,13.6796,13.668,13.5795,13.5218,13.4718,13.391,13.3295,13.2795,13.241,13.2603,13.2872,13.1987,13.1679,13.1679,13.1679,13.1679,13.1602,13.1179,13.0679,13.0217,12.9717,12.9294,12.8986,12.8986,12.941,12.9794,12.9794,12.9987,13.0217,12.9794,12.9794,12.9794,12.9794,13.0602,13.1179,13.1102,13.1679,13.2295,13.2538,13.2914,13.3288,13.3726,13.4086,13.4804,13.6015,13.6093,13.6289,13.6797,13.6093,13.539,13.5,13.4218,13.3789,13.3789,13.3789,13.3593,13.3086,13.3086,13.2617,13.1797,13.1797,13.1601,12.4601,12.6986,12.7909,12.7178,12.5486,12.1985,11.4407,11.0291,10.5405,9.6095,0.0,8.744,8.6709,8.8402,9.348,10.4405,0.0,11.96,12.7986,12.8525,12.8409,12.9294,12.7986,12.7294,12.8025,12.8102,12.9102,13.1487,13.1795,13.2603,13.4411,13.5911,13.6796,13.6796,13.6796,13.6796,13.6796,13.6796,13.6796,13.6796,13.6796,13.6796,13.6796,13.6796,13.6796,13.6796,13.6796,13.6796,13.6796,13.6796,13.6796,13.668,13.5988,13.5603,13.5411,13.4718,13.4411,13.4218,13.341,13.3103,13.2872,13.1987,13.1679,13.1679,13.1679,13.1679,13.1679,13.1602,13.1487,13.1487,13.141,13.091,13.0487,13.0487,13.0602,13.0679,13.0679,13.1179,13.1487,13.0794,13.0679,13.0679,13.0679,13.1179,13.1679,13.1679,13.1679,13.1795,13.2179,13.2691,13.3098,13.301,13.4116,13.5213,13.6093,13.6992,13.7617,13.7812,13.6992,13.6093,13.5195,13.4414,13.3906,13.3789,13.3789,13.3789,13.3789,13.3789,13.3398,13.2695,13.2695,13.2304,12.7717,12.8794,12.8909,12.8794,12.5909,12.1293,11.4291,10.8021,0.0,0.0,8.5863,8.2362,8.2208,8.644,9.3287,10.3597,0.0,0.0,0.0,0.0,12.9294,0.0,0.0,0.0,0.0,0.0,0.0,0.0,0.0,13.3487,13.5218,13.6296,13.6796,13.6796,13.6796,13.6796,13.6796,13.6796,13.6796,13.6796,13.6796,13.6796,13.6796,13.6796,13.6796,13.6796,13.6796,0.0,13.6796,13.6796,13.6796,13.6796,13.6603,13.6103,13.5488,13.5295,13.4911,13.4295,13.4103,13.3603,13.2872,13.1987,13.1679,13.1679,13.1679,13.1679,13.1602,13.091,13.0679,13.0487,12.9794,13.0102,13.0487,13.0487,13.0987,13.1487,13.1487,13.1602,13.1679,13.1487,13.1487,13.1487,13.1487,13.1602,13.1679,13.1679,13.1679,13.1795,13.2179,13.2295,13.2989,13.4718,13.4386,13.5193,13.769,13.75,13.7617,13.8593,13.789,13.6992,13.6093,13.5195,13.4492,13.3789,13.3789,13.3789,13.3789,13.3789,13.3711,13.3593,13.3593,13.3515,12.941,13.0487,13.091,12.9487,12.5717,11.96,10.9713,0.0,0.0,0.0,7.813,7.5938,7.6361,8.167,0.0,9.6557,10.4289,11.2714,0.0,0.0,0.0,0.0,0.0,0.0,0.0,0.0,0.0,0.0,0.0,13.4218,13.5411,13.6296,13.6796,13.6796,13.6796,13.6796,13.6796,13.6796,13.6796,13.6796,13.6796,13.6796,13.6796,13.6796,13.6796,13.6796,13.6796,0.0,13.6796,13.6296,13.6411,13.6796,13.6296,13.6103,13.618,13.618,13.5603,13.4911,13.4911,13.4103,13.291,13.2487,13.2102,13.1679,13.1679,13.1679,13.1602,13.1179,13.1102,13.0987,13.0602,13.0794,13.1102,13.1102,13.141,13.1679,13.1679,13.1679,13.1679,13.1679,13.1679,13.1679,13.1679,13.1679,13.1679,13.1679,13.1679,13.1795,13.1872,13.1864,13.2598,13.4192,13.4603,13.5397,13.7323,13.7689,13.789,13.8203,13.7812,13.7187,13.6289,13.5898,13.5508,13.5117,13.4687,13.4414,13.4414,13.3984,13.3789,13.3789,13.3789,13.3789,13.0679,13.1987,13.241,13.0102,12.5216,11.7792,10.5213,9.6673,0.0,0.0,7.1591,7.0667,7.1745,7.6707,8.2901,0.0,9.6172,10.452,11.6792,11.9715,0.0,0.0,0.0,0.0,0.0,0.0,0.0,0.0,0.0,0.0,13.5719,13.6411,13.6796,13.6796,13.6796,13.6796,13.6796,13.6796,13.6796,13.6796,13.6796,13.6796,13.6796,13.6796,13.6796,13.6796,13.6796,0.0,13.668,13.5911,13.5988,13.668,13.5795,13.5988,13.6796,13.6796,13.6411,13.5795,13.5795,13.468,13.3295,13.3295,13.2603,13.1679,13.1679,13.1679,13.1679,13.1679,13.1679,13.1679,13.1679,13.1679,13.1679,13.1679,13.1679,13.1679,13.1679,13.1679,13.1679,13.1679,13.1679,13.1679,13.1679,13.1679,13.1679,13.1679,13.1679,13.1679,13.1679,13.191,13.241,13.3603,13.4603,13.5603,13.6809,13.7806,13.8312,13.789,13.789,13.75,13.6601,13.6601,13.6484,13.6289,13.5586,13.5312,13.5312,13.4609,13.4297,13.4297,13.4101,13.4101,13.2102,13.2872,13.2603,13.0794,12.4793,11.6215,10.4212,0.0,0.0,7.3437,6.9821,6.9129,7.0706,7.3437,7.8631,8.844,0.0,10.1404,11.4907,11.9485,12.3793,12.991,0.0,0.0,0.0,0.0,0.0,0.0,0.0,0.0,13.6603,13.6796,13.6796,13.6796,13.6796,13.6796,13.6796,13.6796,13.6796,13.6796,13.6796,13.6796,13.6796,13.6796,13.6796,13.6796,13.6796,0.0,0.0,13.5911,13.5988,13.668,13.5795,13.5988,13.6796,13.6796,13.668,13.668,13.668,13.5603,13.4218,13.4218,13.3103,13.1679,13.1679,13.1679,13.1679,13.1679,13.1679,13.1679,13.1679,13.1679,13.1679,13.1679,13.1679,13.1679,13.1679,13.1679,13.1679,13.1679,13.1679,13.1679,13.1679,13.1679,13.1679,13.1679,13.1679,13.1679,13.1679,13.241,13.3295,13.4616,13.4808,13.5616,13.7502,13.8091,13.8513,13.8786,13.8789,13.8398,13.75,13.75,13.7109,13.6289,13.6211,13.6211,13.6211,13.6093,13.6093,13.6093,13.5312,13.4883,13.1102,13.2987,13.3103,13.041,12.3985,11.5291,10.3905,0.0,8.3054,7.2976,6.8744,6.7244,6.8398,6.986,7.3245,8.04,8.2978,8.8979,10.3097,10.7598,11.3291,12.3909,0.0,0.0,0.0,0.0,0.0,0.0,0.0,0.0,13.668,13.6796,13.6796,13.6796,13.6296,13.5988,13.5988,13.5488,13.5488,13.5988,13.5488,13.5488,13.5988,13.5488,13.5295,13.5295,13.5295,0.0,0.0,13.5103,13.5603,13.668,13.5795,13.5719,13.5988,13.5988,13.5719,13.5411,13.5795,13.4911,13.3603,13.4103,13.3103,13.1679,13.1679,13.1679,13.1679,13.1679,13.1679,13.1679,13.1679,13.1679,13.1679,13.1679,13.1679,13.1679,13.1679,13.1679,13.1679,13.1679,13.1679,13.1679,13.1679,13.1679,13.1679,13.1679,13.1679,13.1795,13.1987,13.2807,13.3731,13.468,13.5309,13.6309,13.8002,13.831,13.8492,13.8903,13.8906,13.8711,13.8398,13.8398,13.8203,13.789,13.7304,13.7109,13.7109,13.6601,13.6015,13.5508,13.5195,13.4687,12.959,13.1978,13.1965,12.9391,12.2307,11.3088,10.2615,9.1834,8.1593,7.2745,6.8436,6.6436,6.7013,6.759,6.9436,7.3783,7.5976,8.1631,9.4557,9.9211,10.5597,11.7215,0.0,0.0,0.0,0.0,0.0,0.0,0.0,0.0,13.668,13.6603,13.6488,13.6796,13.5719,13.5295,13.5488,13.4718,13.4603,13.5103,13.4603,13.4603,13.5103,13.4603,13.4295,13.4295,13.4295,13.4795,0.0,13.4603,13.5295,13.668,13.5603,13.5295,13.5488,13.5218,13.4795,13.4411,13.4911,13.418,13.3103,13.368,13.291,13.1679,13.1679,13.1679,13.1679,13.1679,13.1679,13.1679,13.1679,13.1679,13.1679,13.1679,13.1679,13.1679,13.1679,13.1679,13.1679,13.1679,13.1679,13.1679,13.1679,13.1679,13.1679,13.1679,13.1795,13.1987,13.2538,13.3415,13.4394,13.5398,13.6309,13.7194,13.8114,13.8415,13.8805,13.9295,13.8984,13.8984,13.9297,13.8984,13.8906,13.8906,13.8281,13.8007,13.8007,13.7382,13.6797,13.6093,13.5586,13.4804,12.79,12.9688,12.8657,12.8013,11.952,10.8872,9.9568,8.9608,8.0131,7.2476,6.8859,6.709,6.709,6.709,6.7975,7.0514,7.5899,8.3016,9.2402,9.8096,10.3905,0.0,0.0,0.0,0.0,0.0,0.0,0.0,0.0,0.0,13.668,13.5988,13.5911,13.6796,13.5218,13.4718,13.5488,13.4718,13.4295,13.4295,13.4295,13.4295,13.4295,13.4295,13.4295,13.4295,13.4295,13.4795,0.0,13.4603,13.5295,13.6603,13.4988,13.4795,13.5411,13.4603,13.4295,13.4295,13.4295,13.368,13.2987,13.2987,13.241,13.1679,13.1679,13.1679,13.1679,13.1679,13.1679,13.1679,13.1679,13.1679,13.1679,13.1679,13.1679,13.1679,13.1679,13.1679,13.1679,13.1679,13.1679,13.1679,13.1679,13.1679,13.1679,13.1679,13.1987,13.2538,13.3384,13.4497,13.5705,13.6907,13.7901,13.8185,13.779,13.8509,13.9296,14.0117,13.9414,13.9297,14.0195,13.9414,13.8906,13.8906,13.8906,13.8906,13.8906,13.8906,13.8906,13.8789,13.7109,13.539,11.5208,11.8075,11.8739,11.4996,10.9213,10.2495,9.4903,8.711,7.9631,7.3129,6.9744,6.7821,6.7205,6.709,6.9436,7.6707,7.9477,8.3747,9.2479,0.0,0.0,10.8406,0.0,0.0,0.0,0.0,0.0,0.0,0.0,0.0,13.5911,13.5103,13.5103,13.5911,13.4295,13.3487,13.3795,13.291,13.2795,13.341,13.2795,13.2795,13.341,13.2795,13.2487,13.2487,13.2487,13.3295,13.4603,13.3795,13.4411,13.5795,13.4718,13.4103,13.3795,13.3487,13.2987,13.2603,13.318,13.2795,13.2179,13.2795,13.241,13.1679,13.1679,13.1679,13.1679,13.1679,13.1679,13.1679,13.1679,13.1679,13.1679,13.1679,13.1679,13.191,13.2487,13.2102,13.191,13.2487,13.2102,13.1679,13.1679,13.1679,13.1679,13.1679,13.2538,13.3291,13.3831,13.5394,13.6723,13.7116,13.8093,13.8723,13.8587,13.9288,13.9882,14.0195,13.9882,13.9882,14.0195,13.9414,13.8906,13.8906,13.8906,13.8906,13.8906,13.8906,13.8281,13.7109,13.5898,13.4804,10.6713,10.9964,11.0576,10.7886,10.2988,9.7235,9.1106,8.4733,7.8592,7.3283,7.0437,6.8629,6.7744,6.7445,6.927,7.5332,7.8007,8.1815,0.0,0.0,0.0,0.0,0.0,0.0,0.0,0.0,0.0,0.0,0.0,0.0,13.4988,13.4295,13.3987,13.4487,13.318,13.2679,13.2987,13.2102,13.1987,13.2487,13.1987,13.1987,13.2487,13.191,13.191,13.2179,13.1795,13.2679,0.0,13.341,13.3795,13.4988,13.4103,13.3487,13.2987,13.2603,13.2179,13.1795,13.2295,13.2179,13.1795,13.2295,13.2102,13.1679,13.1679,13.1679,13.1795,13.2102,13.2179,13.2179,13.2179,13.2179,13.2102,13.1795,13.1679,13.1795,13.241,13.2295,13.2295,13.2487,13.2295,13.2102,13.1795,13.1679,13.1795,13.2102,13.3,13.4014,13.4873,13.6322,13.7407,13.7679,13.8501,13.9005,13.9407,13.992,14.0312,14.0703,14.0703,14.0781,14.1211,14.0312,13.9687,13.9414,13.9414,13.9218,13.8906,13.8906,13.8007,13.6289,13.5703,13.4883,0.0,10.4011,10.3625,10.4425,9.9161,9.2556,8.7725,8.23,0.0,7.2976,7.0821,6.9475,6.8744,6.805,6.8005,6.919,7.3674,0.0,0.0,0.0,0.0,0.0,0.0,0.0,0.0,0.0,0.0,0.0,0.0,0.0,13.4218,13.341,13.2987,13.291,13.2102,13.2102,13.2872,13.2102,13.1679,13.1679,13.1679,13.1679,13.1679,13.1679,13.2102,0.0,13.2102,13.2679,13.4103,13.3295,13.341,13.4103,13.318,13.291,13.2795,13.1987,13.1679,13.1679,13.1679,13.1679,13.1679,13.1679,13.1679,13.1679,13.1679,13.1679,13.191,13.2679,13.291,13.291,13.2987,13.2987,13.2679,13.1987,13.1679,13.1679,13.1795,13.241,13.2795,13.1987,13.2487,13.2795,13.1987,13.191,13.2179,13.2987,13.3692,13.4786,13.6417,13.7182,13.8007,13.8789,13.8906,13.9281,14.0077,14.0284,14.0703,14.1484,14.1601,14.1992,14.2812,14.1992,14.1093,14.0195,14.0117,13.9687,13.8906,13.8906,13.8007,13.6289,13.6289,13.539,8.4939,0.0,9.0069,8.8346,8.612,8.3512,0.0,7.8077,7.5553,0.0,0.0,6.9821,7.0244,6.8816,7.0107,7.7801,8.0876,0.0,0.0,0.0,0.0,0.0,0.0,0.0,0.0,0.0,0.0,0.0,0.0,13.3103,13.3295,13.3103,13.2679,13.1987,13.1795,13.1795,13.1987,13.1795,13.1679,13.1679,13.1679,13.1679,13.1679,13.1679,13.1795,13.1987,13.1795,13.2295,13.318,13.241,13.2487,13.318,13.2295,13.1987,13.1987,13.1795,13.1679,13.1679,13.1679,13.1679,13.1679,13.1679,13.1679,13.1679,13.1679,13.1679,13.1679,13.191,13.1987,13.2179,13.2795,13.2487,13.2102,13.2603,13.2179,13.191,13.2603,13.2872,13.3103,13.3603,13.391,13.391,13.3718,13.3718,13.3795,13.3987,13.5116,13.6099,13.6495,13.7806,13.8711,13.8906,13.8906,13.9288,14.0099,14.0804,14.1601,14.2382,14.25,14.2617,14.2812,14.1992,14.1093,14.0195,13.9492,13.9101,13.8906,13.8906,13.8007,13.6289,13.6289,13.539,7.7823,8.1131,8.4132,8.3131,8.1977,8.0516,7.8361,0.0,0.0,0.0,0.0,0.0,6.9667,0.0,0.0,0.0,0.0,0.0,0.0,0.0,0.0,0.0,0.0,0.0,0.0,0.0,0.0,0.0,0.0,13.241,13.241,13.241,13.2179,13.1679,13.1679,13.1679,13.1679,13.1679,13.1679,13.1679,13.1679,13.1679,13.1679,13.1679,13.191,0.0,13.191,13.2179,13.291,13.2102,13.1987,13.241,13.191,13.1679,13.1679,13.1679,13.1679,13.1679,13.1679,13.1679,13.1679,13.1679,13.1679,13.1679,13.1679,13.1679,13.1795,13.2179,13.2295,13.2487,13.341,13.318,13.291,13.2987,13.2603,13.2295,13.241,13.2987,13.3603,13.368,13.4295,13.4718,13.4411,13.4295,13.4411,13.4795,13.5809,13.6717,13.709,13.8197,13.8906,13.8906,13.9297,13.9804,14.0703,14.1601,14.2304,14.2812,14.3086,14.3398,14.3398,14.25,14.1484,14.0195,13.9297,13.8906,13.8906,13.8906,13.8007,13.6289,13.6289,13.539,7.6053,7.9169,8.217,8.2259,8.142,8.0037,7.8039,0.0,0.0,0.0,0.0,0.0,0.0,0.0,0.0,0.0,0.0,0.0,0.0,0.0,0.0,0.0,0.0,0.0,0.0,0.0,0.0,0.0,0.0,13.1679,13.1679,13.1679,13.1679,13.1679,13.1679,13.1679,13.1679,13.1679,13.1679,13.1679,13.1679,13.1679,13.1679,13.1679,13.2102,13.2795,0.0,0.0,13.2679,13.1987,13.1679,13.1679,13.1679,13.1679,13.1679,13.1679,13.1679,13.1679,13.1679,13.1679,13.1679,13.1679,13.1679,13.1679,13.1679,13.1679,13.191,13.2603,13.2795,13.2987,13.391,13.4103,13.391,13.3295,13.3103,13.2795,13.2179,13.3295,13.4103,13.3487,13.4603,13.5488,13.4795,13.4718,13.4911,13.5603,13.6309,13.698,13.7683,13.8381,13.8906,13.8906,13.9687,14.0586,14.1406,14.2304,14.289,14.3007,14.3593,14.3906,14.3789,14.289,14.1718,14.0195,13.9297,13.8906,13.8906,13.8789,13.789,13.6289,13.6211,13.5312,7.7323,7.9669,8.0498,7.7214,7.7335,7.7411,7.4243,0.0,0.0,0.0,0.0,0.0,0.0,0.0,0.0,0.0,0.0,0.0,0.0,0.0,0.0,0.0,0.0,0.0,0.0,0.0,0.0,0.0,0.0,13.1679,13.1679,13.1679,13.1679,13.1679,13.1679,13.1679,13.1679,13.1679,13.1679,13.1679,13.1679,13.1679,13.1679,13.1679,13.1795,13.191,0.0,13.1795,13.191,13.1795,13.1679,13.1679,13.1679,13.1679,13.1679,13.1679,13.1679,13.1679,13.1679,13.1679,13.1679,13.1679,13.1679,13.1679,13.1679,13.1679,13.1679,13.191,13.191,13.2102,13.2987,13.318,13.341,13.3987,13.3487,13.318,13.3795,13.4103,13.4487,13.4988,13.5911,13.6603,13.6411,13.6411,13.6488,13.6603,13.718,13.7675,13.78,13.8381,13.8906,13.8906,13.9687,14.0586,14.1406,14.2304,14.3086,14.3789,14.3906,14.3711,14.3007,14.1406,14.0507,14.0195,13.9297,13.8906,13.8906,13.8203,13.7304,13.6289,13.5508,13.4687,7.4822,7.7015,7.8846,7.8061,7.9738,8.0911,0.0,0.0,0.0,0.0,0.0,0.0,0.0,0.0,0.0,0.0,0.0,0.0,0.0,0.0,0.0,0.0,0.0,0.0,0.0,0.0,0.0,0.0,0.0,0.0,13.1679,13.1679,13.1679,13.1679,13.1679,13.1679,13.1679,13.1679,13.1679,13.1679,13.1679,13.1679,13.1679,13.1679,13.1679,13.1679,0.0,13.1679,13.1679,13.1679,13.1679,13.1679,13.1679,13.1679,13.1679,13.1679,13.1679,13.1679,13.1679,13.1679,13.1679,13.1679,13.1679,13.1679,13.1679,13.1679,13.1679,13.1679,13.1679,13.191,13.2795,13.3295,13.3795,13.4218,13.4295,13.4295,13.4295,13.4603,13.5103,13.5411,13.5795,13.618,13.668,13.6411,13.6296,13.668,13.7373,13.7791,13.78,13.8381,13.8906,13.8906,14.0117,14.1093,14.1484,14.2695,14.3593,14.3984,14.3593,14.3007,14.2109,14.0898,14.0,13.9492,13.9101,13.8906,13.8906,13.8007,13.7187,13.6289,13.539,13.4609,7.3937,7.5745,7.8146,8.0423,0.0,8.3922,0.0,0.0,0.0,0.0,0.0,0.0,0.0,0.0,0.0,0.0,0.0,0.0,0.0,0.0,0.0,0.0,0.0,0.0,0.0,0.0,0.0,0.0,0.0,0.0,13.1679,13.1679,13.1679,13.1679,13.1679,13.1602,13.141,13.141,13.1487,13.1679,13.1679,13.1679,13.1679,13.1679,13.1679,13.1679,13.1679,13.1679,13.1679,13.1679,13.1679,13.1679,13.1679,13.1679,13.1679,13.1679,13.1679,13.1679,13.1679,13.1679,13.1679,13.1679,13.1679,13.1679,13.1679,13.1679,13.1679,13.1679,13.1679,13.191,13.2487,13.3295,13.3987,13.4295,13.4795,13.5218,13.4911,13.5218,13.5603,13.5795,13.5795,13.5988,13.668,13.618,13.5988,13.668,13.7373,13.7791,13.78,13.8381,13.8906,13.8906,14.0312,14.1289,14.1484,14.2695,14.3398,14.3398,14.2812,14.2187,14.1484,14.0507,13.9609,13.8906,13.8906,13.8906,13.8906,13.8007,13.7187,13.6289,13.539,13.4609,7.84,7.8823,7.9208,8.2522,0.0,0.0,0.0,0.0,0.0,0.0,0.0,0.0,0.0,0.0,0.0,0.0,0.0,0.0,0.0,0.0,0.0,0.0,0.0,0.0,0.0,0.0,0.0,0.0,0.0,0.0,13.1679,13.1679,13.1679,13.1679,13.1679,13.1295,13.0602,13.0602,13.0987,13.1679,13.1679,13.1679,13.1679,13.1679,13.1679,13.1679,13.1679,13.1679,13.1679,13.1679,13.1679,13.1679,13.1679,13.1679,13.1679,13.1679,13.1679,13.1679,13.1679,13.1679,13.1679,13.1679,13.1679,13.1679,13.1679,13.1679,13.1679,13.1679,13.1679,13.1679,13.1795,13.241,13.3295,13.4103,13.4295,13.4795,13.6296,13.5988,13.5719,13.6488,13.668,13.668,13.6796,13.668,13.668,13.6796,13.7373,13.7791,13.78,13.8381,13.8906,13.8906,13.9687,14.0586,14.1406,14.1601,14.1718,14.1718,14.1601,14.1601,14.1484,13.9882,13.8984,13.8906,13.8906,13.8906,13.8906,13.8007,13.7187,13.6289,13.539,13.4609,7.4861,7.6746,7.9438,8.3401,0.0,0.0,0.0,0.0,0.0,0.0,0.0,0.0,0.0,0.0,0.0,0.0,0.0,0.0,0.0,0.0,0.0,0.0,0.0,0.0,0.0,0.0,0.0,0.0,13.0487,13.0102,13.0102,13.0102,13.0102,13.0102,13.0102,12.9987,12.9717,12.9717,12.9794,13.0102,13.0102,13.041,13.0987,13.0987,13.0987,13.0987,13.1487,13.1679,13.1679,13.1679,13.1679,13.1679,13.1679,13.1679,13.1679,13.1679,13.1679,13.1679,13.1679,13.1679,13.1679,13.1679,13.1679,13.1679,13.1679,13.1679,13.1679,13.1679,13.1679,13.1679,13.1679,13.2295,13.318,13.4103,13.4718,13.5411,13.6488,13.6488,13.6411,13.668,13.6411,13.618,13.668,13.6411,13.618,13.668,13.7373,13.7791,13.78,13.8381,13.8906,13.8906,13.9687,14.0586,14.1406,14.1484,14.1484,14.1484,14.1015,14.0703,14.0703,13.9492,13.8906,13.8906,13.8906,13.8906,13.8906,13.75,13.6601,13.6289,13.4883,13.4101,7.364,7.5387,0.0,0.0,0.0,0.0,0.0,0.0,0.0,0.0,0.0,0.0,0.0,0.0,0.0,0.0,0.0,0.0,0.0,0.0,0.0,0.0,0.0,0.0,0.0,0.0,0.0,13.0102,12.9487,12.9217,12.9217,12.9217,12.9217,12.9217,12.9217,12.9102,12.8794,12.8794,12.8794,12.8794,12.8486,12.8986,13.0102,13.0102,13.0217,13.0487,13.0794,13.1179,13.1679,13.141,13.1487,13.1679,13.1679,13.1679,13.1679,13.1679,13.1679,13.1679,13.1679,13.1679,13.1679,13.1679,13.1679,13.1679,13.1679,13.1679,13.1679,13.1679,13.1679,13.1679,13.1679,13.2102,13.2795,13.368,13.4295,13.4988,13.6103,13.6411,13.6488,13.668,13.6296,13.6103,13.668,13.6296,13.6103,13.668,13.7373,13.7791,13.78,13.8381,13.8906,13.8906,13.9414,14.0,14.0586,14.0703,14.0703,14.0703,14.0117,13.9882,14.0195,13.9414,13.8906,13.8906,13.8593,13.8515,13.8515,13.6992,13.6211,13.5898,13.4687,13.3984,7.624,0.0,0.0,0.0,0.0,0.0,0.0,0.0,0.0,0.0,0.0,0.0,0.0,0.0,0.0,0.0,0.0,0.0,0.0,0.0,0.0,0.0,0.0,0.0,0.0,12.9987,13.0102,12.9294,12.9217,12.9217,12.9217,12.9217,12.9217,12.9217,12.9217,12.8794,12.7909,12.7909,12.7909,12.7909,12.7101,12.7602,12.9217,12.9217,12.9717,13.041,12.9602,13.0102,13.1602,13.0794,13.0987,13.1679,13.1679,13.1679,13.1679,13.1679,13.1679,13.1679,13.1679,13.1679,13.1679,13.1679,13.1679,13.1679,13.1679,13.1679,13.1679,13.1679,13.1679,13.1679,13.1679,13.1679,13.191,13.2795,13.2987,13.3487,13.5103,13.5488,13.5795,13.6603,13.6796,13.6796,13.6796,13.6796,13.6796,13.6796,13.7373,13.7791,13.779,13.8392,13.8906,13.8906,13.8906,13.8906,13.8906,13.8906,13.8906,13.8906,13.8906,13.9297,14.0195,13.9414,13.8906,13.8906,13.8007,13.7617,13.7617,13.6718,13.5781,13.5,13.5,13.4609,7.3332,0.0,0.0,0.0,0.0,0.0,0.0,0.0,0.0,0.0,0.0,0.0,0.0,0.0,0.0,0.0,0.0,0.0,0.0,0.0,12.8102,12.8717,12.9294,12.9717,13.0102,12.9217,12.8602,12.8294,12.7794,12.7409,12.7409,12.7409,12.7409,12.7409,12.7409,12.7294,12.7101,12.7101,12.7101,12.7101,12.6794,12.7294,12.8294,12.8294,12.8409,12.8717,12.8986,12.9487,12.9987,13.0294,13.0987,13.1679,13.1679,13.1679,13.1679,13.1679,13.1679,13.1679,13.1679,13.1679,13.1679,13.1679,13.1679,13.1679,13.1679,13.1679,13.1679,13.1679,13.1679,13.1679,13.1679,13.2179,13.2679,13.291,13.3487,13.4218,13.5295,13.5988,13.6488,13.668,13.6796,13.6796,13.6796,13.6796,13.6796,13.6796,13.7373,13.8022,13.8487,13.878,13.8906,13.8906,13.8906,13.8906,13.8906,13.8906,13.8906,13.8906,13.8906,13.8984,13.9297,13.8398,13.8007,13.8007,13.7109,13.6718,13.6718,13.5781,13.5312,13.5,13.4414,13.3984,0.0,0.0,0.0,0.0,0.0,0.0,0.0,0.0,0.0,0.0,0.0,0.0,0.0,0.0,0.0,0.0,0.0,0.0,0.0,12.7717,12.8486,12.8717,12.8986,12.9294,12.941,12.8486,12.7794,12.7409,12.7294,12.7217,12.7217,12.7217,12.7217,12.7217,12.6909,12.6678,12.6678,12.6678,12.6678,12.6678,12.6678,12.6986,12.7409,12.7409,12.7602,12.7909,12.8794,12.8986,12.8794,12.9987,13.0794,13.1295,13.1602,13.1679,13.1679,13.1679,13.1679,13.1679,13.1679,13.1679,13.1679,13.1679,13.1679,13.1679,13.1679,13.1679,13.1795,13.2102,13.2179,13.2295,13.2603,13.3103,13.341,13.3103,13.368,13.4487,13.5295,13.5911,13.6411,13.668,13.6796,13.6796,13.6796,13.6796,13.6796,13.6796,13.7397,13.8106,13.8816,13.8906,13.8906,13.8906,13.8906,13.8906,13.8906,13.8906,13.8906,13.8906,13.8906,13.8711,13.8398,13.789,13.7617,13.7617,13.6406,13.5781,13.5781,13.4883,13.4492,13.4492,13.3984,13.3789,0.0,0.0,0.0,0.0,0.0,0.0,0.0,0.0,0.0,0.0,0.0,0.0,0.0,0.0,0.0,0.0,0.0,0.0,0.0,12.8217,12.8909,12.8217,12.8717,12.8794,12.8102,12.7909,12.7602,12.6909,12.7602,12.8025,12.8025,12.8025,12.8025,12.7909,12.7217,12.6794,12.6678,12.6678,12.6678,12.6678,12.6678,12.6678,12.6678,12.6678,12.7101,12.7909,12.8794,12.8794,12.8294,12.9794,13.0487,13.0679,13.141,13.1679,13.1679,13.1679,13.1679,13.1679,13.1679,13.1679,13.1679,13.1795,13.1795,13.1795,13.191,13.191,13.2102,13.291,13.3103,13.3295,13.4103,13.4411,13.4218,13.341,13.3795,13.4603,13.5295,13.5603,13.5911,13.6603,13.6796,13.6796,13.6796,13.6796,13.6796,13.6911,13.7407,13.8102,13.8786,13.8906,13.8906,13.8906,13.8906,13.8906,13.8906,13.8906,13.8906,13.8906,13.8906,13.8515,13.7617,13.75,13.7382,13.7382,13.5703,13.4883,13.4883,13.4218,13.3789,13.3789,13.3711,13.3711,0.0,0.0,0.0,0.0,0.0,0.0,0.0,0.0,0.0,0.0,0.0,0.0,0.0,0.0,0.0,12.5888,12.7409,12.8717,12.8717,12.8986,12.941,12.991,12.8909,12.8409,12.8909,12.8294,12.7794,12.7717,12.8409,12.8909,12.8909,12.8909,12.8602,12.7909,12.7717,12.7294,12.6678,12.6678,12.6678,12.6678,12.6678,12.6678,12.6678,12.6678,12.7101,12.7909,12.8794,12.9487,12.9987,13.0294,13.091,13.1487,13.1602,13.1679,13.1679,13.1679,13.1679,13.1679,13.1679,13.1679,13.1795,13.2487,13.2679,13.2795,13.3487,13.3718,13.3795,13.3987,13.3987,13.4103,13.4295,13.4795,13.5218,13.4988,13.5103,13.5295,13.5488,13.5988,13.6603,13.6796,13.6796,13.6796,13.6796,13.6796,13.6988,13.7488,13.7717,13.8102,13.8786,13.8906,13.8906,13.8906,13.8906,13.8906,13.8906,13.8906,13.8906,13.8906,13.8906,13.8515,13.7617,13.6914,13.6289,13.5586,13.4609,13.4101,13.4101,13.3906,13.3789,13.3789,13.3086,13.2812,0.0,0.0,0.0,0.0,0.0,0.0,0.0,0.0,0.0,0.0,0.0,0.0,0.0,12.6766,12.7726,12.7321,12.8409,12.9217,12.9217,12.991,13.041,13.0487,12.9717,12.9294,12.9794,12.8986,12.8525,12.8525,12.9294,12.9794,12.9794,12.9794,12.941,12.8525,12.8102,12.7486,12.6678,12.6678,12.6678,12.6678,12.6678,12.6678,12.6678,12.7101,12.7486,12.7909,12.8794,12.9487,12.991,13.0294,13.0718,13.1179,13.1487,13.1679,13.1679,13.1679,13.1987,13.2295,13.2295,13.2295,13.2487,13.3295,13.3295,13.318,13.3987,13.4295,13.4411,13.4795,13.4911,13.4988,13.5411,13.5795,13.6103,13.6103,13.6103,13.6103,13.6103,13.6488,13.6796,13.6796,13.6796,13.6796,13.6796,13.6796,13.6988,13.7733,13.7795,13.8102,13.8786,13.8906,13.8906,13.8906,13.8906,13.8906,13.8906,13.8906,13.8906,13.8906,13.8515,13.789,13.6992,13.6093,13.5508,13.5,13.4218,13.3789,13.3789,13.3398,13.3203,13.3203,13.2304,13.1914,0.0,0.0,0.0,0.0,0.0,0.0,0.0,0.0,0.0,0.0,0.0,12.9399,12.6941,12.7475,12.8182,12.786,12.8909,12.9602,12.941,13.0718,13.1487,13.0794,13.0602,13.0487,13.0487,12.9794,12.941,12.9217,12.9987,13.041,13.0294,13.0294,12.991,12.8986,12.8294,12.7486,12.6678,12.6678,12.6678,12.6678,12.6678,12.6678,12.6678,12.7486,12.8025,12.8217,12.9217,12.9602,12.9717,13.041,13.0679,13.0794,13.141,13.1679,13.1679,13.191,13.241,13.2987,13.318,13.318,13.341,13.4218,13.3987,13.3603,13.4487,13.4718,13.4911,13.5488,13.5719,13.5911,13.6603,13.6796,13.6796,13.6796,13.6796,13.6796,13.6796,13.6796,13.6796,13.6796,13.6796,13.6796,13.6796,13.6796,13.7103,13.7733,13.791,13.8088,13.8783,13.8906,13.8906,13.8906,13.8906,13.8906,13.8906,13.8906,13.8789,13.8711,13.8007,13.7109,13.6093,13.539,13.4883,13.4804,13.4101,13.3711,13.3593,13.289,13.2383,13.2304,13.1406,13.1015,0.0,0.0,0.0,0.0,0.0,0.0,0.0,0.0,0.0,0.0,12.9416,12.864,12.7734,12.8787,12.9494,12.8117,12.9794,13.1102,13.041,13.1102,13.1679,13.1602,13.091,13.0487,13.0487,13.041,12.9987,12.9294,12.9987,13.0217,12.941,12.941,12.8986,12.8102,12.8025,12.7486,12.6678,12.6678,12.6678,12.6678,12.6678,12.6678,12.6678,12.7486,12.8294,12.9102,13.0718,13.141,13.141,13.1487,13.1487,13.1602,13.1679,13.1679,13.1795,13.2487,13.2872,13.3103,13.391,13.4103,13.4295,13.5103,13.5295,13.5295,13.618,13.6488,13.6488,13.6603,13.6603,13.668,13.6796,13.6796,13.6796,13.6796,13.6796,13.6796,13.6796,13.6796,13.6796,13.6796,13.6796,13.6796,13.6796,13.6988,13.7373,13.7733,13.8118,13.8491,13.8816,13.8906,13.8906,13.8906,13.8906,13.8906,13.8906,13.8906,13.8593,13.7812,13.7695,13.6914,13.5195,13.5117,13.4687,13.3984,13.3906,13.3398,13.2695,13.2617,13.2109,13.1406,13.0508,13.0117,8.794,0.0,0.0,0.0,0.0,0.0,13.1321,0.0,13.1006,13.1006,13.0738,13.0017,12.8596,12.9494,13.0005,12.8821,12.9987,13.0718,12.991,13.091,13.141,13.041,13.041,13.0294,12.9794,12.9794,12.9602,12.9217,12.9602,12.9602,12.9217,12.9217,12.8794,12.7909,12.7909,12.7486,12.6678,12.6678,12.6678,12.6678,12.6678,12.6678,12.6678,12.7486,12.8409,12.9294,13.0487,13.1295,13.1679,13.1679,13.1679,13.1679,13.1679,13.1679,13.1795,13.2679,13.3295,13.3795,13.4718,13.4988,13.5103,13.5988,13.5911,13.5719,13.6488,13.6796,13.6796,13.6796,13.6796,13.6796,13.6796,13.6796,13.6796,13.6796,13.6796,13.6796,13.6796,13.6796,13.6796,13.6796,13.6796,13.6796,13.6796,13.7103,13.7397,13.7679,13.81,13.8492,13.889,13.8906,13.8906,13.8906,13.8515,13.8203,13.8203,13.7695,13.7304,13.6914,13.6406,13.5781,13.5,13.4609,13.3906,13.3086,13.3086,13.289,13.25,13.1484,13.0781,13.0508,12.9609,12.9218,0.0,0.0,11.0098,12.0523,12.5409,12.8102,0.0,0.0,13.1679,13.1679,13.1679,13.1179,12.959,13.0082,13.0487,12.941,13.0102,13.041,12.941,13.0602,13.1102,12.941,12.9987,13.0217,12.9294,12.9217,12.9102,12.8909,12.8909,12.8794,12.8602,12.8602,12.8294,12.7602,12.7602,12.7294,12.6678,12.6678,12.6678,12.6678,12.6678,12.6678,12.6678,12.7294,12.8102,12.8909,12.9987,13.0794,13.141,13.1602,13.1679,13.1679,13.1679,13.1679,13.1795,13.2679,13.341,13.4103,13.5103,13.5488,13.5603,13.6488,13.6411,13.5988,13.6603,13.6796,13.6796,13.6796,13.6796,13.6796,13.6796,13.6796,13.6796,13.6796,13.6796,13.6796,13.6796,13.6796,13.6796,13.6796,13.6796,13.6796,13.6796,13.7103,13.7397,13.7722,13.8086,13.8509,13.8898,13.8906,13.8789,13.8593,13.8007,13.75,13.7304,13.6718,13.6211,13.6015,13.539,13.4883,13.4687,13.4101,13.3398,13.25,13.2304,13.2109,13.1797,13.0508,12.9804,12.9609,12.8906,12.8593,0.0,8.7671,0.0,10.7213,11.6599,12.3909,0.0,12.941,13.1679,13.1679,13.1679,13.141,13.059,13.1102,13.1102,12.9487,13.0602,13.1102,12.941,13.0602,13.1102,12.941,12.9987,13.0217,12.9294,12.9217,12.8909,12.8025,12.8025,12.7602,12.6909,12.6794,12.6794,12.6794,12.6794,12.6678,12.6678,12.6678,12.6678,12.6678,12.6678,12.6678,12.6678,12.6678,12.7217,12.8102,12.9794,13.0487,13.0602,13.141,13.1679,13.1679,13.1679,13.1679,13.1795,13.2679,13.2987,13.3295,13.4911,13.5488,13.5603,13.6488,13.6796,13.668,13.6796,13.6796,13.6796,13.6796,13.6796,13.6796,13.6796,13.6796,13.6796,13.6796,13.6796,13.6796,13.6796,13.6796,13.6796,13.6796,13.6796,13.6796,13.6796,13.7103,13.7397,13.7722,13.811,13.8512,13.8906,13.8906,13.8593,13.7812,13.7617,13.7304,13.6406,13.6289,13.5898,13.5117,13.5,13.4687,13.3906,13.3789,13.3398,13.25,13.1718,13.0898,13.0,12.9883,12.9492,12.8711,12.8593,12.8593,0.0,0.0,9.3095,10.252,11.0291,11.6792,12.1485,12.5678,12.8986,13.0602,13.1295,13.1602,13.1295,13.1002,13.0413,12.9436,13.012,13.0375,12.9321,13.0217,13.0294,12.8602,12.8602,12.8486,12.7678,12.7602,12.7486,12.7178,12.7101,12.6986,12.6678,12.6678,12.6678,12.6678,12.6678,12.6678,12.6678,12.6678,12.6678,12.6678,12.6678,12.6678,12.6678,12.6678,12.6909,12.7217,12.8294,12.9487,13.0487,13.0794,13.1179,13.1679,13.1679,13.1679,13.1795,13.2679,13.2987,13.318,13.4911,13.5218,13.4911,13.5719,13.5988,13.5988,13.5988,13.6411,13.6796,13.6796,13.6796,13.6796,13.6796,13.6796,13.6796,13.6796,13.6796,13.6796,13.6796,13.6796,13.6796,13.6796,13.6796,13.6796,13.6796,13.7103,13.6681,13.483,13.6697,13.75,13.5117,13.6718,13.7695,13.6914,13.6289,13.5781,13.5508,13.5,13.4609,13.4218,13.4218,13.4101,13.3789,13.3281,13.2617,13.1718,13.0781,13.0195,12.9883,12.9297,12.8906,12.8593,12.8593,12.8281,7.2899,0.0,0.0,9.6057,10.202,10.8021,11.7715,12.1908,12.4909,12.9217,13.0718,13.1179,13.091,13.028,12.9681,12.9693,12.9759,12.9609,12.8937,12.9487,12.941,12.7717,12.7717,12.7602,12.6794,12.6678,12.6678,12.6678,12.6678,12.6678,12.6678,12.6678,12.6678,12.6678,12.6678,12.6678,12.6678,12.6678,12.6678,12.6678,12.6678,12.6678,12.6678,12.6678,12.6678,12.6678,12.7294,12.8294,12.9717,13.0294,13.0794,13.1295,13.1602,13.1679,13.1795,13.241,13.2603,13.2795,13.418,13.4295,13.3987,13.4795,13.5295,13.5488,13.5488,13.6103,13.6796,13.6796,13.6796,13.6796,13.6796,13.6796,13.6796,13.6796,13.6796,13.6796,13.6796,13.6796,13.6796,13.6796,13.668,13.6488,13.6411,13.6488,13.5911,13.3705,13.5789,13.6575,13.3905,13.5703,13.6797,13.6015,13.5312,13.4883,13.4609,13.4101,13.3789,13.3789,13.3789,13.3711,13.3398,13.2812,13.1992,13.0781,13.0195,12.9804,12.9492,12.8906,12.8593,12.8593,12.8281,12.7695,0.0,0.0,0.0,8.694,9.1402,9.7711,11.4484,11.7715,11.9408,12.7217,12.9487,12.9987,12.9294,12.8978,12.9205,13.0308,12.9717,12.886,12.8102,12.8602,12.8602,12.6909,12.7409,12.7602,12.6794,12.6678,12.6678,12.6678,12.6678,12.6678,12.6678,12.6678,12.6678,12.6678,12.6678,12.6678,12.6678,12.6678,12.6678,12.6678,12.6678,12.6678,12.6678,12.6678,12.6678,12.6678,12.6678,12.7101,12.8025,12.9717,13.0487,13.0602,13.141,13.1679,13.1679,13.1679,13.1679,13.1795,13.2679,13.2987,13.3103,13.3987,13.4795,13.5411,13.5411,13.6103,13.6796,13.6796,13.6796,13.6796,13.6796,13.6796,13.6796,13.6796,13.6796,13.6796,13.6796,13.6796,13.6796,13.6796,13.6296,13.5911,13.5501,13.5411,13.5166,13.4718,13.5218,13.5703,13.5609,13.5898,13.5781,13.5,13.5,13.4609,13.3906,13.3789,13.3789,13.3789,13.3789,13.3398,13.25,13.25,13.1601,12.9883,12.9883,12.9414,12.8593,12.8593,12.8593,12.8515,12.7617,12.6797,6.4589,0.0,0.0,0.0,0.0,0.0,9.6749,10.1096,10.629,11.7677,12.1216,12.3716,12.8294,12.9219,12.9014,12.8667,12.8301,12.8327,12.8821,12.8486,12.8102,12.7602,12.7294,12.6909,12.6678,12.6678,12.6678,12.6678,12.6678,12.6678,12.6678,12.6678,12.6678,12.6678,12.6678,12.6678,12.6678,12.6678,12.6678,12.6678,12.6678,12.6678,12.6678,12.6678,12.6678,12.6678,12.6678,12.6794,12.7178,12.8909,12.991,13.0602,13.141,13.1679,13.1679,13.1679,13.1679,13.1795,13.2679,13.2603,13.2179,13.3103,13.3487,13.368,13.368,13.468,13.5911,13.5911,13.6296,13.6796,13.6796,13.6796,13.6796,13.6796,13.6796,13.6603,13.5988,13.5911,13.5911,13.6219,13.5603,13.521,13.5309,13.5338,13.4411,13.1769,13.2307,13.2488,13.1313,13.1992,13.3008,13.3984,13.4101,13.3984,13.3789,13.3789,13.3789,13.3789,13.3203,13.2812,13.25,13.1289,13.039,12.9883,12.9297,12.8515,12.7695,12.7695,12.7695,12.7617,12.6211,12.539,6.6013,0.0,0.0,0.0,0.0,0.0,9.221,9.6019,10.0789,11.4291,11.7907,12.0408,12.6486,12.6409,12.5794,12.6717,12.6783,12.7097,12.8014,12.7717,12.7409,12.7409,12.6986,12.6678,12.6678,12.6678,12.6678,12.6678,12.6678,12.6486,12.6178,12.6178,12.6178,12.6178,12.6178,12.6294,12.6678,12.6678,12.6678,12.6678,12.6678,12.6678,12.6678,12.6678,12.6678,12.6678,12.6678,12.6678,12.6794,12.8102,12.9217,13.0102,13.1218,13.1679,13.1679,13.1679,13.1679,13.1795,13.2295,13.2102,13.1795,13.2295,13.2679,13.2987,13.2987,13.391,13.4988,13.4988,13.5603,13.618,13.5795,13.5988,13.618,13.5795,13.5795,13.5603,13.5103,13.4718,13.4718,13.5411,13.4881,13.4503,13.4689,13.4689,13.3893,13.1482,13.201,13.2309,13.111,13.1696,13.2695,13.3711,13.3789,13.3789,13.3789,13.3515,13.3281,13.3281,13.2383,13.1797,13.1406,13.039,12.9687,12.9414,12.8515,12.75,12.6289,12.6992,12.6914,12.6211,12.5312,12.4609,6.8513,7.009,0.0,0.0,0.0,0.0,9.321,9.5672,9.8404,11.1791,11.4907,11.6792,12.2216,12.0908,11.9908,12.2716,12.3985,12.5178,12.6486,12.6678,12.6678,12.6678,12.6678,12.6678,12.6678,12.6678,12.6678,12.6678,12.6678,12.6409,12.5601,12.5486,12.5486,12.5486,12.5486,12.5909,12.6486,12.6601,12.6601,12.6601,12.6601,12.6601,12.6678,12.6678,12.6678,12.6678,12.6678,12.6678,12.6794,12.7602,12.8409,12.9217,13.091,13.1602,13.1602,13.1679,13.1679,13.1679,13.1679,13.1679,13.1679,13.1679,13.2179,13.2872,13.2872,13.3487,13.4218,13.4295,13.4795,13.5218,13.4487,13.4795,13.5218,13.4487,13.4295,13.4295,13.4218,13.3487,13.3295,13.4295,13.4193,13.3902,13.4015,13.3902,13.3612,13.2917,13.3102,13.3338,13.3204,13.3286,13.3515,13.3789,13.3789,13.3789,13.3711,13.289,13.25,13.2383,13.1484,13.0703,12.9883,12.9804,12.9297,12.8515,12.75,12.6289,12.4804,12.6289,12.6211,12.4687,12.4687,12.4218,7.143,7.3168,7.5053,0.0,0.0,0.0,7.6861,8.0477,8.6017,9.2941,9.6519,10.0596,10.7713,11.0214,11.0714,10.929,11.5407,12.1793,12.6101,12.6678,12.6678,12.6678,12.6678,12.6678,12.6678,12.6678,12.6678,12.6678,12.6678,12.6601,12.6486,12.6409,12.6409,12.6409,12.6409,12.6178,12.5678,12.5678,12.5678,12.5678,12.5678,12.5986,12.6678,12.6678,12.6678,12.6678,12.6678,12.6678,12.6794,12.7602,12.8025,12.8294,13.0102,13.0718,13.0794,13.1487,13.1679,13.1679,13.1679,13.1679,13.1679,13.1679,13.1795,13.1987,13.1987,13.2603,13.341,13.4103,13.4411,13.4487,13.4295,13.4411,13.4487,13.4295,13.4295,13.4103,13.341,13.3103,13.2872,13.2679,13.2835,13.3092,13.3704,13.3784,13.3592,13.3187,13.1712,13.1281,13.2974,13.1728,13.1484,13.3593,13.3789,13.3515,13.2812,13.2617,13.2187,13.1484,13.0586,13.0117,12.9883,12.9218,12.8398,12.7617,12.6093,12.5117,12.4804,12.5117,12.4804,12.3789,12.3789,12.3711,7.4687,7.5322,7.6746,7.713,0.0,0.0,0.0,7.9554,8.3016,8.9787,9.121,9.3403,10.0596,10.1289,10.1597,10.4097,11.0598,11.6484,11.9908,12.3601,12.6101,12.6101,12.5678,12.5409,12.5409,12.5409,12.5409,12.5409,12.5794,12.5678,12.4793,12.4793,12.4793,12.4793,12.4793,12.4793,12.4793,12.4793,12.4986,12.5409,12.5409,12.5909,12.6678,12.6678,12.6678,12.6678,12.6678,12.6678,12.6678,12.7101,12.7294,12.7486,12.9679,13.0487,13.0602,13.141,13.1679,13.1679,13.1679,13.1679,13.1679,13.1679,13.1679,13.1679,13.1679,13.1987,13.241,13.291,13.3295,13.3603,13.3103,13.3295,13.3487,13.3103,13.2987,13.291,13.241,13.241,13.2295,13.2179,13.2507,13.2892,13.3383,13.3711,13.3711,13.3515,13.2617,13.2195,13.3415,13.2487,13.2187,13.3086,13.3203,13.2812,13.1914,13.1484,13.1015,13.0586,12.9687,12.9297,12.9297,12.8398,12.7383,12.6093,12.5195,12.4609,12.4218,12.4218,12.3906,12.3515,12.3515,12.3281,0.0,0.0,0.0,0.0,0.0,7.8562,0.0,0.0,0.0,8.8556,8.8055,8.8248,9.4057,9.2479,9.2326,9.8519,10.4482,10.879,11.0214,11.6599,12.1908,12.3716,12.3909,12.3793,12.3601,12.2985,12.2985,12.3985,12.3793,12.3485,12.3216,12.3101,12.3101,12.3101,12.3101,12.3408,12.3909,12.3909,12.4293,12.5101,12.5101,12.5678,12.6678,12.6678,12.6678,12.6678,12.6678,12.6678,12.6678,12.6678,12.6678,12.6909,12.9102,13.0102,13.0294,13.1179,13.1602,13.1679,13.1679,13.1679,13.1679,13.1679,13.1679,13.1679,13.1679,13.1679,13.1679,13.1679,13.2179,13.2603,13.191,13.2179,13.2603,13.191,13.1679,13.1679,13.1679,13.1679,13.1795,13.2102,13.2372,13.2798,13.3099,13.3515,13.3789,13.3789,13.3711,13.3515,13.3515,13.3398,13.3008,13.2304,13.2187,13.1914,13.1015,13.0312,12.9804,12.9687,12.8984,12.8515,12.8398,12.7383,12.6211,12.4804,12.4609,12.4218,12.3515,12.3281,12.3203,12.3203,12.3203,12.2812,0.0,0.0,0.0,0.0,8.4394,0.0,0.0,0.0,7.9169,7.6361,0.0,7.9285,8.1554,0.0,0.0,8.3555,9.1095,9.6942,9.7134,10.2481,10.9406,11.7715,12.1293,12.2716,12.1985,11.91,11.9215,12.3793,11.9985,11.9408,12.3716,12.3985,12.3985,12.3985,12.3985,12.3716,12.3024,12.3024,12.3408,12.4216,12.4216,12.5101,12.6678,12.6678,12.6678,12.6678,12.6678,12.6678,12.6678,12.6678,12.6678,12.6794,12.7794,12.8717,12.9487,13.0294,13.1102,13.1679,13.1679,13.1679,13.1679,13.1679,13.1679,13.1679,13.1679,13.1679,13.1679,13.1679,13.1795,13.1795,13.1679,13.1795,13.1795,13.1679,13.1679,13.1679,13.1679,13.1679,13.1679,13.1679,13.2295,13.2798,13.3099,13.3515,13.3789,13.3789,13.3086,13.2617,13.2617,13.1992,13.1484,13.1406,13.1289,13.1015,13.0117,13.0,12.9609,12.8789,12.8711,12.8281,12.75,12.5898,12.5,12.4804,12.3984,12.3593,12.3515,12.2695,12.2304,12.2304,12.2304,12.1914,0.0,0.0,0.0,0.0,0.0,0.0,0.0,0.0,7.5938,0.0,0.0,0.0,0.0,0.0,0.0,0.0,8.6209,9.1171,9.0671,9.6134,10.2712,10.9598,10.9983,11.0291,11.1906,11.2483,11.4599,11.8715,11.6484,11.71,12.16,12.1908,12.21,12.2601,12.2601,12.2485,12.21,12.21,12.2601,12.3408,12.3408,12.4293,12.5909,12.5909,12.6178,12.6678,12.6678,12.6678,12.6678,12.6678,12.6678,12.6678,12.7101,12.7717,12.8602,12.9987,13.0718,13.1102,13.1487,13.1679,13.1679,13.1679,13.1679,13.1679,13.1679,13.1679,13.1679,13.1679,13.141,13.0987,13.0987,13.0602,13.0217,13.0217,13.0217,13.0217,13.0217,13.0217,13.0217,13.0217,13.0794,13.1315,13.1397,13.2312,13.289,13.2383,13.1992,13.1718,13.1718,13.1406,13.1015,13.0508,13.039,13.0117,12.9218,12.9101,12.8984,12.8593,12.8086,12.7187,12.5898,12.5195,12.4609,12.4101,12.3711,12.3281,12.2695,12.2383,12.1718,12.0703,12.1211,12.1015,9.0169,0.0,0.0,0.0,0.0,0.0,0.0,0.0,0.0,0.0,0.0,0.0,0.0,0.0,0.0,0.0,0.0,8.6055,8.5401,8.894,9.4095,10.0789,10.0712,10.1289,10.4482,10.579,10.8598,11.3907,11.2214,11.3599,11.9985,12.0292,12.0677,12.16,12.16,12.16,12.16,12.16,12.1985,12.2908,12.2908,12.3793,12.5409,12.5409,12.5909,12.6678,12.6678,12.6678,12.6678,12.6678,12.6678,12.6678,12.6678,12.7101,12.7794,12.9217,12.991,13.0294,13.1102,13.1487,13.1679,13.1679,13.1602,13.141,13.141,13.1179,13.0987,13.0987,13.0602,13.0102,13.0102,12.9717,12.9217,12.9217,12.9217,12.9217,12.9217,12.9217,12.9217,12.9217,12.9717,13.0097,12.9918,13.1109,13.1914,13.1289,13.1015,13.0781,13.0781,13.0586,13.0195,12.9609,12.9492,12.9297,12.8711,12.8593,12.8515,12.8281,12.7187,12.6093,12.4883,12.4609,12.4101,12.3515,12.3281,12.2812,12.2187,12.1718,12.0781,11.9609,12.0195,12.0117,0.0,0.0,0.0,8.7146,0.0,0.0,0.0,0.0,7.8361,0.0,0.0,0.0,0.0,0.0,0.0,0.0,0.0,0.0,0.0,7.8092,8.0708,9.1595,9.7173,10.1096,10.3712,9.9596,10.0904,11.0906,10.6213,10.7982,11.9715,12.0292,12.0677,12.16,12.16,12.16,12.16,12.16,12.1985,12.2908,12.2908,12.3793,12.5409,12.5409,12.5909,12.6678,12.6678,12.6678,12.6678,12.6678,12.6678,12.6678,12.6678,12.6678,12.6794,12.7717,12.8486,12.941,13.0217,13.0987,13.1679,13.1679,13.1179,13.0487,13.0487,12.991,12.9294,12.9294,12.9294,12.9217,12.9217,12.9217,12.9217,12.9217,12.9217,12.9217,12.9217,12.9217,12.9217,12.9217,12.9679,12.9865,12.9074,13.0212,13.1211,13.1211,13.0508,12.9883,12.9883,12.9218,12.8711,12.8593,12.8593,12.8593,12.8593,12.8593,12.8203,12.7383,12.5781,12.4883,12.4804,12.3984,12.3515,12.3515,12.2695,12.2187,12.2187,12.0508,11.9687,11.9609,11.9609,11.9218,10.4686,0.0,10.2204,9.3546,0.0,0.0,0.0,0.0,0.0,0.0,0.0,0.0,0.0,0.0,0.0,0.0,0.0,0.0,0.0,7.2591,7.363,8.0746,8.6594,9.0133,9.0441,9.2941,9.6711,10.1789,10.0904,10.4482,11.4714,11.5792,11.7484,12.06,12.1293,12.16,12.16,12.16,12.1677,12.1985,12.1985,12.2908,12.4486,12.4486,12.5293,12.6678,12.6678,12.6678,12.6678,12.6678,12.6678,12.6678,12.6678,12.6678,12.6794,12.7602,12.8102,12.8486,12.9294,12.9794,12.9987,12.9987,12.991,12.9602,12.9602,12.941,12.9217,12.9217,12.8794,12.8294,12.8294,12.7909,12.7486,12.7486,12.7486,12.7486,12.7486,12.7486,12.7486,12.7486,12.8063,12.8405,12.8091,12.8807,12.9492,12.9492,12.9218,12.8984,12.8984,12.8789,12.8593,12.8593,12.8593,12.8398,12.7812,12.7187,12.6484,12.5703,12.5117,12.4492,12.3984,12.3086,12.2617,12.2617,12.1797,12.1093,12.0508,11.9883,11.9297,11.8711,11.8086,11.8008,10.9276,10.8578,10.6691,10.0463,9.6157,0.0,8.4283,0.0,0.0,0.0,0.0,0.0,0.0,0.0,0.0,0.0,0.0,0.0,0.0,7.0206,7.0975,7.4245,7.9131,0.0,8.4747,8.6978,9.0594,9.6172,9.5749,9.9519,10.9483,11.2791,11.5792,11.8908,12.0985,12.21,12.21,12.1793,12.16,12.16,12.16,12.2293,12.3716,12.3985,12.4909,12.6294,12.6601,12.6678,12.6678,12.6678,12.6678,12.6678,12.6678,12.6678,12.6794,12.7294,12.7717,12.8025,12.8525,12.8909,12.9217,12.9217,12.8986,12.8717,12.8717,12.8486,12.8294,12.8294,12.7909,12.7486,12.7486,12.7101,12.6678,12.6678,12.6678,12.6678,12.6678,12.6678,12.6678,12.6678,12.7178,12.7594,12.7586,12.8182,12.8593,12.8593,12.8593,12.8593,12.8593,12.8593,12.8593,12.8593,12.8281,12.7812,12.6914,12.6093,12.539,12.4804,12.4492,12.3906,12.3086,12.25,12.2109,12.1718,12.0898,12.0195,11.9609,11.9297,11.8711,11.7812,11.7304,11.7109]},{"header":{"parameterUnit":"m.s-1","parameterCategory":1,"la1":30.6,"la2":29.2853,"lo1":-89.7004,"lo2":-87.6739,"dy":0.0162,"dx":0.0183,"nx":112,"ny":82,"refTime":"2026-04-18T12:00:00:Z","depth":0,"parameterNumber":3,"parameterNumberName":"V-component_of_WINDS"},"data":[0.0,0.0,0.0,0.0,0.0,0.0,0.0,0.0,0.0,0.0,0.0,0.0,0.0,0.0,0.0,0.0,0.0,0.0,0.0,0.0,0.0,0.0,0.0,0.0,0.0,0.0,0.0,0.0,0.0,0.0,0.0,0.0,0.0,0.0,0.0,0.0,0.0,0.0,0.0,0.0,0.0,0.0,0.0,0.0,0.0,0.0,0.0,0.0,0.0,0.0,0.0,0.0,0.0,0.0,0.0,0.0,0.0,0.0,0.0,0.0,0.0,0.0,0.0,0.0,0.0,0.0,0.0,0.0,0.0,0.0,0.0,0.0,0.0,0.0,0.0,0.0,0.0,0.0,0.0,0.0,0.0,0.0,0.0,0.0,0.0,0.0,0.0,0.0,0.0,0.0,0.0,0.0,0.0,0.0,0.0,0.0,0.0,0.0,0.0,0.0,0.0,0.0,0.0,0.0,0.0,0.0,0.0,0.0,0.0,0.0,0.0,0.0,0.0,0.0,0.0,0.0,0.0,0.0,0.0,0.0,0.0,0.0,0.0,0.0,0.0,0.0,0.0,0.0,0.0,0.0,0.0,0.0,0.0,0.0,0.0,0.0,0.0,0.0,0.0,0.0,0.0,0.0,0.0,0.0,0.0,0.0,0.0,0.0,0.0,0.0,0.0,0.0,0.0,0.0,0.0,0.0,0.0,0.0,0.0,0.0,0.0,0.0,0.0,0.0,0.0,0.0,0.0,0.0,0.0,0.0,0.0,0.0,0.0,0.0,0.0,0.0,0.0,0.0,0.0,0.0,0.0,0.0,0.0,0.0,0.0,0.0,0.0,0.0,0.0,0.0,0.0,0.0,0.0,0.0,0.0,0.0,0.0,0.0,0.0,0.0,0.0,0.0,0.0,0.0,0.0,0.0,0.0,0.0,0.0,0.0,0.0,0.0,0.0,0.0,0.0,0.0,0.0,0.0,0.0,0.0,0.0,0.0,0.0,0.0,0.0,0.0,0.0,0.0,0.0,0.0,0.0,0.0,0.0,0.0,0.0,0.0,0.0,0.0,0.0,0.0,0.0,0.0,0.0,0.0,0.0,0.0,0.0,0.0,0.0,0.0,0.0,0.0,0.0,0.0,0.0,0.0,0.0,0.0,0.0,0.0,0.0,0.0,0.0,0.0,0.0,0.0,0.0,0.0,0.0,0.0,0.0,0.0,0.0,0.0,0.0,0.0,0.0,0.0,0.0,0.0,0.0,0.0,0.0,0.0,0.0,0.0,0.0,0.0,0.0,0.0,0.0,0.0,0.0,0.0,0.0,0.0,0.0,0.0,0.0,0.0,0.0,0.0,0.0,0.0,0.0,0.0,0.0,0.0,0.0,0.0,0.0,0.0,0.0,0.0,0.0,0.0,0.0,0.0,0.0,0.0,0.0,0.0,0.0,0.0,0.0,0.0,0.0,0.0,0.0,0.0,0.0,0.0,0.0,0.0,0.0,0.0,0.0,0.0,0.0,0.0,0.0,0.0,0.0,0.0,0.0,0.0,0.0,0.0,0.0,0.0,0.0,0.0,0.0,0.0,0.0,0.0,0.0,0.0,0.0,0.0,0.0,0.0,0.0,0.0,0.0,0.0,0.0,0.0,0.0,0.0,0.0,0.0,0.0,0.0,0.0,0.0,0.0,0.0,0.0,0.0,0.0,0.0,0.0,0.0,0.0,0.0,0.0,0.0,0.0,0.0,0.0,0.0,0.0,0.0,0.0,0.0,0.0,0.0,0.0,0.0,0.0,0.0,0.0,0.0,0.0,0.0,0.0,0.0,0.0,0.0,0.0,0.0,0.0,0.0,0.0,0.0,0.0,0.0,0.0,0.0,0.0,0.0,0.0,0.0,0.0,0.0,0.0,0.0,0.0,0.0,0.0,0.0,0.0,0.0,0.0,0.0,0.0,0.0,0.0,0.0,0.0,0.0,0.0,0.0,0.0,0.0,0.0,0.0,0.0,0.0,0.0,0.0,0.0,0.0,0.0,0.0,0.0,0.0,0.0,0.0,0.0,0.0,0.0,0.0,0.0,0.0,0.0,0.0,0.0,0.0,0.0,0.0,0.0,0.0,0.0,0.0,0.0,0.0,0.0,0.0,0.0,0.0,0.0,0.0,0.0,0.0,0.0,0.0,0.0,0.0,0.0,0.0,0.0,0.0,0.0,0.0,0.0,0.0,0.0,0.0,0.0,0.0,0.0,0.0,0.0,0.0,0.0,0.0,0.0,0.0,0.0,0.0,0.0,0.0,0.0,0.0,0.0,0.0,0.0,0.0,0.0,0.0,0.0,0.0,0.0,0.0,0.0,0.0,0.0,0.0,0.0,0.0,0.0,0.0,0.0,0.0,0.0,0.0,0.0,0.0,0.0,0.0,0.0,0.0,0.0,0.0,0.0,0.0,0.0,0.0,0.0,0.0,0.0,0.0,0.0,0.0,0.0,0.0,0.0,0.0,0.0,0.0,0.0,0.0,0.0,0.0,0.0,0.0,0.0,0.0,0.0,0.0,0.0,0.0,0.0,0.0,0.0,0.0,0.0,0.0,0.0,0.0,0.0,0.0,0.0,0.0,0.0,0.0,0.0,0.0,0.0,0.0,0.0,0.0,0.0,0.0,0.0,0.0,0.0,0.0,0.0,0.0,0.0,0.0,0.0,0.0,0.0,0.0,0.0,0.0,0.0,0.0,0.0,0.0,0.0,0.0,0.0,0.0,0.0,0.0,0.0,0.0,0.0,0.0,0.0,0.0,0.0,0.0,0.0,0.0,0.0,0.0,0.0,0.0,0.0,0.0,0.0,0.0,0.0,0.0,0.0,0.0,0.0,0.0,0.0,0.0,0.0,0.0,0.0,0.0,0.0,0.0,0.0,0.0,0.0,0.0,0.0,0.0,0.0,0.0,0.0,0.0,0.0,0.0,0.0,0.0,0.0,0.0,0.0,0.0,0.0,0.0,0.0,0.0,0.0,0.0,0.0,0.0,0.0,0.0,0.0,0.0,0.0,0.0,0.0,0.0,0.0,0.0,0.0,0.0,0.0,0.0,0.0,0.0,0.0,0.0,0.0,0.0,0.0,0.0,0.0,0.0,0.0,0.0,0.0,0.0,0.0,0.0,0.0,0.0,0.0,0.0,0.0,0.0,0.0,0.0,0.0,0.0,0.0,0.0,0.0,0.0,0.0,0.0,0.0,0.0,0.0,0.0,0.0,0.0,0.0,0.0,0.0,0.0,0.0,0.0,0.0,0.0,0.0,0.0,0.0,0.0,0.0,0.0,0.0,0.0,0.0,0.0,0.0,0.0,0.0,0.0,0.0,0.0,0.0,0.0,0.0,0.0,0.0,0.0,0.0,0.0,0.0,0.0,0.0,0.0,0.0,0.0,0.0,0.0,0.0,0.0,0.0,0.0,0.0,0.0,0.0,0.0,0.0,0.0,0.0,0.0,0.0,0.0,0.0,0.0,0.0,0.0,0.0,0.0,0.0,0.0,0.0,0.0,0.0,0.0,0.0,0.0,0.0,0.0,0.0,0.0,0.0,0.0,0.0,0.0,0.0,0.0,0.0,0.0,0.0,0.0,0.0,0.0,0.0,0.0,0.0,0.0,0.0,0.0,0.0,0.0,0.0,0.0,0.0,0.0,0.0,0.0,0.0,0.0,0.0,0.0,0.0,0.0,0.0,0.0,0.0,0.0,0.0,0.0,0.0,0.0,0.0,0.0,0.0,0.0,0.0,0.0,0.0,0.0,0.0,0.0,0.0,0.0,0.0,0.0,0.0,0.0,0.0,0.0,0.0,0.0,0.0,0.0,0.0,0.0,0.0,0.0,0.0,0.0,0.0,0.0,0.0,0.0,0.0,0.0,0.0,0.0,0.0,0.0,0.0,0.0,0.0,0.0,0.0,0.0,0.0,0.0,0.0,0.0,0.0,0.0,0.0,0.0,0.0,0.0,0.0,0.0,0.0,0.0,0.0,0.0,0.0,0.0,0.0,0.0,0.0,0.0,0.0,0.0,0.0,0.0,0.0,0.0,0.0,0.0,0.0,0.0,0.0,0.0,0.0,0.0,0.0,0.0,0.0,0.0,0.0,0.0,0.0,0.0,0.0,0.0,0.0,0.0,0.0,0.0,0.0,0.0,0.0,0.0,0.0,0.0,0.0,0.0,0.0,0.0,0.0,0.0,0.0,0.0,0.0,0.0,0.0,0.0,0.0,0.0,0.0,0.0,0.0,0.0,0.0,0.0,0.0,0.0,0.0,0.0,0.0,0.0,0.0,0.0,0.0,0.0,0.0,0.0,0.0,0.0,0.0,0.0,0.0,0.0,0.0,0.0,0.0,0.0,0.0,0.0,0.0,0.0,0.0,0.0,0.0,0.0,0.0,0.0,0.0,0.0,0.0,0.0,0.0,0.0,0.0,0.0,0.0,0.0,0.0,0.0,0.0,0.0,0.0,0.0,0.0,0.0,0.0,0.0,0.0,0.0,0.0,0.0,0.0,0.0,0.0,0.0,0.0,0.0,0.0,0.0,0.0,0.0,0.0,0.0,0.0,0.0,0.0,0.0,0.0,0.0,0.0,0.0,0.0,0.0,0.0,0.0,0.0,0.0,0.0,0.0,0.0,0.0,0.0,0.0,0.0,0.0,0.0,0.0,0.0,0.0,0.0,0.0,0.0,0.0,0.0,0.0,0.0,0.0,0.0,0.0,0.0,0.0,0.0,0.0,0.0,0.0,0.0,0.0,0.0,0.0,0.0,0.0,0.0,0.0,0.0,0.0,0.0,0.0,0.0,0.0,0.0,0.0,0.0,0.0,0.0,0.0,0.0,0.0,0.0,0.0,0.0,0.0,0.0,0.0,0.0,0.0,0.0,0.0,0.0,0.0,0.0,0.0,0.0,0.0,0.0,0.0,0.0,0.0,0.0,0.0,0.0,0.0,0.0,0.0,0.0,0.0,0.0,0.0,0.0,0.0,0.0,0.0,0.0,0.0,0.0,0.0,0.0,0.0,0.0,0.0,0.0,0.0,0.0,0.0,0.0,0.0,0.0,0.0,0.0,0.0,0.0,0.0,0.0,0.0,0.0,0.0,0.0,0.0,0.0,0.0,0.0,0.0,0.0,0.0,0.0,0.0,0.0,0.0,0.0,0.0,0.0,0.0,0.0,0.0,0.0,0.0,0.0,0.0,0.0,0.0,0.0,0.0,0.0,0.0,0.0,0.0,0.0,0.0,0.0,0.0,0.0,0.0,0.0,0.0,0.0,0.0,0.0,0.0,0.0,0.0,0.0,0.0,0.0,0.0,0.0,0.0,0.0,0.0,0.0,0.0,0.0,0.0,0.0,0.0,0.0,0.0,0.0,0.0,0.0,0.0,0.0,0.0,0.0,0.0,0.0,0.0,0.0,0.0,0.0,0.0,0.0,0.0,0.0,0.0,0.0,0.0,0.0,0.0,0.0,0.0,0.0,0.0,0.0,0.0,0.0,0.0,0.0,0.0,0.0,0.0,0.0,0.0,0.0,0.0,0.0,0.0,0.0,0.0,0.0,0.0,0.0,0.0,0.0,0.0,0.0,0.0,0.0,0.0,0.0,0.0,0.0,0.0,0.0,0.0,0.0,0.0,0.0,0.0,0.0,0.0,0.0,0.0,1.6815,0.0,0.0,0.0,0.0,0.0,0.0,0.0,0.0,0.0,0.0,0.0,0.0,0.0,0.0,0.0,0.0,0.0,0.0,0.0,0.0,0.0,0.0,0.0,0.0,0.0,0.0,0.0,0.0,0.0,0.0,0.0,0.0,0.0,0.0,0.0,0.0,0.0,0.0,0.0,0.0,0.0,0.0,0.0,0.0,0.0,0.0,0.0,0.0,0.0,0.0,0.0,0.0,0.0,0.0,0.0,0.0,0.0,0.0,0.0,0.0,0.0,0.0,0.0,0.0,0.0,0.0,0.0,0.0,0.0,0.0,0.0,0.0,0.0,0.0,0.0,0.0,0.0,0.0,0.0,0.0,0.0,0.0,0.0,0.0,0.0,0.0,0.0,0.0,0.0,0.0,0.0,0.0,0.0,0.0,0.0,0.0,0.0,0.0,0.0,0.0,0.0,0.0,0.0,0.0,0.0,0.0,0.0,0.0,0.0,0.0,0.0,0.0,1.7297,0.0,0.0,0.0,0.0,0.0,0.0,0.0,0.0,0.0,0.0,0.0,0.0,0.0,0.0,0.0,0.0,0.0,0.0,0.0,0.0,0.0,0.0,0.0,0.0,0.0,0.0,0.0,0.0,0.0,0.0,0.0,0.0,0.0,0.0,0.0,0.0,0.0,0.0,0.0,0.0,0.0,0.0,0.0,0.0,0.0,0.0,0.0,0.0,0.0,0.0,0.0,0.0,0.0,0.0,0.0,0.0,0.0,0.0,0.0,0.0,0.0,0.0,0.0,0.0,0.0,0.0,0.0,0.0,0.0,0.0,0.0,0.0,0.0,0.0,0.0,0.0,0.0,0.0,0.0,0.0,0.0,0.0,0.0,0.0,0.0,0.0,0.0,0.0,0.0,0.0,0.0,0.0,0.0,0.0,0.0,0.0,0.0,0.0,0.0,0.0,0.0,0.0,0.0,0.0,1.9468,1.982,2.0417,2.0329,2.0438,2.0682,1.98,1.9183,1.8708,0.0,0.0,0.0,0.0,0.0,0.0,0.0,0.0,0.0,0.0,0.0,0.0,0.0,0.0,0.0,0.0,0.0,0.0,0.0,0.0,0.0,0.0,0.0,0.0,0.0,1.9852,1.8747,0.0,0.0,0.0,0.0,0.0,0.0,0.0,0.0,0.0,0.0,0.0,0.0,0.0,0.0,0.0,0.0,0.0,0.0,0.0,0.0,0.0,0.0,0.0,0.0,0.0,0.0,0.0,0.0,0.0,0.0,0.0,0.0,0.0,0.0,0.0,0.0,0.0,0.0,0.0,0.0,0.0,0.0,0.0,0.0,0.0,0.0,0.0,0.0,0.0,0.0,0.0,0.0,0.0,0.0,0.0,0.0,1.5594,1.5527,0.0,0.0,0.0,0.0,0.0,0.0,0.0,0.0,0.0,0.0,0.0,0.0,0.0,1.8531,1.9183,2.0241,2.0824,2.0933,2.195,2.25,2.2601,2.271,2.292,2.3205,2.3063,0.0,1.9698,1.9698,0.0,0.0,0.0,0.0,0.0,0.0,0.0,0.0,0.0,0.0,0.0,0.0,0.0,0.0,0.0,0.0,0.0,0.0,0.0,0.0,0.0,0.0,2.2435,2.1322,2.1136,2.0834,0.0,1.3528,0.814,1.0316,0.0,0.0,0.0,0.0,0.0,0.0,0.0,0.0,0.0,0.0,0.0,0.0,0.0,0.0,0.0,0.0,0.0,0.0,0.0,0.0,0.0,0.0,0.0,0.0,0.0,0.0,0.0,0.0,0.0,0.0,0.0,0.0,0.0,0.0,0.0,0.0,0.0,0.0,0.0,0.0,0.0,0.0,0.0,0.0,0.0,0.0,0.0,0.0,0.0,0.0,0.0,1.5371,1.6178,1.5696,1.6144,1.6022,0.0,0.0,0.0,0.0,0.0,0.0,0.0,0.0,0.0,1.9535,1.9712,2.0241,2.1177,2.1882,2.2357,2.2608,2.3307,2.3714,2.3877,2.3856,2.3978,2.4175,2.4087,2.3381,2.2181,2.1245,2.0064,1.8796,0.0,0.0,0.0,0.0,1.807,1.8287,1.9345,1.959,0.0,0.0,0.0,0.0,0.0,0.0,0.0,0.0,0.0,0.0,0.0,0.0,0.0,2.2084,2.1964,2.0559,1.656,1.2245,0.8493,0.0,0.6573,0.7884,0.9344,0.0,0.0,0.0,0.0,0.0,0.0,0.0,0.0,0.0,0.0,0.0,0.0,0.0,0.0,0.0,0.0,0.0,0.0,0.0,0.0,0.0,0.0,0.0,0.0,0.0,0.0,0.0,0.0,0.0,0.0,0.0,0.0,0.0,0.0,0.0,0.0,0.0,0.0,0.0,0.0,0.0,0.0,0.0,0.0,0.0,0.0,0.0,0.0,1.6076,1.6802,1.6015,1.6856,1.6863,0.0,0.0,0.0,0.0,0.0,0.0,1.8687,1.9081,1.9868,2.119,2.1374,2.195,2.3008,2.3273,2.3578,2.391,2.4175,2.4406,2.4616,2.4541,2.4582,2.467,2.4562,2.4419,2.4121,2.2588,2.1319,2.0282,1.961,1.9149,1.8952,1.9522,1.9766,2.0031,2.1374,2.1672,2.1387,2.1021,0.0,1.9447,1.7982,0.0,0.0,0.0,0.0,1.5112,2.0738,2.2288,2.2338,2.2462,2.2411,2.0979,1.53,1.2559,0.8934,0.0,0.0,0.3863,1.5991,0.0,0.0,0.0,0.0,0.0,0.0,0.0,0.0,0.0,0.0,0.0,0.0,0.0,0.0,0.0,0.0,0.0,0.0,0.0,0.0,0.0,0.0,0.0,0.0,0.0,0.0,0.0,0.0,0.0,0.0,0.0,0.0,0.0,0.0,0.0,0.0,0.0,0.0,0.0,0.0,0.0,0.0,0.0,0.0,0.0,0.0,0.0,0.0,0.0,0.0,1.6802,1.7982,0.0,0.0,0.0,0.0,1.7704,1.8586,1.9481,2.0363,2.098,2.1848,2.3042,2.3239,2.3626,2.4263,2.4406,2.4494,2.4528,2.4684,2.4772,2.4792,2.4914,2.4982,2.5003,2.4982,2.4813,2.4473,2.368,2.29,2.216,2.1686,2.1319,2.1055,2.1089,2.1299,2.1618,2.2127,2.2201,2.2181,2.2852,2.1896,2.0383,1.9875,1.8697,0.0,0.0,1.9516,2.1581,2.2133,2.2378,2.2469,2.2466,2.2588,2.2622,2.2048,1.6296,0.8871,0.0,0.0,0.4444,1.8697,0.0,1.2393,0.1679,0.0,0.0,0.0,0.0,0.0,0.0,0.0,0.0,0.0,0.0,0.0,0.0,0.0,0.0,0.0,0.0,0.0,0.0,0.0,0.0,0.0,0.0,0.0,0.0,0.0,0.0,0.0,0.0,0.0,0.0,0.0,0.0,0.0,0.0,0.0,0.0,0.0,0.0,0.0,0.0,0.0,0.0,0.0,0.0,0.0,0.0,0.0,1.7948,1.9217,0.0,1.8179,1.8531,1.9006,1.9413,2.0363,2.1285,2.2093,2.2425,2.292,2.3626,2.37,2.389,2.4189,2.444,2.4562,2.4562,2.4826,2.4935,2.4935,2.5003,2.4969,2.488,2.488,2.4704,2.4406,2.4141,2.3646,2.3029,2.2676,2.2411,2.2255,2.2432,2.2642,2.2866,2.3219,2.3307,2.3205,2.2886,2.2093,2.1143,2.0505,2.0078,1.9622,1.9776,2.0677,2.1464,2.2111,2.2283,2.231,2.2391,2.2425,2.2466,2.2479,2.0381,1.7432,1.483,1.0397,0.7192,0.7626,1.4478,1.5409,0.1997,0.0,0.0,0.0,0.0,0.0,0.0,0.0,0.0,0.0,0.0,0.0,0.0,0.0,0.0,0.0,0.0,0.0,0.0,0.0,0.0,0.0,0.0,0.0,0.0,0.0,0.0,0.0,0.0,0.0,0.0,0.0,0.0,0.0,0.0,0.0,0.0,0.0,0.0,0.0,0.0,0.0,0.0,0.0,0.0,0.0,0.0,1.9305,1.8952,2.0241,2.0716,1.9624,2.0105,2.0648,2.1055,2.1862,2.2608,2.3205,2.3361,2.3626,2.4033,2.4053,2.4121,2.4263,2.446,2.4582,2.465,2.4847,2.4969,2.5023,2.4969,2.488,2.4792,2.4738,2.4582,2.4351,2.4351,2.4087,2.3646,2.3347,2.3137,2.3029,2.3219,2.3436,2.3626,2.389,2.3931,2.3788,2.3083,2.2445,2.1862,2.1319,2.1143,2.1157,2.1211,2.1374,2.1618,2.2072,2.2269,2.2337,2.2337,2.2337,2.2357,2.2391,2.2425,2.187,2.0178,1.7067,1.3417,0.83,1.1084,1.1737,0.4687,0.163,0.0,0.0,0.0,0.0,0.0,0.0,0.0,0.0,0.0,0.0,0.0,0.0,0.0,0.0,0.0,0.0,0.0,0.0,0.0,0.0,0.0,0.0,0.0,0.0,0.0,0.0,0.0,0.0,0.0,0.0,0.0,0.0,0.0,0.0,0.0,0.0,0.0,0.0,0.0,0.0,0.0,0.0,0.0,1.7433,1.9128,2.0207,1.9786,2.1034,2.1706,2.1123,2.1475,2.1971,2.2554,2.2995,2.3381,2.368,2.3822,2.4033,2.4331,2.4351,2.4406,2.4548,2.4548,2.4636,2.4792,2.4792,2.486,2.5003,2.486,2.4792,2.4772,2.4616,2.4473,2.4351,2.4351,2.4243,2.4087,2.3802,2.3592,2.347,2.3449,2.3646,2.391,2.4066,2.4012,2.3843,2.3537,2.3049,2.2534,2.2391,2.2127,2.1937,2.2079,2.2113,2.2147,2.2303,2.2337,2.2337,2.2337,2.2337,2.2357,2.2391,2.2094,2.0652,1.6154,1.9111,2.2281,2.1967,0.9973,0.2767,0.9319,0.4491,0.0,0.0,0.0,0.0,0.0,0.0,0.0,0.0,0.0,0.0,0.0,0.0,0.0,0.0,0.0,0.0,0.0,0.0,0.0,0.0,0.0,0.0,0.0,0.0,0.0,0.0,0.0,0.0,0.0,0.0,0.0,0.0,0.0,0.0,0.0,0.0,0.0,0.0,0.0,0.0,0.0,0.0,1.8464,1.8552,1.9854,2.0967,2.1387,2.2269,2.2832,2.2778,2.2886,2.3083,2.3347,2.3578,2.3788,2.3999,2.4033,2.41,2.4175,2.4189,2.4209,2.4243,2.4351,2.4473,2.4636,2.4738,2.4813,2.4847,2.4813,2.467,2.4473,2.4419,2.4317,2.4189,2.4189,2.4087,2.3944,2.3877,2.3802,2.3754,2.366,2.3734,2.389,2.3944,2.3856,2.368,2.3381,2.3029,2.2696,2.2534,2.2357,2.2215,2.2269,2.2269,2.2289,2.2323,2.2337,2.2337,2.2337,2.2337,2.2337,2.2357,1.9532,1.7565,1.9803,2.1321,2.1068,1.7549,1.6467,1.3139,0.4193,0.1134,0.0,0.0,0.0,0.0,0.0,0.0,0.0,0.0,0.0,0.0,0.0,0.0,0.0,0.0,0.0,0.0,0.0,0.0,0.0,0.0,0.0,0.0,0.0,0.0,0.0,0.0,0.0,0.0,0.0,0.0,0.0,0.0,0.0,0.0,0.0,0.0,0.0,0.0,0.0,0.0,0.0,1.8742,1.9875,2.0241,2.1034,2.1815,2.25,2.3008,2.3436,2.37,2.368,2.37,2.3856,2.3944,2.4033,2.4121,2.4121,2.4121,2.4121,2.4121,2.4121,2.4121,2.4209,2.4331,2.4473,2.4636,2.4704,2.4704,2.4704,2.4562,0.0,2.4277,2.4209,2.4121,2.4121,2.4066,0.0,0.0,0.0,0.0,0.0,2.3822,2.389,2.389,2.3802,2.3626,2.3327,2.3029,2.2744,2.2608,2.2445,2.2337,2.2337,2.2337,2.2337,2.2337,2.2337,2.2337,2.2337,2.2337,2.2337,2.2357,2.0098,1.8961,2.1804,2.2405,0.0,1.8419,2.0462,1.8263,0.6434,0.1984,0.0,0.0,0.0,0.0,0.0,0.0,0.0,0.0,0.0,0.0,0.0,0.0,0.0,0.0,0.0,0.0,0.0,0.0,0.0,0.0,0.0,0.0,0.0,0.0,0.0,0.0,0.0,0.0,0.0,0.0,0.0,0.0,0.0,0.0,0.0,0.0,0.0,0.0,0.0,0.0,0.0,1.9976,2.1177,2.2038,2.2303,2.2622,2.3185,2.3395,2.366,2.4087,2.3999,2.3978,2.41,2.4121,2.4121,2.4121,0.0,0.0,0.0,0.0,2.4121,2.4121,2.4121,2.4189,2.4351,2.4473,2.4548,2.4548,2.4562,2.4473,2.4311,2.4189,2.4141,2.4121,2.4121,2.4121,2.41,2.3965,2.3843,2.3714,2.3856,2.391,2.389,2.3877,0.0,0.0,2.3327,2.3029,2.2764,2.2622,2.2466,2.2337,2.2337,2.2337,2.2337,2.2337,2.2337,2.2337,2.2337,2.2337,2.2357,2.2391,2.2371,2.2357,2.2391,2.2371,2.2337,2.2337,2.2181,1.9657,1.2202,0.4794,0.0,0.0,0.0,0.0,0.0,0.0,0.0,0.0,0.0,0.0,0.0,0.0,0.0,0.0,0.0,0.0,0.0,0.0,0.0,0.0,0.0,0.0,0.0,0.0,0.0,0.0,0.0,0.0,0.0,0.0,0.0,0.0,0.0,0.0,0.0,0.0,0.0,0.0,0.0,0.0,1.9128,2.0539,2.1726,2.2378,2.271,2.3008,2.3361,2.3646,2.389,2.41,2.4087,2.4087,2.4121,2.4121,2.4121,2.4121,2.4121,2.4121,2.4121,2.4121,2.4121,2.4121,2.4121,2.4189,2.4351,0.0,0.0,2.4406,2.4507,2.4419,2.4175,2.4263,2.4229,2.4121,2.4121,2.4121,2.4121,2.4087,2.3978,2.3877,2.4012,2.3999,2.3877,2.3768,2.37,2.3626,2.3327,2.3029,2.2784,2.2744,2.2554,0.0,2.2337,2.2337,2.2337,2.2337,2.2337,2.2337,2.2337,2.2337,2.2337,2.2357,2.2337,2.2337,2.2357,2.2337,2.2337,2.2337,2.2168,1.9687,1.2355,0.4823,0.0,0.0,0.0,0.0,0.0,0.0,0.0,0.0,0.0,0.0,0.0,0.0,0.0,0.0,0.0,0.0,0.0,0.0,0.0,0.0,0.0,0.0,0.0,0.0,0.0,0.0,0.0,0.0,0.0,0.0,0.0,0.0,0.0,0.0,0.0,0.0,1.6307,1.706,0.0,1.9128,2.0261,2.1319,2.2167,2.2608,2.2995,2.3293,2.3429,2.3646,2.3843,2.3999,2.4066,2.4121,2.4121,2.4121,2.4121,2.4121,2.4121,2.4121,2.4121,2.4121,2.4121,2.4121,2.4121,2.4155,2.4243,2.4311,2.4311,2.4243,2.4385,2.4331,2.4121,2.4209,2.4189,2.4121,2.4121,2.4121,2.4121,2.4121,2.4066,2.4012,2.4087,2.4066,2.3978,2.3754,2.368,2.3612,2.3239,2.2961,2.2764,2.2696,2.252,2.2337,2.2337,2.2337,2.2337,2.2337,2.2337,2.2337,2.2337,2.2337,2.2337,2.2337,2.2337,2.2337,2.2337,2.2337,2.2337,2.2337,2.2425,1.9687,1.24,0.483,0.0,0.0,0.0,0.0,0.0,0.0,0.0,0.0,0.0,0.0,0.0,0.0,0.0,0.0,0.0,0.0,0.0,0.0,0.0,0.0,0.0,0.0,0.0,0.0,0.0,0.0,0.0,0.0,0.0,0.0,0.0,0.0,0.0,1.556,1.6307,1.6937,1.765,1.862,1.9305,2.0119,2.1299,2.1984,2.2479,2.2784,2.3171,2.3395,2.3395,2.3592,2.3788,2.3931,2.4053,2.4121,2.4121,2.4121,2.4121,2.4121,2.4121,2.4121,2.4121,2.4121,2.4121,2.4121,2.4121,2.4121,2.4121,2.4243,2.4243,2.4121,2.4277,2.4263,2.4121,2.4121,2.4121,2.4121,2.4121,2.4121,2.4121,2.4121,2.4121,2.4121,2.4087,2.4066,2.4033,2.3734,2.3626,2.3578,2.3185,2.292,2.2764,2.2642,2.2479,2.2337,2.2337,2.2337,2.2337,2.2337,2.2337,2.2337,2.2337,2.2337,2.2337,2.2337,2.2337,2.2337,2.2337,2.2337,2.2337,2.2337,2.2425,1.9705,1.2419,0.4835,0.0,0.0,0.0,0.0,0.0,0.0,0.0,0.0,0.0,0.0,0.0,0.0,0.0,0.0,0.0,0.0,0.0,0.0,0.0,0.0,0.0,0.0,0.0,0.0,0.0,1.5308,1.3641,1.4014,1.495,1.5106,1.556,0.0,0.0,1.7724,1.8477,1.9115,1.9569,1.9698,2.0329,2.1001,2.155,2.2147,2.2642,2.294,2.313,2.3239,2.3239,2.3612,2.3931,2.4087,2.41,2.4121,2.4121,2.4121,2.4121,2.4121,2.4121,2.4121,2.4121,2.4121,2.4121,2.4121,2.4121,2.4121,2.4121,2.4141,2.4141,2.4121,2.4277,2.4263,2.4121,2.4121,2.4121,2.4121,2.4121,2.4121,2.4121,2.4121,2.4121,2.41,2.3965,2.391,2.3877,2.3571,2.347,2.3449,2.3259,2.3008,2.2784,2.2764,2.2567,2.2337,2.2337,2.2337,2.2337,2.2337,2.2337,2.2337,2.2337,2.2337,2.2337,2.2337,2.2337,2.2337,2.2337,2.2337,2.2337,2.2337,2.2425,1.9734,1.2214,0.4849,0.0,0.0,0.0,0.0,0.0,0.0,0.0,0.0,0.0,0.0,0.0,0.0,0.0,0.0,0.0,0.0,0.0,0.0,0.0,0.0,0.0,0.0,0.0,0.0,0.0,1.6306,1.5167,0.0,0.0,1.6673,1.7297,1.8409,1.8654,1.883,1.9501,1.9976,2.0349,2.0594,2.1055,2.153,0.0,2.2411,2.2764,2.2974,2.3063,2.3097,2.3097,2.3347,2.3592,2.3843,2.4012,2.4121,2.4121,2.4121,2.4121,2.4121,2.4121,2.4121,2.4121,2.4121,2.4121,2.4121,2.4121,2.4121,2.4121,2.4121,2.4121,2.4121,2.4189,2.4175,2.4121,2.4033,2.3978,2.3978,2.3978,2.3978,2.3999,2.4087,2.4066,2.3978,2.391,2.389,2.3856,2.3558,2.3449,2.3429,2.3273,2.3083,2.2907,2.2818,2.2642,2.2445,2.2357,2.2337,2.2337,2.2337,2.2337,2.2337,2.2337,2.2337,2.2337,2.2337,2.2337,2.2337,2.2337,2.2337,2.2337,2.2337,2.2425,1.9705,1.2449,0.4839,0.0,0.0,0.0,0.0,0.0,0.0,0.0,0.0,0.0,0.0,0.0,0.0,0.0,0.0,0.0,0.0,0.0,0.0,0.0,0.0,0.0,0.0,0.0,0.0,0.0,1.6518,0.0,0.0,1.7263,1.8091,1.885,1.9237,1.9488,1.9766,2.0241,2.0539,2.0824,2.1157,2.1496,2.1862,2.2269,2.2588,2.2832,2.2995,2.2974,2.292,2.2832,2.292,2.3083,2.3347,2.3788,2.4053,2.4053,2.41,2.4121,2.4121,2.4121,2.4121,2.4121,2.4121,2.4121,2.4121,2.4121,2.4121,2.4121,2.4121,2.4121,2.4121,2.4121,2.4121,2.4121,2.3999,2.3965,2.3965,2.3965,2.3965,2.3965,2.4033,2.3999,2.3877,2.3802,2.3768,2.3734,2.347,2.3381,2.3361,2.3259,2.313,2.2974,2.2832,2.2676,2.2534,2.2432,2.2391,2.2391,2.2391,2.2391,2.2391,2.2357,2.2337,2.2337,2.2337,2.2337,2.2337,2.2337,2.2337,2.2337,2.2337,2.2425,1.9687,1.24,0.483,0.0,0.0,0.0,0.0,0.0,0.0,0.0,0.0,0.0,0.0,0.0,0.0,0.0,0.0,0.0,0.0,0.0,0.0,0.0,0.0,0.0,0.0,0.0,0.0,0.0,0.0,0.0,1.7378,1.8267,1.9169,1.9976,2.058,2.0722,2.077,2.0933,2.1089,2.1197,2.1211,2.1584,2.1971,2.2289,2.2588,2.2832,2.2995,2.2886,2.2676,2.2391,2.2357,2.2425,0.0,2.3381,2.389,2.389,2.4033,2.4121,2.4121,2.4121,2.4121,2.4121,2.4121,2.4121,2.4121,2.4121,2.4121,2.4121,2.4121,2.4121,2.4121,2.4121,2.4121,2.4121,2.4121,2.4121,2.4121,2.4121,2.4121,2.41,2.3965,2.389,2.3856,2.3571,2.347,2.3436,2.3293,2.3219,2.3219,2.3219,2.313,2.2974,2.2832,2.2676,2.2554,2.2554,2.2554,2.2554,2.2554,2.2554,2.252,2.2378,2.2337,2.2337,2.2337,2.2337,2.2337,2.2337,2.2337,2.2337,2.2337,2.2425,1.9687,1.24,0.483,0.0,0.0,0.0,0.0,0.0,0.0,0.0,0.0,0.0,0.0,0.0,0.0,0.0,0.0,0.0,0.0,0.0,0.0,0.0,0.0,0.0,0.0,0.0,0.0,0.0,0.0,0.0,1.8443,1.9345,2.0031,2.0546,2.0858,2.0933,2.0933,2.098,2.0716,2.0539,2.0736,2.0804,2.1089,2.1774,2.2235,2.2601,2.2961,2.2961,2.271,2.2113,2.2303,0.0,0.0,0.0,0.0,2.3714,2.3802,2.391,2.41,2.4121,2.4121,2.4121,2.4121,2.4121,2.4121,2.4121,2.4121,2.4121,2.4121,2.4121,2.4121,2.4121,2.4121,2.4121,2.4012,2.3965,2.3965,2.3965,2.3965,2.3965,2.391,2.3843,2.3734,2.3524,2.3381,2.3293,2.3239,2.3219,2.3219,2.3219,2.3185,2.3117,2.2974,2.2907,2.2832,2.273,2.2622,2.2554,2.2554,2.2479,2.2391,2.2357,2.2337,2.2337,2.2337,2.2337,2.2337,2.2337,2.2337,2.2337,2.2337,2.2391,1.9954,1.2471,0.4865,0.3753,1.3968,0.6413,0.0,0.0,0.0,0.0,0.0,0.0,0.0,0.0,0.0,0.0,0.0,0.0,0.0,0.0,0.0,0.0,0.0,0.0,0.0,0.0,0.0,0.0,1.8023,1.8782,1.9447,2.0295,2.0804,2.1109,2.1143,2.1123,2.1055,2.0946,2.0404,1.9976,2.0119,1.9888,2.0051,2.1177,2.1638,2.2113,2.2832,2.2798,2.2479,2.195,2.1991,2.2004,0.0,0.0,0.0,2.3449,2.3612,2.3788,2.4033,2.4087,2.4121,2.4121,2.4121,2.4121,2.4121,2.4121,2.4121,2.4121,2.4121,2.4121,2.4121,2.4121,2.4121,2.4121,2.4012,2.3978,2.3978,2.3978,2.3978,2.3965,2.3856,2.3768,2.3666,2.3449,2.3347,2.3293,2.3239,2.3219,2.3219,2.3219,2.3219,2.3185,2.3049,2.3008,2.2995,2.2886,2.2798,2.271,2.271,2.2608,2.2479,2.2432,2.2411,2.2411,2.2411,2.2466,2.2479,2.2432,2.2411,2.2411,2.2411,2.2547,1.9859,1.2557,0.9793,1.1027,1.8099,1.2853,0.6126,0.0581,0.0,0.0,0.0,0.0,0.0,0.0,0.0,0.0,0.0,0.0,0.0,0.0,0.0,0.0,0.0,0.0,0.0,0.0,0.0,0.0,1.8952,1.9712,2.0349,2.1068,2.1462,2.1638,2.1475,2.1319,2.1109,2.079,2.0105,1.9501,0.0,0.0,1.8993,2.0458,2.0892,2.1462,2.2622,2.2432,2.2093,0.0,0.0,0.0,0.0,0.0,0.0,2.3117,0.0,2.3714,2.389,2.4033,2.4121,2.4121,2.4121,2.4121,2.4121,2.4121,2.4121,2.4121,2.4121,2.4121,2.4121,2.4121,2.4121,2.4121,2.4121,2.4121,2.4121,2.4121,2.4121,2.4087,2.3802,2.368,2.3646,2.3347,2.3327,2.3415,2.3273,2.3219,2.3239,2.3219,2.3219,2.3205,2.3063,2.3029,2.3029,2.3008,2.3008,2.2995,2.2995,2.2886,2.273,2.2588,2.2554,2.2574,2.2574,2.2676,2.2744,2.2588,2.2574,2.2574,2.2574,2.2576,2.018,1.3232,1.8576,2.043,1.3071,1.8734,1.759,0.2908,0.0583,0.0,0.0,0.0,0.0,0.0,0.0,0.0,0.0,0.0,0.0,0.0,0.0,0.0,0.0,0.0,0.0,0.0,0.0,0.0,2.0051,2.0736,2.1231,2.176,2.1774,2.1638,2.1475,2.1157,2.0702,2.0064,1.8993,1.807,0.0,0.0,0.0,1.959,2.0845,0.0,2.2676,2.2784,0.0,0.0,0.0,2.1984,2.1848,2.1937,0.0,0.0,2.3083,2.3381,2.3877,2.4033,2.4121,2.4121,2.4121,2.4121,2.4121,2.4121,2.4121,2.4121,2.4121,2.4121,2.4121,2.4121,2.4121,2.4121,2.4121,2.4121,2.4121,2.4121,2.4121,2.41,2.391,2.3768,2.3666,2.347,2.3347,2.3273,2.3239,2.3293,2.3381,2.3259,2.3219,2.3219,2.3185,2.3171,2.3151,2.3042,2.292,2.2818,2.2696,2.2642,2.2608,2.2574,2.2642,2.273,2.273,2.2744,2.2764,2.273,2.273,2.273,2.273,2.265,2.22,2.0424,2.1781,2.2506,2.0424,2.1972,2.1757,1.7657,0.7016,0.0,0.0,0.0,0.0,0.0,0.0,0.0,0.0,0.0,0.0,0.0,0.0,0.0,0.0,0.0,0.0,0.0,0.0,0.0,2.1068,2.1638,2.1971,2.216,2.1991,2.1584,2.0912,2.0404,1.9766,1.862,1.7521,0.0,0.0,0.0,0.0,0.0,0.0,0.0,2.2642,2.2798,2.271,0.0,2.2378,0.0,2.2181,2.2255,2.25,0.0,2.3063,2.3307,2.3768,2.3999,2.4121,2.4121,2.4121,2.4121,2.4121,2.4121,2.4121,2.4121,2.4121,2.4121,2.4121,2.4121,2.4121,2.4121,0.0,2.4121,2.4121,2.4121,2.4121,2.41,2.3944,2.3843,2.3754,2.3612,2.3503,2.3415,2.3347,2.3381,2.3429,2.3273,2.3219,2.3219,2.3219,2.3219,2.3205,2.313,2.3042,2.2961,2.2873,2.2798,2.2744,2.2744,2.2818,2.2886,2.2886,2.292,2.2961,2.2886,2.2886,2.2886,2.2886,2.3029,2.313,2.3117,2.3219,2.3327,2.3072,1.7204,1.5776,2.2378,0.9376,0.0,0.0,0.0,0.0,0.0,0.0,0.0,0.0,0.0,0.0,0.0,0.0,0.0,0.0,0.0,0.0,0.0,0.0,0.0,2.1971,2.2391,2.2554,2.2425,2.2127,2.1509,2.0173,1.9447,1.8586,1.6944,0.0,1.5418,1.5289,1.5588,1.6483,1.8409,0.0,2.1089,2.2567,2.2662,2.2642,2.2798,2.2567,2.2445,2.2574,2.2588,2.2764,2.3185,2.3239,2.3381,2.37,2.3965,2.4121,2.4121,2.4121,2.4121,2.4121,2.4121,2.4121,2.4121,2.4121,2.4121,2.4121,2.4121,2.4121,2.4121,2.4121,2.4121,2.4121,2.4121,2.4121,2.41,2.3978,2.391,2.3877,2.3754,2.37,2.3666,2.3524,2.347,2.3429,2.3273,2.3219,2.3219,2.3219,2.3219,2.3219,2.3205,2.3185,2.3185,2.3171,2.3083,2.3008,2.3008,2.3029,2.3042,2.3042,2.313,2.3185,2.3063,2.3042,2.3042,2.3042,2.313,2.3219,2.3219,2.3219,2.3239,2.3307,1.0734,0.6975,2.0175,1.0555,0.236,0.0297,0.0,0.0,0.0,0.0,0.0,0.0,0.0,0.0,0.0,0.0,0.0,0.0,0.0,0.0,0.0,0.0,0.0,2.252,2.271,2.273,2.271,2.2201,2.1387,2.0153,1.9047,0.0,0.0,1.514,1.4523,1.4496,1.5242,1.6449,1.8267,0.0,0.0,0.0,0.0,2.2798,0.0,0.0,0.0,0.0,0.0,0.0,0.0,0.0,2.3537,2.3843,2.4033,2.4121,2.4121,2.4121,2.4121,2.4121,2.4121,2.4121,2.4121,2.4121,2.4121,2.4121,2.4121,2.4121,2.4121,2.4121,0.0,2.4121,2.4121,2.4121,2.4121,2.4087,2.3999,2.389,2.3856,2.3788,2.368,2.3646,2.3558,2.3429,2.3273,2.3219,2.3219,2.3219,2.3219,2.3205,2.3083,2.3042,2.3008,2.2886,2.294,2.3008,2.3008,2.3097,2.3185,2.3185,2.3205,2.3219,2.3185,2.3185,2.3185,2.3185,2.3205,2.3219,2.3219,2.3219,2.3239,2.3307,1.7123,1.3098,1.3862,1.7394,1.4209,0.1202,0.0,0.0,0.0,0.0,0.0,0.0,0.0,0.0,0.0,0.0,0.0,0.0,0.0,0.0,0.0,0.0,0.0,2.2818,2.3008,2.3083,2.2832,2.2167,2.1089,1.9345,0.0,0.0,0.0,1.3777,1.339,1.3464,1.4401,0.0,1.7026,1.8389,1.9875,0.0,0.0,0.0,0.0,0.0,0.0,0.0,0.0,0.0,0.0,0.0,2.3666,2.3877,2.4033,2.4121,2.4121,2.4121,2.4121,2.4121,2.4121,2.4121,2.4121,2.4121,2.4121,2.4121,2.4121,2.4121,2.4121,2.4121,0.0,2.4121,2.4033,2.4053,2.4121,2.4033,2.3999,2.4012,2.4012,2.391,2.3788,2.3788,2.3646,2.3436,2.3361,2.3293,2.3219,2.3219,2.3219,2.3205,2.313,2.3117,2.3097,2.3029,2.3063,2.3117,2.3117,2.3171,2.3219,2.3219,2.3219,2.3219,2.3219,2.3219,2.3219,2.3219,2.3219,2.3219,2.3219,2.3219,2.3239,2.3253,2.118,1.9226,1.8263,2.162,2.084,1.292,0.4808,0.0,0.0,0.0,0.0,0.0,0.0,0.0,0.0,0.0,0.0,0.0,0.0,0.0,0.0,0.0,0.0,2.3042,2.3273,2.3347,2.294,2.2079,2.077,1.8552,1.7046,0.0,0.0,1.2623,1.2461,1.2651,1.3526,1.4618,0.0,1.6958,1.843,2.0594,2.1109,0.0,0.0,0.0,0.0,0.0,0.0,0.0,0.0,0.0,0.0,2.3931,2.4053,2.4121,2.4121,2.4121,2.4121,2.4121,2.4121,2.4121,2.4121,2.4121,2.4121,2.4121,2.4121,2.4121,2.4121,2.4121,0.0,2.41,2.3965,2.3978,2.41,2.3944,2.3978,2.4121,2.4121,2.4053,2.3944,2.3944,2.3748,2.3503,2.3503,2.3381,2.3219,2.3219,2.3219,2.3219,2.3219,2.3219,2.3219,2.3219,2.3219,2.3219,2.3219,2.3219,2.3219,2.3219,2.3219,2.3219,2.3219,2.3219,2.3219,2.3219,2.3219,2.3219,2.3219,2.3219,2.3219,2.3219,2.3259,2.3347,2.3558,2.3734,2.391,2.3816,1.2359,0.3622,0.0301,0.0,0.0,0.0,0.0,0.0,0.0,0.0,0.0,0.0,0.0,0.0,0.0,0.0,0.0,2.3293,2.3429,2.3381,2.3063,2.2004,2.0492,1.8375,0.0,0.0,1.2949,1.2311,1.2189,1.2467,1.2949,1.3865,1.5594,0.0,1.788,2.0261,2.1068,2.1828,2.2907,0.0,0.0,0.0,0.0,0.0,0.0,0.0,0.0,2.4087,2.4121,2.4121,2.4121,2.4121,2.4121,2.4121,2.4121,2.4121,2.4121,2.4121,2.4121,2.4121,2.4121,2.4121,2.4121,2.4121,0.0,0.0,2.3965,2.3978,2.41,2.3944,2.3978,2.4121,2.4121,2.41,2.41,2.41,2.391,2.3666,2.3666,2.347,2.3219,2.3219,2.3219,2.3219,2.3219,2.3219,2.3219,2.3219,2.3219,2.3219,2.3219,2.3219,2.3219,2.3219,2.3219,2.3219,2.3219,2.3219,2.3219,2.3219,2.3219,2.3219,2.3219,2.3219,2.3219,2.3219,2.3347,2.3503,2.3434,2.3467,2.3608,2.3936,2.2799,1.5476,0.0908,0.0,0.0,0.0,0.0,0.0,0.0,0.0,0.0,0.0,0.0,0.0,0.0,0.0,0.0,2.3117,2.3449,2.347,2.2995,2.1862,2.0329,1.8321,0.0,1.4645,1.2868,1.2121,1.1857,1.206,1.2318,1.2915,1.4177,1.4631,1.5689,1.8179,1.8972,1.9976,2.1848,0.0,0.0,0.0,0.0,0.0,0.0,0.0,0.0,2.41,2.4121,2.4121,2.4121,2.4033,2.3978,2.3978,2.389,2.389,2.3978,2.389,2.389,2.3978,2.389,2.3856,2.3856,2.3856,0.0,0.0,2.3822,2.391,2.41,2.3944,2.3931,2.3978,2.3978,2.3931,2.3877,2.3944,2.3788,2.3558,2.3646,2.347,2.3219,2.3219,2.3219,2.3219,2.3219,2.3219,2.3219,2.3219,2.3219,2.3219,2.3219,2.3219,2.3219,2.3219,2.3219,2.3219,2.3219,2.3219,2.3219,2.3219,2.3219,2.3219,2.3219,2.3219,2.3239,2.3273,2.3119,2.328,2.3748,2.3554,2.3728,2.4023,2.4077,1.7311,0.0909,0.0,0.0,0.0,0.0,0.0,0.0,0.0,0.0,0.0,0.0,0.0,0.0,0.0,0.0,2.3142,2.5057,2.6549,2.4858,2.3221,2.1726,1.9714,1.702,1.4387,1.2827,1.2067,1.1714,1.1816,1.1918,1.2244,1.301,1.3397,1.4394,1.6673,1.7494,1.862,2.0668,0.0,0.0,0.0,0.0,0.0,0.0,0.0,0.0,2.41,2.4087,2.4066,2.4121,2.3931,2.3856,2.389,2.3754,2.3734,2.3822,2.3734,2.3734,2.3822,2.3734,2.368,2.368,2.368,2.3768,0.0,2.3734,2.3856,2.41,2.391,2.3856,2.389,2.3843,2.3768,2.37,2.3788,2.366,2.347,2.3571,2.3436,2.3219,2.3219,2.3219,2.3219,2.3219,2.3219,2.3219,2.3219,2.3219,2.3219,2.3219,2.3219,2.3219,2.3219,2.3219,2.3219,2.3219,2.3219,2.3219,2.3219,2.3219,2.3219,2.3219,2.3239,2.3273,2.3072,2.1131,2.0685,2.3266,2.3728,2.2958,2.0641,1.8223,1.2144,0.0608,0.0,0.0,0.0,0.0,0.0,0.0,0.0,0.0,0.0,0.0,0.0,0.0,0.0,0.0,2.3705,2.8454,3.3273,2.8966,2.6497,2.4885,2.2987,1.8435,1.4129,1.2779,1.2142,1.183,1.183,1.183,1.1986,1.2433,1.3383,1.4638,1.6293,1.7297,1.8321,0.0,0.0,0.0,0.0,0.0,0.0,0.0,0.0,0.0,2.41,2.3978,2.3965,2.4121,2.3843,2.3754,2.389,2.3754,2.368,2.368,2.368,2.368,2.368,2.368,2.368,2.368,2.368,2.3768,0.0,2.3734,2.3856,2.4087,2.3802,2.3768,2.3877,2.3734,2.368,2.368,2.368,2.3571,2.3449,2.3449,2.3347,2.3219,2.3219,2.3219,2.3219,2.3219,2.3219,2.3219,2.3219,2.3219,2.3219,2.3219,2.3219,2.3219,2.3219,2.3219,2.3219,2.3219,2.3219,2.3219,2.3219,2.3219,2.3219,2.3219,2.3273,2.3072,2.3219,1.6514,1.4563,2.2297,2.3696,2.096,1.2964,0.4837,0.0304,0.0,0.0,0.0,0.0,0.0,0.0,0.0,0.0,0.0,0.0,0.0,0.0,0.0,0.0,0.0,2.0574,2.2684,2.4158,2.2353,2.0982,1.9923,1.8447,1.6145,1.4041,1.2895,1.2298,1.1959,1.185,1.183,1.2244,1.3526,1.4014,1.4767,1.6307,0.0,0.0,1.9115,0.0,0.0,0.0,0.0,0.0,0.0,0.0,0.0,2.3965,2.3822,2.3822,2.3965,2.368,2.3537,2.3592,2.3436,2.3415,2.3524,2.3415,2.3415,2.3524,2.3415,2.3361,2.3361,2.3361,2.3503,2.3734,2.3592,2.37,2.3944,2.3754,2.3646,2.3592,2.3537,2.3449,2.3381,2.3483,2.3415,2.3307,2.3415,2.3347,2.3219,2.3219,2.3219,2.3219,2.3219,2.3219,2.3219,2.3219,2.3219,2.3219,2.3219,2.3219,2.3259,2.3361,2.3293,2.3259,2.3361,2.3293,2.3219,2.3219,2.3219,2.3219,2.3219,2.3072,2.1409,1.584,1.7825,2.0433,2.2945,2.3729,1.8571,0.484,0.1519,0.0,0.0,0.0,0.0,0.0,0.0,0.0,0.0,0.0,0.0,0.0,0.0,0.0,0.0,0.0,0.0,1.8816,2.1624,2.3504,2.146,2.0252,1.9341,1.8122,1.5896,1.3858,1.2922,1.242,1.2101,1.1945,1.25,1.3151,1.3453,1.4458,1.5348,0.0,0.0,0.0,0.0,0.0,0.0,0.0,0.0,0.0,0.0,0.0,0.0,2.3802,2.368,2.3626,2.3714,2.3483,2.3395,2.3449,2.3293,2.3273,2.3361,2.3273,2.3273,2.3361,2.3259,2.3259,2.3307,2.3239,2.3395,0.0,2.3524,2.3592,2.3802,2.3646,2.3537,2.3449,2.3381,2.3307,2.3239,2.3327,2.3307,2.3239,2.3327,2.3293,2.3219,2.3219,2.3219,2.3239,2.3293,2.3307,2.3307,2.3307,2.3307,2.3293,2.3239,2.3219,2.3239,2.3347,2.3327,2.3327,2.3361,2.3327,2.3293,2.3239,2.3219,2.3239,2.3293,2.3152,2.0327,1.269,1.3126,1.4442,1.4471,1.4863,1.3385,0.9443,0.3358,0.0,0.0,0.0,0.0,0.0,0.0,0.0,0.0,0.0,0.0,0.0,0.0,0.0,0.0,0.0,0.0,0.0,2.3535,2.8009,2.4349,2.2665,2.1581,2.0455,1.6931,0.0,1.2868,1.2488,1.225,1.2121,1.369,1.43,1.2512,1.4655,0.0,0.0,0.0,0.0,0.0,0.0,0.0,0.0,0.0,0.0,0.0,0.0,0.0,2.3666,2.3524,2.3449,2.3436,2.3293,2.3293,2.3429,2.3293,2.3219,2.3219,2.3219,2.3219,2.3219,2.3219,2.3293,0.0,2.3293,2.3395,2.3646,2.3503,2.3524,2.3646,2.3483,2.3436,2.3415,2.3273,2.3219,2.3219,2.3219,2.3219,2.3219,2.3219,2.3219,2.3219,2.3219,2.3219,2.3259,2.3395,2.3436,2.3436,2.3449,2.3449,2.3395,2.3273,2.3219,2.3219,2.3239,2.3347,2.3415,2.3273,2.3361,2.3415,2.3273,2.3259,2.3307,2.3449,2.3273,2.0445,1.2535,0.479,0.0,0.0,0.0,0.6081,2.1247,0.858,0.0,0.0,0.0,0.0,0.0,0.0,0.0,0.0,0.0,0.0,0.0,0.0,0.0,0.0,0.0,0.0,1.4977,0.0,1.8325,1.7173,1.6545,1.6044,0.0,1.4295,1.3322,0.0,0.0,1.2311,1.2386,1.3845,1.4742,1.4069,1.6087,0.0,0.0,0.0,0.0,0.0,0.0,0.0,0.0,0.0,0.0,0.0,0.0,2.347,2.3503,2.347,2.3395,2.3273,2.3239,2.3239,2.3273,2.3239,2.3219,2.3219,2.3219,2.3219,2.3219,2.3219,2.3239,2.3273,2.3239,2.3327,2.3483,2.3347,2.3361,2.3483,2.3327,2.3273,2.3273,2.3239,2.3219,2.3219,2.3219,2.3219,2.3219,2.3219,2.3219,2.3219,2.3219,2.3219,2.3219,2.3259,2.3273,2.3307,2.3415,2.3361,2.3293,2.3381,2.3307,2.3259,2.3381,2.3429,2.347,2.3558,2.3612,2.3612,2.3578,2.3578,2.3592,2.3626,2.3521,2.0644,1.2542,0.4812,0.0,0.0,0.0,0.1519,0.5198,0.215,0.0,0.0,0.0,0.0,0.0,0.0,0.0,0.0,0.0,0.0,0.0,0.0,0.0,0.0,0.0,0.0,1.3722,1.4306,1.4835,1.4658,1.4455,1.4197,1.3817,0.0,0.0,0.0,0.0,0.0,1.2284,0.0,0.0,0.0,0.0,0.0,0.0,0.0,0.0,0.0,0.0,0.0,0.0,0.0,0.0,0.0,0.0,2.3347,2.3347,2.3347,2.3307,2.3219,2.3219,2.3219,2.3219,2.3219,2.3219,2.3219,2.3219,2.3219,2.3219,2.3219,2.3259,0.0,2.3259,2.3307,2.3436,2.3293,2.3273,2.3347,2.3259,2.3219,2.3219,2.3219,2.3219,2.3219,2.3219,2.3219,2.3219,2.3219,2.3219,2.3219,2.3219,2.3219,2.3239,2.3307,2.3327,2.3361,2.3524,2.3483,2.3436,2.3449,2.3381,2.3327,2.3347,2.3449,2.3558,2.3571,2.368,2.3754,2.37,2.368,2.37,2.3768,2.3641,2.0738,1.2898,0.4826,0.0,0.0,0.0,0.0,0.0,0.0,0.0,0.0,0.0,0.0,0.0,0.0,0.0,0.0,0.0,0.0,0.0,0.0,0.0,0.0,0.0,0.0,1.341,1.396,1.4489,1.4875,1.4907,1.4653,1.4288,0.0,0.0,0.0,0.0,0.0,0.0,0.0,0.0,0.0,0.0,0.0,0.0,0.0,0.0,0.0,0.0,0.0,0.0,0.0,0.0,0.0,0.0,2.3219,2.3219,2.3219,2.3219,2.3219,2.3219,2.3219,2.3219,2.3219,2.3219,2.3219,2.3219,2.3219,2.3219,2.3219,2.3293,2.3415,0.0,0.0,2.3395,2.3273,2.3219,2.3219,2.3219,2.3219,2.3219,2.3219,2.3219,2.3219,2.3219,2.3219,2.3219,2.3219,2.3219,2.3219,2.3219,2.3219,2.3259,2.3381,2.3415,2.3449,2.3612,2.3646,2.3612,2.3503,2.347,2.3415,2.3307,2.3503,2.3646,2.3537,2.3734,2.389,2.3768,2.3754,2.3788,2.391,2.3728,2.1083,1.3257,0.5135,0.0,0.0,0.0,0.0,0.0,0.0,0.0,0.0,0.0,0.0,0.0,0.0,0.0,0.0,0.0,0.0,0.0,0.0,0.0,0.0,0.0,0.0,1.3634,1.4048,1.4738,1.6061,1.6438,1.6454,1.595,0.0,0.0,0.0,0.0,0.0,0.0,0.0,0.0,0.0,0.0,0.0,0.0,0.0,0.0,0.0,0.0,0.0,0.0,0.0,0.0,0.0,0.0,2.3219,2.3219,2.3219,2.3219,2.3219,2.3219,2.3219,2.3219,2.3219,2.3219,2.3219,2.3219,2.3219,2.3219,2.3219,2.3239,2.3259,0.0,2.3239,2.3259,2.3239,2.3219,2.3219,2.3219,2.3219,2.3219,2.3219,2.3219,2.3219,2.3219,2.3219,2.3219,2.3219,2.3219,2.3219,2.3219,2.3219,2.3219,2.3259,2.3259,2.3293,2.3449,2.3483,2.3524,2.3626,2.3537,2.3483,2.3592,2.3646,2.3714,2.3802,2.3965,2.4087,2.4053,2.4053,2.4066,2.4087,2.4189,2.119,1.3269,0.5135,0.0,0.0,0.0,0.0,0.0,0.0,0.0,0.0,0.0,0.0,0.0,0.0,0.0,0.0,0.0,0.0,0.0,0.0,0.0,0.0,0.0,0.0,1.3193,1.358,1.4435,1.6592,1.6586,1.5911,0.0,0.0,0.0,0.0,0.0,0.0,0.0,0.0,0.0,0.0,0.0,0.0,0.0,0.0,0.0,0.0,0.0,0.0,0.0,0.0,0.0,0.0,0.0,0.0,2.3219,2.3219,2.3219,2.3219,2.3219,2.3219,2.3219,2.3219,2.3219,2.3219,2.3219,2.3219,2.3219,2.3219,2.3219,2.3219,0.0,2.3219,2.3219,2.3219,2.3219,2.3219,2.3219,2.3219,2.3219,2.3219,2.3219,2.3219,2.3219,2.3219,2.3219,2.3219,2.3219,2.3219,2.3219,2.3219,2.3219,2.3219,2.3219,2.3259,2.3415,2.3503,2.3592,2.3666,2.368,2.368,2.368,2.3734,2.3822,2.3877,2.3944,2.4012,2.41,2.4053,2.4033,2.41,2.4223,2.1208,1.3269,0.5135,0.0,0.0,0.0,0.0,0.0,0.0,0.0,0.0,0.0,0.0,0.0,0.0,0.0,0.0,0.0,0.0,0.0,0.0,0.0,0.0,0.0,0.0,1.3037,1.3356,1.4131,1.6362,0.0,1.5554,0.0,0.0,0.0,0.0,0.0,0.0,0.0,0.0,0.0,0.0,0.0,0.0,0.0,0.0,0.0,0.0,0.0,0.0,0.0,0.0,0.0,0.0,0.0,0.0,2.3219,2.3219,2.3219,2.3219,2.3219,2.3205,2.3171,2.3171,2.3185,2.3219,2.3219,2.3219,2.3219,2.3219,2.3219,2.3219,2.3219,2.3219,2.3219,2.3219,2.3219,2.3219,2.3219,2.3219,2.3219,2.3219,2.3219,2.3219,2.3219,2.3219,2.3219,2.3219,2.3219,2.3219,2.3219,2.3219,2.3219,2.3219,2.3219,2.3259,2.3361,2.3503,2.3626,2.368,2.3768,2.3843,2.3788,2.3843,2.391,2.3944,2.3944,2.3978,2.41,2.4012,2.3978,2.41,2.4223,2.1208,1.3269,0.5135,0.0,0.0,0.0,0.0,0.0,0.0,0.0,0.0,0.0,0.0,0.0,0.0,0.0,0.0,0.0,0.0,0.0,0.0,0.0,0.0,0.0,0.0,1.3824,1.3899,1.3966,1.4737,0.0,0.0,0.0,0.0,0.0,0.0,0.0,0.0,0.0,0.0,0.0,0.0,0.0,0.0,0.0,0.0,0.0,0.0,0.0,0.0,0.0,0.0,0.0,0.0,0.0,0.0,2.3219,2.3219,2.3219,2.3219,2.3219,2.3151,2.3029,2.3029,2.3097,2.3219,2.3219,2.3219,2.3219,2.3219,2.3219,2.3219,2.3219,2.3219,2.3219,2.3219,2.3219,2.3219,2.3219,2.3219,2.3219,2.3219,2.3219,2.3219,2.3219,2.3219,2.3219,2.3219,2.3219,2.3219,2.3219,2.3219,2.3219,2.3219,2.3219,2.3219,2.3239,2.3347,2.3503,2.3646,2.368,2.3768,2.4033,2.3978,2.3931,2.4066,2.41,2.41,2.4121,2.41,2.41,2.4121,2.4223,2.1208,1.3269,0.5135,0.0,0.0,0.0,0.0,0.0,0.0,0.0,0.0,0.0,0.0,0.0,0.0,0.0,0.0,0.0,0.0,0.0,0.0,0.0,0.0,0.0,0.0,1.32,1.3532,1.4007,1.4706,0.0,0.0,0.0,0.0,0.0,0.0,0.0,0.0,0.0,0.0,0.0,0.0,0.0,0.0,0.0,0.0,0.0,0.0,0.0,0.0,0.0,0.0,0.0,0.0,2.3008,2.294,2.294,2.294,2.294,2.294,2.294,2.292,2.2873,2.2873,2.2886,2.294,2.294,2.2995,2.3097,2.3097,2.3097,2.3097,2.3185,2.3219,2.3219,2.3219,2.3219,2.3219,2.3219,2.3219,2.3219,2.3219,2.3219,2.3219,2.3219,2.3219,2.3219,2.3219,2.3219,2.3219,2.3219,2.3219,2.3219,2.3219,2.3219,2.3219,2.3219,2.3327,2.3483,2.3646,2.3754,2.3877,2.4066,2.4066,2.4053,2.41,2.4053,2.4012,2.41,2.4053,2.4012,2.41,2.4223,2.1208,1.3269,0.5135,0.0,0.0,0.0,0.0,0.0,0.0,0.0,0.0,0.0,0.0,0.0,0.0,0.0,0.0,0.0,0.0,0.0,0.0,0.0,0.0,0.0,0.0,1.315,1.3802,0.0,0.0,0.0,0.0,0.0,0.0,0.0,0.0,0.0,0.0,0.0,0.0,0.0,0.0,0.0,0.0,0.0,0.0,0.0,0.0,0.0,0.0,0.0,0.0,0.0,2.294,2.2832,2.2784,2.2784,2.2784,2.2784,2.2784,2.2784,2.2764,2.271,2.271,2.271,2.271,2.2656,2.2744,2.294,2.294,2.2961,2.3008,2.3063,2.313,2.3219,2.3171,2.3185,2.3219,2.3219,2.3219,2.3219,2.3219,2.3219,2.3219,2.3219,2.3219,2.3219,2.3219,2.3219,2.3219,2.3219,2.3219,2.3219,2.3219,2.3219,2.3219,2.3219,2.3293,2.3415,2.3571,2.368,2.3802,2.3999,2.4053,2.4066,2.41,2.4033,2.3999,2.41,2.4033,2.3999,2.41,2.4223,2.1208,1.3269,0.5135,0.0,0.0,0.0,0.0,0.0,0.0,0.0,0.0,0.0,0.0,0.0,0.0,0.0,0.0,0.0,0.0,0.0,0.0,0.0,0.0,0.0,0.0,1.413,0.0,0.0,0.0,0.0,0.0,0.0,0.0,0.0,0.0,0.0,0.0,0.0,0.0,0.0,0.0,0.0,0.0,0.0,0.0,0.0,0.0,0.0,0.0,0.0,2.292,2.294,2.2798,2.2784,2.2784,2.2784,2.2784,2.2784,2.2784,2.2784,2.271,2.2554,2.2554,2.2554,2.2554,2.2411,2.25,2.2784,2.2784,2.2873,2.2995,2.2852,2.294,2.3205,2.3063,2.3097,2.3219,2.3219,2.3219,2.3219,2.3219,2.3219,2.3219,2.3219,2.3219,2.3219,2.3219,2.3219,2.3219,2.3219,2.3219,2.3219,2.3219,2.3219,2.3219,2.3219,2.3219,2.3259,2.3415,2.3449,2.3537,2.3822,2.389,2.3944,2.4087,2.4121,2.4121,2.4121,2.4121,2.4121,2.4121,2.4223,2.1208,1.2964,0.4833,0.0,0.0,0.0,0.0,0.0,0.0,0.0,0.0,0.0,0.0,0.0,0.0,0.0,0.0,0.0,0.0,0.0,0.0,0.0,0.0,0.0,0.0,1.3095,0.0,0.0,0.0,0.0,0.0,0.0,0.0,0.0,0.0,0.0,0.0,0.0,0.0,0.0,0.0,0.0,0.0,0.0,0.0,2.2588,2.2696,2.2798,2.2873,2.294,2.2784,2.2676,2.2622,2.2534,2.2466,2.2466,2.2466,2.2466,2.2466,2.2466,2.2445,2.2411,2.2411,2.2411,2.2411,2.2357,2.2445,2.2622,2.2622,2.2642,2.2696,2.2744,2.2832,2.292,2.2974,2.3097,2.3219,2.3219,2.3219,2.3219,2.3219,2.3219,2.3219,2.3219,2.3219,2.3219,2.3219,2.3219,2.3219,2.3219,2.3219,2.3219,2.3219,2.3219,2.3219,2.3219,2.3307,2.3395,2.3436,2.3537,2.3666,2.3856,2.3978,2.4066,2.41,2.4121,2.4121,2.4121,2.4121,2.4121,2.4121,2.4223,1.9091,0.5441,0.1514,0.0,0.0,0.0,0.0,0.0,0.0,0.0,0.0,0.0,0.0,0.0,0.0,0.0,0.0,0.0,0.0,0.0,0.0,0.0,0.0,0.0,0.0,0.0,0.0,0.0,0.0,0.0,0.0,0.0,0.0,0.0,0.0,0.0,0.0,0.0,0.0,0.0,0.0,0.0,0.0,0.0,2.252,2.2656,2.2696,2.2744,2.2798,2.2818,2.2656,2.2534,2.2466,2.2445,2.2432,2.2432,2.2432,2.2432,2.2432,2.2378,2.2337,2.2337,2.2337,2.2337,2.2337,2.2337,2.2391,2.2466,2.2466,2.25,2.2554,2.271,2.2744,2.271,2.292,2.3063,2.3151,2.3205,2.3219,2.3219,2.3219,2.3219,2.3219,2.3219,2.3219,2.3219,2.3219,2.3219,2.3219,2.3219,2.3219,2.3239,2.3293,2.3307,2.3327,2.3381,2.347,2.3524,2.347,2.3571,2.3714,2.3856,2.3965,2.4053,2.41,2.4121,2.4121,2.4121,2.4121,2.4121,2.4121,2.1454,1.4516,0.1817,0.0,0.0,0.0,0.0,0.0,0.0,0.0,0.0,0.0,0.0,0.0,0.0,0.0,0.0,0.0,0.0,0.0,0.0,0.0,0.0,0.0,0.0,0.0,0.0,0.0,0.0,0.0,0.0,0.0,0.0,0.0,0.0,0.0,0.0,0.0,0.0,0.0,0.0,0.0,0.0,0.0,0.0,2.2608,2.273,2.2608,2.2696,2.271,2.2588,2.2554,2.25,2.2378,2.25,2.2574,2.2574,2.2574,2.2574,2.2554,2.2432,2.2357,2.2337,2.2337,2.2337,2.2337,2.2337,2.2337,2.2337,2.2337,2.2411,2.2554,2.271,2.271,2.2622,2.2886,2.3008,2.3042,2.3171,2.3219,2.3219,2.3219,2.3219,2.3219,2.3219,2.3219,2.3219,2.3239,2.3239,2.3239,2.3259,2.3259,2.3293,2.3436,2.347,2.3503,2.3646,2.37,2.3666,2.3524,2.3592,2.3734,2.3856,2.391,2.3965,2.4087,2.4121,2.4121,2.4121,2.4121,2.4121,2.4141,1.7176,0.9052,0.0908,0.0,0.0,0.0,0.0,0.0,0.0,0.0,0.0,0.0,0.0,0.0,0.0,0.0,0.0,0.0,0.0,0.0,0.0,0.0,0.0,0.0,0.0,0.0,0.0,0.0,0.0,0.0,0.0,0.0,0.0,0.0,0.0,0.0,0.0,0.0,0.0,0.0,0.0,2.2764,2.2466,2.2696,2.2696,2.2744,2.2818,2.2907,2.273,2.2642,2.273,2.2622,2.2534,2.252,2.2642,2.273,2.273,2.273,2.2676,2.2554,2.252,2.2445,2.2337,2.2337,2.2337,2.2337,2.2337,2.2337,2.2337,2.2337,2.2411,2.2554,2.271,2.2832,2.292,2.2974,2.3083,2.3185,2.3205,2.3219,2.3219,2.3219,2.3219,2.3219,2.3219,2.3219,2.3239,2.3361,2.3395,2.3415,2.3537,2.3578,2.3592,2.3626,2.3626,2.3646,2.368,2.3768,2.3843,2.3802,2.3822,2.3856,2.389,2.3978,2.4087,2.4121,2.4121,2.4121,2.4121,2.4121,2.4155,2.4243,1.7215,0.9052,0.0908,0.0,0.0,0.0,0.0,0.0,0.0,0.0,0.0,0.0,0.0,0.0,0.0,0.0,0.0,0.0,0.0,0.0,0.0,0.0,0.0,0.0,0.0,0.0,0.0,0.0,0.0,0.0,0.0,0.0,0.0,0.0,0.0,0.0,0.0,0.0,0.0,2.8103,2.4827,2.2737,2.2642,2.2784,2.2784,2.2907,2.2995,2.3008,2.2873,2.2798,2.2886,2.2744,2.2662,2.2662,2.2798,2.2886,2.2886,2.2886,2.2818,2.2662,2.2588,2.2479,2.2337,2.2337,2.2337,2.2337,2.2337,2.2337,2.2337,2.2411,2.2479,2.2554,2.271,2.2832,2.2907,2.2974,2.3049,2.313,2.3185,2.3219,2.3219,2.3219,2.3273,2.3327,2.3327,2.3327,2.3361,2.3503,2.3503,2.3483,2.3626,2.368,2.37,2.3768,2.3788,2.3802,2.3877,2.3944,2.3999,2.3999,2.3999,2.3999,2.3999,2.4066,2.4121,2.4121,2.4121,2.4121,2.4121,2.4121,2.4155,2.3976,1.7224,0.9052,0.0908,0.0,0.0,0.0,0.0,0.0,0.0,0.0,0.0,0.0,0.0,0.0,0.0,0.0,0.0,0.0,0.0,0.0,0.0,0.0,0.0,0.0,0.0,0.0,0.0,0.0,0.0,0.0,0.0,0.0,0.0,0.0,0.0,0.0,0.0,2.6621,3.1944,2.7969,2.3468,2.2833,2.273,2.2852,2.2818,2.3049,2.3185,2.3063,2.3029,2.3008,2.3008,2.2886,2.2818,2.2784,2.292,2.2995,2.2974,2.2974,2.2907,2.2744,2.2622,2.2479,2.2337,2.2337,2.2337,2.2337,2.2337,2.2337,2.2337,2.2479,2.2574,2.2608,2.2784,2.2852,2.2873,2.2995,2.3042,2.3063,2.3171,2.3219,2.3219,2.3259,2.3347,2.3449,2.3483,2.3483,2.3524,2.3666,2.3626,2.3558,2.3714,2.3754,2.3788,2.389,2.3931,2.3965,2.4087,2.4121,2.4121,2.4121,2.4121,2.4121,2.4121,2.4121,2.4121,2.4121,2.4121,2.4121,2.4121,2.4121,2.4175,2.3976,1.8462,1.0868,0.1211,0.0,0.0,0.0,0.0,0.0,0.0,0.0,0.0,0.0,0.0,0.0,0.0,0.0,0.0,0.0,0.0,0.0,0.0,0.0,0.0,0.0,0.0,0.0,0.0,0.0,0.0,0.0,0.0,0.0,0.0,0.0,0.0,0.0,3.1369,3.2073,2.949,2.8551,2.6935,2.3167,2.2886,2.3117,2.2995,2.3117,2.3219,2.3205,2.3083,2.3008,2.3008,2.2995,2.292,2.2798,2.292,2.2961,2.2818,2.2818,2.2744,2.2588,2.2574,2.2479,2.2337,2.2337,2.2337,2.2337,2.2337,2.2337,2.2337,2.2479,2.2622,2.2764,2.3049,2.3171,2.3171,2.3185,2.3185,2.3205,2.3219,2.3219,2.3239,2.3361,2.3429,2.347,2.3612,2.3646,2.368,2.3822,2.3856,2.3856,2.4012,2.4066,2.4066,2.4087,2.4087,2.41,2.4121,2.4121,2.4121,2.4121,2.4121,2.4121,2.4121,2.4121,2.4121,2.4121,2.4121,2.4121,2.4121,2.4155,2.4223,2.3976,2.3113,1.7005,0.1817,0.0,0.0,0.0,0.0,0.0,0.0,0.0,0.0,0.0,0.0,0.0,0.0,0.0,0.0,0.0,0.0,0.0,0.0,0.0,0.0,0.0,0.0,0.0,1.5506,0.0,0.0,0.0,0.0,0.0,2.3451,0.0,2.5762,2.5762,2.6896,2.823,2.8509,2.6935,2.4976,2.3005,2.292,2.3049,2.2907,2.3083,2.3171,2.2995,2.2995,2.2974,2.2886,2.2886,2.2852,2.2784,2.2852,2.2852,2.2784,2.2784,2.271,2.2554,2.2554,2.2479,2.2337,2.2337,2.2337,2.2337,2.2337,2.2337,2.2337,2.2479,2.2642,2.2798,2.3008,2.3151,2.3219,2.3219,2.3219,2.3219,2.3219,2.3219,2.3239,2.3395,2.3503,2.3592,2.3754,2.3802,2.3822,2.3978,2.3965,2.3931,2.4066,2.4121,2.4121,2.4121,2.4121,2.4121,2.4121,2.4121,2.4121,2.4121,2.4121,2.4121,2.4121,2.4121,2.4121,2.4121,2.4121,2.4121,2.4121,2.4175,2.2684,1.8126,2.1256,1.8233,0.2121,0.0,0.0,0.0,0.0,0.0,0.0,0.0,0.0,0.0,0.0,0.0,0.0,0.0,0.0,0.0,0.0,0.0,0.0,0.0,0.0,0.0,0.0,0.0,0.0,0.0,1.9413,2.1252,2.2113,2.2588,0.0,0.0,2.3219,2.3219,2.3219,2.4017,2.666,2.4991,2.3008,2.2818,2.294,2.2995,2.2818,2.3029,2.3117,2.2818,2.292,2.2961,2.2798,2.2784,2.2764,2.273,2.273,2.271,2.2676,2.2676,2.2622,2.25,2.25,2.2445,2.2337,2.2337,2.2337,2.2337,2.2337,2.2337,2.2337,2.2445,2.2588,2.273,2.292,2.3063,2.3171,2.3205,2.3219,2.3219,2.3219,2.3219,2.3239,2.3395,2.3524,2.3646,2.3822,2.389,2.391,2.4066,2.4053,2.3978,2.4087,2.4121,2.4121,2.4121,2.4121,2.4121,2.4121,2.4121,2.4121,2.4121,2.4121,2.4121,2.4121,2.4121,2.4121,2.4121,2.4121,2.4121,2.4121,2.4175,2.1454,1.3261,1.5428,1.3642,0.1515,0.0,0.0,0.0,0.0,0.0,0.0,0.0,0.0,0.0,0.0,0.0,0.0,0.0,0.0,0.0,0.0,0.0,0.0,0.0,0.0,0.0,0.0,0.0,0.0,1.5459,0.0,1.8905,2.056,2.1848,0.0,2.2818,2.3219,2.3219,2.3219,2.3171,2.332,2.3117,2.3117,2.2832,2.3029,2.3117,2.2818,2.3029,2.3117,2.2818,2.292,2.2961,2.2798,2.2784,2.273,2.2574,2.2574,2.25,2.2378,2.2357,2.2357,2.2357,2.2357,2.2337,2.2337,2.2337,2.2337,2.2337,2.2337,2.2337,2.2337,2.2337,2.2432,2.2588,2.2886,2.3008,2.3029,2.3171,2.3219,2.3219,2.3219,2.3219,2.3239,2.3395,2.3449,2.3503,2.3788,2.389,2.391,2.4066,2.4121,2.41,2.4121,2.4121,2.4121,2.4121,2.4121,2.4121,2.4121,2.4121,2.4121,2.4121,2.4121,2.4121,2.4121,2.4121,2.4121,2.4121,2.4121,2.4121,2.4121,2.4175,2.1454,1.3261,0.603,0.0907,0.0,0.0,0.0,0.0,0.0,0.0,0.0,0.0,0.0,0.0,0.0,0.0,0.0,0.0,0.0,0.0,0.0,0.0,0.0,0.0,0.0,0.0,0.0,0.0,0.0,0.0,1.6415,1.8077,1.9447,2.0594,2.1421,2.216,2.2744,2.3029,2.3151,2.3205,2.3151,2.5168,2.5941,2.3114,2.4998,2.5933,2.3094,2.2961,2.2974,2.2676,2.2676,2.2656,2.2513,2.25,2.2479,2.2425,2.2411,2.2391,2.2337,2.2337,2.2337,2.2337,2.2337,2.2337,2.2337,2.2337,2.2337,2.2337,2.2337,2.2337,2.2337,2.2337,2.2378,2.2432,2.2622,2.2832,2.3008,2.3063,2.313,2.3219,2.3219,2.3219,2.3239,2.3395,2.3449,2.3483,2.3788,2.3843,2.3788,2.3931,2.3978,2.3978,2.3978,2.4053,2.4121,2.4121,2.4121,2.4121,2.4121,2.4121,2.4121,2.4121,2.4121,2.4121,2.4121,2.4121,2.4121,2.4121,2.4121,2.4121,2.4121,2.4175,2.3179,2.0151,0.8361,0.0,0.0,0.0,0.0,0.0,0.0,0.0,0.0,0.0,0.0,0.0,0.0,0.0,0.0,0.0,0.0,0.0,0.0,0.0,0.0,0.0,0.0,0.0,0.0,0.0,1.2854,0.0,0.0,1.6937,1.7989,1.9047,2.0756,2.1496,2.2025,2.2784,2.3049,2.313,2.3083,2.621,2.7564,2.3452,2.5223,2.5781,2.3025,2.2832,2.2818,2.252,2.252,2.25,2.2357,2.2337,2.2337,2.2337,2.2337,2.2337,2.2337,2.2337,2.2337,2.2337,2.2337,2.2337,2.2337,2.2337,2.2337,2.2337,2.2337,2.2337,2.2337,2.2337,2.2337,2.2337,2.2445,2.2622,2.2873,2.2974,2.3063,2.3151,2.3205,2.3219,2.3239,2.3347,2.3381,2.3415,2.366,2.368,2.3626,2.3768,2.3856,2.389,2.389,2.3999,2.4121,2.4121,2.4121,2.4121,2.4121,2.4121,2.4121,2.4121,2.4121,2.4121,2.4121,2.4121,2.4121,2.4121,2.41,2.4066,2.4053,2.4066,2.3965,2.3877,1.4871,0.6262,0.0584,0.0,0.0,0.0,0.0,0.0,0.0,0.0,0.0,0.0,0.0,0.0,0.0,0.0,0.0,0.0,0.0,0.0,0.0,0.0,0.0,0.0,0.0,0.0,0.0,0.0,0.0,1.533,1.6117,1.7229,2.0187,2.0756,2.1055,2.2432,2.2832,2.292,2.2798,2.5948,2.7169,2.3564,2.2873,2.3011,2.2588,2.2676,2.2676,2.2378,2.2466,2.25,2.2357,2.2337,2.2337,2.2337,2.2337,2.2337,2.2337,2.2337,2.2337,2.2337,2.2337,2.2337,2.2337,2.2337,2.2337,2.2337,2.2337,2.2337,2.2337,2.2337,2.2337,2.2337,2.2337,2.2411,2.2574,2.2873,2.3008,2.3029,2.3171,2.3219,2.3219,2.3219,2.3219,2.3239,2.3395,2.3449,2.347,2.3626,2.3768,2.3877,2.3877,2.3999,2.4121,2.4121,2.4121,2.4121,2.4121,2.4121,2.4121,2.4121,2.4121,2.4121,2.4121,2.4121,2.4121,2.4121,2.4033,2.3965,2.3588,2.3877,2.4138,2.3754,2.3843,1.8167,0.2071,0.0,0.0,0.0,0.0,0.0,0.0,0.0,0.0,0.0,0.0,0.0,0.0,0.0,0.0,0.0,0.0,0.0,0.0,0.0,0.0,0.0,0.0,0.0,1.1389,0.0,0.0,0.0,0.0,0.0,1.706,1.7826,1.8742,2.075,2.1374,2.1815,2.2622,2.3658,2.3911,2.2977,2.4939,2.5817,2.3005,2.2656,2.2588,2.25,2.2445,2.2378,2.2337,2.2337,2.2337,2.2337,2.2337,2.2337,2.2337,2.2337,2.2337,2.2337,2.2337,2.2337,2.2337,2.2337,2.2337,2.2337,2.2337,2.2337,2.2337,2.2337,2.2337,2.2337,2.2337,2.2357,2.2425,2.273,2.2907,2.3029,2.3171,2.3219,2.3219,2.3219,2.3219,2.3239,2.3395,2.3381,2.3307,2.347,2.3537,2.3571,2.3571,2.3748,2.3965,2.3965,2.4033,2.4121,2.4121,2.4121,2.4121,2.4121,2.4121,2.4087,2.3978,2.3965,2.3965,2.4019,2.391,2.202,1.6314,1.9925,2.37,2.3828,2.3925,1.8325,0.2006,0.0,0.0,0.0,0.0,0.0,0.0,0.0,0.0,0.0,0.0,0.0,0.0,0.0,0.0,0.0,0.0,0.0,0.0,0.0,0.0,0.0,0.0,0.0,1.164,0.0,0.0,0.0,0.0,0.0,1.6259,1.6931,1.7772,2.0153,2.079,2.1231,2.2303,2.2289,2.2181,2.2344,2.4357,2.4993,2.286,2.252,2.2466,2.2466,2.2391,2.2337,2.2337,2.2337,2.2337,2.2337,2.2337,2.2303,2.2249,2.2249,2.2249,2.2249,2.2249,2.2269,2.2337,2.2337,2.2337,2.2337,2.2337,2.2337,2.2337,2.2337,2.2337,2.2337,2.2337,2.2337,2.2357,2.2588,2.2784,2.294,2.3137,2.3219,2.3219,2.3219,2.3219,2.3239,2.3327,2.3293,2.3239,2.3327,2.3395,2.3449,2.3449,2.3612,2.3802,2.3802,2.391,2.4012,2.3944,2.3978,2.4012,2.3944,2.3944,2.391,2.3822,2.3754,2.3754,2.3877,2.1363,1.7409,1.2969,1.2969,1.4959,1.8186,2.1499,2.0364,1.0894,0.4024,0.0,0.0,0.0,0.0,0.0,0.0,0.0,0.0,0.0,0.0,0.0,0.0,0.0,0.0,0.0,0.0,0.0,0.0,0.0,0.0,0.0,0.0,1.2081,1.2359,0.0,0.0,0.0,0.0,1.6435,1.687,1.7351,1.9712,2.0261,2.0594,2.155,2.1319,2.1143,2.1638,2.1862,2.2072,2.2303,2.2337,2.2337,2.2337,2.2337,2.2337,2.2337,2.2337,2.2337,2.2337,2.2337,2.2289,2.2147,2.2127,2.2127,2.2127,2.2127,2.2201,2.2303,2.2323,2.2323,2.2323,2.2323,2.2323,2.2337,2.2337,2.2337,2.2337,2.2337,2.2337,2.2357,2.25,2.2642,2.2784,2.3083,2.3205,2.3205,2.3219,2.3219,2.3219,2.3219,2.3219,2.3219,2.3219,2.3307,2.3429,2.3429,2.3537,2.3666,2.368,2.3768,2.3843,2.3714,2.3768,2.3843,2.3714,2.368,2.368,2.3666,2.3537,2.3503,2.368,1.7369,1.1715,1.0841,0.4676,0.2332,0.9294,1.6343,2.1119,2.2889,0.9613,0.0,0.0,0.0,0.0,0.0,0.0,0.0,0.0,0.0,0.0,0.0,0.0,0.0,0.0,0.0,0.0,0.0,0.0,0.0,0.0,0.0,0.0,1.3078,1.2901,1.3234,0.0,0.0,0.0,1.3553,1.419,1.5167,1.6388,1.7019,1.7738,1.8993,1.9434,1.9522,1.9271,2.0349,2.1475,2.2235,2.2337,2.2337,2.2337,2.2337,2.2337,2.2337,2.2337,2.2337,2.2337,2.2337,2.2323,2.2303,2.2289,2.2289,2.2289,2.2289,2.2249,2.216,2.216,2.216,2.216,2.216,2.2215,2.2337,2.2337,2.2337,2.2337,2.2337,2.2337,2.2357,2.25,2.2574,2.2622,2.294,2.3049,2.3063,2.3185,2.3219,2.3219,2.3219,2.3219,2.3219,2.3219,2.3239,2.3273,2.3273,2.3381,2.3524,2.3646,2.37,2.3714,2.368,2.37,2.3714,2.368,2.368,2.3646,2.3524,2.347,2.3429,2.3395,1.6899,0.9598,0.3501,0.1168,0.0583,0.2034,0.3449,0.918,2.1656,0.95,0.0,0.0,0.0,0.0,0.0,0.0,0.0,0.0,0.0,0.0,0.0,0.0,0.0,0.0,0.0,0.0,0.0,0.0,0.0,0.0,0.0,0.0,1.3506,1.3281,1.3532,1.36,0.0,0.0,0.0,1.4027,1.4638,1.5832,1.6083,1.6469,1.7738,1.786,1.7914,1.8355,1.9501,2.0539,2.1143,2.1794,2.2235,2.2235,2.216,2.2113,2.2113,2.2113,2.2113,2.2113,2.2181,2.216,2.2004,2.2004,2.2004,2.2004,2.2004,2.2004,2.2004,2.2004,2.2038,2.2113,2.2113,2.2201,2.2337,2.2337,2.2337,2.2337,2.2337,2.2337,2.2337,2.2411,2.2445,2.2479,2.2866,2.3008,2.3029,2.3171,2.3219,2.3219,2.3219,2.3219,2.3219,2.3219,2.3219,2.3219,2.3219,2.3273,2.3347,2.3436,2.3503,2.3558,2.347,2.3503,2.3537,2.347,2.3449,2.3436,2.3347,2.3347,2.3327,2.3307,2.0099,1.3674,0.2037,0.0,0.0,0.0,0.0,0.2885,1.05,0.4916,0.0,0.0,0.0,0.0,0.0,0.0,0.0,0.0,0.0,0.0,0.0,0.0,0.0,0.0,0.0,0.0,0.0,0.0,0.0,0.0,0.0,0.0,0.0,0.0,0.0,0.0,0.0,1.4029,0.0,0.0,0.0,1.5615,1.5527,1.556,1.6585,1.6307,1.6279,1.7372,1.8423,1.9183,1.9434,2.056,2.1496,2.1815,2.1848,2.1828,2.1794,2.1686,2.1686,2.1862,2.1828,2.1774,2.1726,2.1706,2.1706,2.1706,2.1706,2.176,2.1848,2.1848,2.1916,2.2059,2.2059,2.216,2.2337,2.2337,2.2337,2.2337,2.2337,2.2337,2.2337,2.2337,2.2337,2.2378,2.2764,2.294,2.2974,2.313,2.3205,2.3219,2.3219,2.3219,2.3219,2.3219,2.3219,2.3219,2.3219,2.3219,2.3219,2.3219,2.3307,2.3381,2.3259,2.3307,2.3381,2.3259,2.3219,2.3219,2.3219,2.3219,2.3239,2.3293,2.3341,1.8368,0.2614,0.0,0.0,0.0,0.0,0.0,0.0,0.0,0.0,0.0,0.0,0.0,0.0,0.0,0.0,0.0,0.0,0.0,0.0,0.0,0.0,0.0,0.0,0.0,0.0,0.0,0.0,0.0,0.0,0.0,0.0,0.0,0.0,0.0,1.6214,0.0,0.0,0.0,1.396,1.3464,0.0,1.398,1.438,0.0,0.0,1.4733,1.6062,1.7093,1.7127,1.807,1.9291,2.0756,2.1387,2.1638,2.1509,2.1001,2.1021,2.1828,2.1157,2.1055,2.1815,2.1862,2.1862,2.1862,2.1862,2.1815,2.1692,2.1692,2.176,2.1903,2.1903,2.2059,2.2337,2.2337,2.2337,2.2337,2.2337,2.2337,2.2337,2.2337,2.2337,2.2357,2.2534,2.2696,2.2832,2.2974,2.3117,2.3219,2.3219,2.3219,2.3219,2.3219,2.3219,2.3219,2.3219,2.3219,2.3219,2.3219,2.3239,2.3239,2.3219,2.3239,2.3239,2.3219,2.3219,2.3219,2.3219,2.3219,2.3219,2.3219,2.3327,1.8368,0.2614,0.0,0.0,0.0,0.0,0.0,0.0,0.0,0.0,0.0,0.0,0.0,0.0,0.0,0.0,0.0,0.0,0.0,0.0,0.0,0.0,0.0,0.0,0.0,0.0,0.0,0.0,0.0,0.0,0.0,0.0,0.0,0.0,0.0,0.0,0.0,0.0,0.0,1.339,0.0,0.0,0.0,0.0,0.0,0.0,0.0,1.5201,1.6076,1.5988,1.6951,1.8111,1.9325,1.9393,1.9447,1.9732,1.9834,2.0207,2.0933,2.0539,2.0648,2.1441,2.1496,2.153,2.1618,2.1618,2.1597,2.153,2.153,2.1618,2.176,2.176,2.1916,2.2201,2.2201,2.2249,2.2337,2.2337,2.2337,2.2337,2.2337,2.2337,2.2337,2.2411,2.252,2.2676,2.292,2.3049,2.3117,2.3185,2.3219,2.3219,2.3219,2.3219,2.3219,2.3219,2.3219,2.3219,2.3219,2.3171,2.3097,2.3097,2.3029,2.2961,2.2961,2.2961,2.2961,2.2961,2.2961,2.2961,2.2961,2.3063,1.9625,0.8612,0.2887,0.0,0.0,0.0,0.0,0.0,0.0,0.0,0.0,0.0,0.0,0.0,0.0,0.0,0.0,0.0,0.0,0.0,0.0,0.0,0.0,0.0,0.0,0.0,0.0,0.0,0.0,0.0,0.0,2.4794,0.0,0.0,0.0,0.0,0.0,0.0,0.0,0.0,0.0,0.0,0.0,0.0,0.0,0.0,0.0,0.0,1.5174,1.5059,1.5683,1.6592,1.7772,1.7758,1.786,1.8423,1.8654,1.9149,2.0085,1.9786,2.0031,2.1157,2.1211,2.1279,2.1441,2.1441,2.1441,2.1441,2.1441,2.1509,2.1672,2.1672,2.1828,2.2113,2.2113,2.2201,2.2337,2.2337,2.2337,2.2337,2.2337,2.2337,2.2337,2.2337,2.2411,2.2534,2.2784,2.2907,2.2974,2.3117,2.3185,2.3219,2.3219,2.3205,2.3171,2.3171,2.313,2.3097,2.3097,2.3029,2.294,2.294,2.2873,2.2784,2.2784,2.2784,2.2784,2.2784,2.2784,2.2784,2.2784,2.2873,2.0605,1.2796,0.5151,0.0,0.0,0.0,0.0,0.0,0.0,0.0,0.0,0.0,0.0,0.0,0.0,0.0,0.0,0.0,0.0,0.0,0.0,0.0,0.0,0.0,0.0,0.0,0.0,0.0,0.0,0.0,0.0,0.0,0.0,0.0,2.3555,0.0,0.0,0.0,0.0,1.3817,0.0,0.0,0.0,0.0,0.0,0.0,0.0,0.0,0.0,0.0,1.377,1.4231,1.6151,1.7134,1.7826,1.8287,1.7561,1.7792,1.9556,1.8728,1.904,2.1109,2.1211,2.1279,2.1441,2.1441,2.1441,2.1441,2.1441,2.1509,2.1672,2.1672,2.1828,2.2113,2.2113,2.2201,2.2337,2.2337,2.2337,2.2337,2.2337,2.2337,2.2337,2.2337,2.2337,2.2357,2.252,2.2656,2.2818,2.2961,2.3097,2.3219,2.3219,2.313,2.3008,2.3008,2.2907,2.2798,2.2798,2.2798,2.2784,2.2784,2.2784,2.2784,2.2784,2.2784,2.2784,2.2784,2.2784,2.2784,2.2784,2.2866,2.0569,1.2997,0.5116,0.0,0.0,0.0,0.0,0.0,0.0,0.0,0.0,0.0,0.0,0.0,0.0,0.0,0.0,0.0,0.0,0.0,0.0,0.0,0.0,0.0,0.0,0.0,0.0,0.0,0.0,0.0,0.0,3.5027,0.0,3.3702,2.9495,0.0,0.0,0.0,0.0,0.0,0.0,0.0,0.0,0.0,0.0,0.0,0.0,0.0,0.0,0.0,1.28,1.2983,1.4238,1.5269,1.5893,1.5947,1.6388,1.7053,1.7948,1.7792,1.8423,2.0227,2.0417,2.0716,2.1265,2.1387,2.1441,2.1441,2.1441,2.1455,2.1509,2.1509,2.1672,2.195,2.195,2.2093,2.2337,2.2337,2.2337,2.2337,2.2337,2.2337,2.2337,2.2337,2.2337,2.2357,2.25,2.2588,2.2656,2.2798,2.2886,2.292,2.292,2.2907,2.2852,2.2852,2.2818,2.2784,2.2784,2.271,2.2622,2.2622,2.2554,2.2479,2.2479,2.2479,2.2479,2.2479,2.2479,2.2479,2.2479,2.2581,2.005,1.2616,0.5061,0.0,0.0,0.0,0.0,0.0,0.0,0.0,0.0,0.0,0.0,0.0,0.0,0.0,0.0,0.0,0.0,0.0,0.0,0.0,0.0,0.0,0.0,0.0,0.0,0.0,0.0,0.0,0.0,3.9773,3.9519,3.8306,3.3858,3.1708,0.0,2.4367,0.0,0.0,0.0,0.0,0.0,0.0,0.0,0.0,0.0,0.0,0.0,0.0,1.2379,1.2515,1.3091,1.3953,0.0,1.4943,1.5337,1.5974,1.6958,1.6883,1.7548,1.9305,1.9888,2.0417,2.0967,2.1333,2.153,2.153,2.1475,2.1441,2.1441,2.1441,2.1564,2.1815,2.1862,2.2025,2.2269,2.2323,2.2337,2.2337,2.2337,2.2337,2.2337,2.2337,2.2337,2.2357,2.2445,2.252,2.2574,2.2662,2.273,2.2784,2.2784,2.2744,2.2696,2.2696,2.2656,2.2622,2.2622,2.2554,2.2479,2.2479,2.2411,2.2337,2.2337,2.2337,2.2337,2.2337,2.2337,2.2337,2.2337,2.2425,1.9924,1.2566,0.5036,0.0,0.0,0.0,0.0,0.0,0.0,0.0,0.0,0.0,0.0,0.0,0.0,0.0,0.0,0.0,0.0,0.0,0.0,0.0,0.0,0.0,0.0,0.0,0.0,0.0,0.0,0.0,0.0]}]]